GFSSW_850_spd_000.txt.gz
Wind_Speed
19 19 18 19 20 21 23 22 22 24 25 23 23 22 21 23 27 33 35 36 26 10 13 11 9 9 7 8 7 7 3 6 10 13 11 6 5 2 5 6 3 3 3 9 12
17 15 16 17 18 19 20 21 22 23 24 26 24 22 21 22 26 34 45 37 35 19 11 13 12 11 9 6 6 5 4 8 13 9 9 15 9 12 2 10 7 7 5 9 10
14 13 16 16 16 15 15 17 19 21 22 25 24 24 22 19 21 38 39 40 28 27 15 12 10 12 12 14 12 10 10 14 25 13 11 13 18 16 8 8 10 15 19 14 11
10 13 15 17 17 17 15 16 16 17 19 21 22 23 21 21 12 28 37 46 34 29 15 12 12 17 8 7 15 13 20 21 23 16 5 10 17 15 15 19 2 3 7 13 13
7 7 9 11 13 15 17 16 16 16 19 21 23 22 23 26 33 3 34 44 41 27 19 16 16 14 11 9 14 12 15 19 23 21 10 16 16 14 18 12 12 10 4 12 12
10 10 11 10 11 13 14 15 15 15 14 19 24 24 28 22 40 8 22 45 54 41 28 20 14 17 12 14 11 16 11 16 20 15 15 8 14 6 11 13 10 11 11 10 14
13 13 11 10 10 11 13 14 14 15 15 15 21 22 22 24 36 22 23 41 51 42 38 24 20 13 10 7 17 16 11 11 14 13 9 2 7 11 25 12 5 8 13 12 15
10 11 11 10 11 10 10 10 12 14 13 12 16 16 9 31 28 33 26 36 42 38 37 25 21 13 13 12 8 6 8 10 12 16 7 6 8 18 20 3 7 11 11 14 14
14 11 11 9 7 7 7 7 6 9 16 14 12 11 10 15 24 29 31 37 35 30 28 19 16 9 9 6 6 7 7 12 15 12 6 8 8 5 4 10 11 12 11 13 13
11 11 7 7 5 5 5 7 7 7 11 14 9 3 12 19 25 31 38 36 34 27 17 14 8 6 7 6 6 7 10 14 10 7 4 8 10 11 9 12 14 13 9 7 9
13 10 10 4 3 11 18 12 8 5 13 11 16 8 21 22 31 29 35 34 30 26 8 17 7 11 11 12 13 9 8 10 5 7 2 8 10 2 6 13 7 15 19 17 15
13 10 11 4 11 10 5 4 5 8 9 11 26 17 18 25 21 22 34 16 15 16 11 11 12 11 13 11 3 7 7 8 2 4 1 8 6 4 4 5 9 22 18 16 15
11 13 6 5 5 9 2 4 13 7 3 13 18 20 9 9 9 11 25 21 16 14 15 13 11 10 6 5 4 6 6 5 4 1 8 6 5 6 5 15 21 17 15 16 17
13 9 3 7 8 13 9 19 15 2 5 6 7 6 5 16 7 15 18 16 3 18 16 11 1 9 7 6 7 6 2 2 5 5 2 7 2 6 7 7 9 15 12 14 15
14 16 16 9 17 15 10 17 20 4 4 3 2 4 9 12 17 9 25 13 14 11 4 3 8 8 6 7 2 2 2 2 4 6 6 6 1 6 10 8 8 11 12 13 12
9 14 11 13 10 7 11 12 11 3 6 4 2 8 13 13 14 20 14 20 8 5 6 5 4 4 1 4 1 0 4 6 5 3 3 3 2 5 10 10 8 11 12 11 10
4 5 10 8 3 6 11 7 2 5 2 4 3 7 16 9 5 10 7 6 5 8 5 5 4 3 1 4 3 5 4 1 2 2 3 3 1 7 6 12 10 11 14 10 9
4 3 3 15 20 6 12 2 8 4 7 10 6 11 8 3 4 6 9 4 2 6 10 5 3 6 5 2 4 7 2 2 3 3 2 2 4 2 9 17 19 14 13 10 7
2 4 9 21 20 1 7 4 4 4 6 7 10 11 4 3 3 1 5 3 4 2 1 6 4 3 4 3 4 3 3 1 4 1 1 3 4 5 10 9 15 13 12 9 5
3 3 8 20 7 4 1 5 4 5 6 12 5 6 6 6 3 3 3 4 3 4 4 4 6 3 2 3 1 2 4 1 2 2 3 4 3 4 8 8 9 10 9 9 5
5 4 18 4 2 2 3 6 7 8 4 3 4 15 14 8 4 5 5 2 3 2 5 5 3 3 3 5 2 2 2 3 1 0 1 1 3 5 6 8 10 9 10 7 4
6 2 15 5 4 5 4 3 7 3 3 3 8 10 7 9 5 3 4 5 4 1 2 1 2 4 2 2 2 2 3 7 2 1 3 3 6 5 9 8 12 8 8 6 6
3 4 20 12 5 6 7 6 8 6 7 3 4 3 2 3 4 5 6 6 6 5 2 3 1 4 2 2 3 2 2 3 5 2 3 3 4 2 8 8 8 11 11 8 8
4 2 7 19 20 8 8 6 4 5 4 8 2 5 5 7 6 6 5 2 3 4 3 1 2 3 2 5 2 3 2 3 3 2 3 8 9 9 5 6 7 8 8 9 8
6 2 1 3 6 7 6 4 6 3 3 5 4 7 3 4 6 4 5 4 5 1 3 3 2 5 5 3 2 5 8 8 10 12 6 15 12 14 11 12 18 1 6 5 5
3 2 4 4 1 3 2 4 6 4 7 4 6 5 8 8 6 4 5 2 3 0 2 3 1 3 2 7 4 6 11 11 14 17 15 16 20 18 23 3 3 4 3 7 7
5 5 3 1 1 2 3 4 6 2 6 9 6 5 10 8 12 11 9 7 4 3 4 2 1 3 3 4 4 9 12 14 10 11 8 12 16 9 4 5 6 7 4 7 10

GFSSW_850_spd_003.txt.gz
Wind_Speed
16 17 18 19 20 19 20 21 22 21 21 22 21 19 18 16 21 26 33 30 29 16 18 16 14 10 4 5 5 3 3 3 5 3 4 17 10 13 9 2 0 2 4 4 10
13 14 16 17 17 17 17 18 18 20 19 21 22 21 18 14 19 29 36 37 31 17 18 18 13 12 7 5 4 4 4 6 6 7 9 13 10 16 7 8 3 5 4 7 11
12 12 13 17 17 18 17 16 16 17 19 19 19 19 18 13 15 29 36 41 37 25 16 17 12 13 11 8 5 5 5 7 22 23 20 11 14 15 12 3 10 12 16 15 15
10 9 12 15 15 18 16 16 16 18 19 19 19 19 17 16 9 8 35 44 38 32 23 20 17 10 7 5 11 5 15 17 26 28 15 10 14 16 12 12 17 11 8 17 16
9 7 8 13 14 16 19 19 18 17 17 18 19 18 17 22 27 8 12 41 37 35 29 19 16 10 5 6 11 5 15 22 24 24 25 19 12 11 22 20 20 13 7 10 14
13 11 11 12 14 16 17 18 21 19 17 16 18 20 21 18 39 11 11 34 45 37 32 22 15 17 3 9 4 12 17 14 14 18 23 9 13 7 15 18 10 10 10 9 14
12 13 12 11 12 13 15 18 19 18 18 16 18 23 23 23 25 30 12 27 44 42 37 26 16 9 0 4 12 21 7 8 11 16 8 4 6 11 29 24 11 9 10 13 14
14 15 12 11 12 13 14 15 16 16 17 15 17 22 11 30 28 20 30 22 38 44 41 25 21 9 7 9 9 4 2 2 7 8 14 9 7 16 25 12 13 8 8 10 18
17 15 14 14 11 9 10 12 13 15 14 14 16 17 7 15 23 27 26 26 39 40 39 21 12 13 6 2 4 2 4 6 8 10 7 6 6 9 14 7 8 9 9 5 17
12 9 13 8 9 9 9 8 10 14 20 18 17 8 9 15 24 25 30 25 40 34 22 16 10 3 2 4 6 6 4 6 7 3 6 5 8 11 20 2 6 4 17 17 14
11 6 10 3 2 8 12 15 11 7 15 7 16 4 10 16 17 19 27 37 39 35 7 15 4 9 13 8 5 5 4 7 3 1 4 6 7 12 8 10 19 18 20 19 15
13 11 8 4 5 8 13 5 9 8 6 17 7 14 12 24 14 22 30 20 36 23 13 7 9 12 9 11 9 9 7 6 3 5 4 4 7 3 4 7 18 19 17 16 13
16 12 8 7 12 7 10 5 12 15 4 4 12 8 13 11 11 17 24 20 23 20 15 11 8 11 13 6 10 7 2 1 3 5 3 2 7 3 5 16 18 16 15 12 12
16 6 5 8 4 4 7 17 18 5 3 5 6 5 15 6 6 14 20 19 2 22 10 7 8 13 8 7 6 4 4 3 3 5 3 5 4 3 6 5 5 13 14 12 11
12 10 7 7 9 13 16 18 12 4 4 3 2 11 14 6 21 3 12 7 8 13 3 7 8 11 7 7 6 4 1 2 1 1 3 3 3 6 6 5 6 9 15 12 12
7 6 11 14 15 16 16 15 8 3 5 2 3 5 10 1 5 9 7 10 14 1 3 6 8 6 7 3 5 5 1 2 3 3 1 6 6 4 9 9 6 8 17 14 11
7 2 8 13 8 14 14 14 4 4 1 2 4 10 18 7 11 11 10 8 6 8 5 5 3 0 3 5 3 4 5 1 2 1 5 3 2 8 12 12 12 12 19 16 10
5 8 7 9 9 8 17 5 4 7 7 9 10 20 12 10 10 13 13 10 12 9 5 5 3 5 3 4 5 5 7 4 3 3 4 2 5 6 12 18 26 25 21 17 10
9 8 8 3 5 10 10 3 4 4 4 10 11 5 7 6 9 9 6 3 3 2 5 5 1 1 3 2 3 4 4 4 2 2 2 3 4 5 7 9 16 21 19 14 9
6 5 2 16 5 16 1 4 5 4 11 5 4 3 16 14 8 6 4 3 3 2 2 4 5 1 1 2 2 3 1 2 2 3 2 5 3 3 6 8 7 9 18 15 12
3 3 8 12 9 3 4 4 4 4 7 4 5 6 5 5 2 3 4 2 2 3 2 2 4 2 3 4 5 2 1 1 2 4 4 2 5 5 7 8 10 10 17 17 14
3 2 15 8 4 3 3 3 4 4 5 5 9 5 6 5 4 4 4 3 5 1 2 1 5 4 2 2 2 2 4 5 4 1 1 4 5 3 5 8 16 17 16 12 11
5 5 16 5 3 2 3 4 5 5 5 4 4 2 5 3 5 4 4 5 8 3 3 0 3 4 4 3 2 3 2 3 3 2 3 3 5 1 2 7 13 12 14 14 11
2 3 11 24 13 6 5 4 4 6 5 5 4 6 5 7 6 4 3 3 6 3 5 2 3 3 5 4 4 4 3 3 5 3 4 7 5 5 4 3 2 6 13 17 13
2 1 2 1 5 6 5 3 3 3 3 5 5 4 3 4 3 4 3 2 5 3 3 3 3 3 2 2 1 4 6 6 7 5 6 2 8 8 5 6 8 5 16 17 15
1 4 5 2 1 7 5 4 4 3 4 4 6 11 12 5 1 4 6 3 3 1 2 4 2 3 2 3 4 6 8 9 10 8 8 9 17 9 17 15 4 11 19 18 19
3 3 3 1 2 4 1 3 3 6 6 10 3 6 10 3 7 8 12 10 6 5 2 3 3 3 0 4 5 8 8 10 4 3 5 7 9 5 3 4 4 4 14 18 18

GFSSW_850_spd_006.txt.gz
Wind_Speed
12 14 16 17 18 20 20 21 22 22 21 21 23 20 18 17 19 18 27 32 26 14 19 21 18 15 8 5 6 3 3 2 5 3 4 16 9 14 14 7 4 2 3 5 10
11 12 14 16 16 16 17 19 20 20 21 21 21 22 19 15 19 25 31 34 30 19 23 21 20 15 7 5 5 4 4 7 6 2 5 17 15 20 9 20 3 3 6 7 13
13 13 14 14 16 18 17 17 17 17 18 20 20 19 18 13 12 25 32 34 35 27 21 24 16 15 11 6 6 6 5 5 13 18 17 10 16 12 6 6 8 6 11 13 14
10 12 13 13 15 14 16 17 17 17 18 20 20 18 17 14 7 4 21 34 39 34 24 21 15 9 6 5 11 3 12 14 19 25 15 6 16 10 13 16 18 20 15 15 19
11 10 11 12 13 14 18 19 19 18 19 20 19 18 18 17 24 2 4 32 40 39 29 22 15 14 6 7 8 4 7 17 25 26 22 19 12 12 15 21 16 16 13 16 17
12 12 13 15 16 15 16 18 21 20 18 17 17 18 21 16 31 5 4 26 42 41 32 26 15 17 12 7 6 5 9 15 15 20 16 7 14 7 16 25 24 17 15 15 16
13 12 13 14 15 14 16 17 20 20 19 18 17 20 22 24 19 26 7 16 36 42 35 31 14 16 8 3 6 9 6 8 14 18 7 10 8 9 24 24 25 19 13 16 17
13 15 17 14 14 15 14 14 17 19 19 18 18 20 13 29 24 17 19 13 28 35 34 28 20 14 3 2 4 2 2 3 5 5 10 8 9 13 18 12 19 18 10 9 16
14 13 12 14 16 14 13 14 14 16 17 17 17 17 8 14 24 24 21 17 21 29 33 21 17 5 3 3 3 3 4 5 9 9 3 6 7 12 12 14 12 9 2 9 9
14 14 12 7 9 12 11 12 13 15 15 14 16 12 12 15 22 23 23 21 20 30 26 15 9 3 2 4 6 5 4 5 6 4 7 6 11 9 16 9 9 8 13 12 8
13 13 11 7 5 10 14 13 10 5 20 6 14 10 5 19 16 16 24 23 25 24 11 15 4 10 12 9 5 4 3 4 8 9 7 8 6 11 6 9 14 15 14 12 10
17 14 13 6 5 11 15 10 12 8 9 10 2 21 4 21 11 20 26 21 26 20 20 5 17 12 9 6 5 5 7 9 9 4 1 1 8 7 3 5 15 16 12 10 10
19 12 9 9 11 13 18 20 12 21 6 6 12 20 10 17 9 17 25 20 23 23 23 8 8 13 9 5 9 7 8 5 6 6 4 1 6 2 3 6 11 11 12 10 10
19 10 7 9 10 13 13 13 21 17 5 4 8 8 13 15 5 16 19 18 10 21 17 5 7 15 11 11 8 8 9 8 3 2 3 2 4 3 4 5 3 10 12 11 9
15 7 3 9 2 8 8 21 21 9 3 7 6 10 15 9 18 6 17 13 22 21 6 7 12 15 12 10 9 10 6 2 0 1 3 2 1 6 6 6 7 9 13 12 10
13 1 11 13 15 13 17 16 6 3 3 7 8 11 14 13 5 10 4 14 22 9 4 2 15 9 9 5 7 6 4 7 4 2 2 7 7 4 8 10 6 6 16 15 11
14 11 14 18 21 26 24 13 3 1 4 7 6 10 10 8 6 8 4 7 6 13 6 4 3 1 5 5 2 5 6 1 1 1 6 1 3 8 9 8 15 13 21 17 13
15 15 16 23 17 17 24 5 3 3 2 4 11 12 4 14 5 8 7 8 3 11 8 6 9 8 5 6 7 6 7 5 6 4 3 1 6 6 5 4 17 29 25 20 14
11 11 15 17 22 14 12 4 2 1 4 9 14 7 4 9 5 7 3 4 5 6 6 7 4 1 1 3 6 5 4 4 2 1 2 3 6 3 7 8 17 23 24 20 14
7 6 8 6 16 15 5 4 3 4 9 6 5 5 8 17 9 7 8 5 7 8 3 5 5 1 2 3 2 4 4 2 2 3 4 4 5 4 2 7 8 10 20 18 15
3 2 1 2 18 7 2 3 6 14 6 4 7 10 16 10 8 6 3 2 1 5 4 6 4 1 3 4 7 2 1 2 3 4 4 1 5 5 8 8 13 11 22 20 18
2 1 6 23 2 1 3 3 5 4 9 4 15 19 7 4 3 3 5 2 1 4 6 2 5 4 3 1 1 3 7 5 4 3 1 3 5 4 1 7 13 20 24 19 15
5 2 6 18 2 2 1 4 2 2 2 9 4 1 4 4 5 2 4 2 5 3 5 5 3 4 3 4 2 4 4 4 4 3 4 5 5 4 6 7 9 12 13 16 16
3 1 5 11 3 6 4 2 3 4 7 5 4 6 3 6 6 4 3 3 3 3 3 2 3 5 7 4 5 5 5 5 5 4 3 5 2 1 2 4 5 9 14 17 17
2 2 2 2 2 3 2 3 3 3 6 4 5 4 5 4 3 3 2 3 4 2 3 3 4 2 3 3 3 4 6 8 7 4 6 1 5 3 6 6 12 15 13 17 21
3 1 2 3 2 4 4 0 3 3 3 4 6 4 7 5 2 5 5 2 2 3 3 3 3 2 2 4 2 3 5 6 5 4 6 2 11 5 7 6 3 4 12 23 23
3 1 1 4 2 3 2 5 4 6 6 8 10 11 12 0 8 12 12 11 5 4 2 3 3 2 2 3 5 5 6 5 4 4 5 4 5 4 5 6 7 3 14 22 23

GFSSW_850_spd_009.txt.gz
Wind_Speed
11 13 15 17 18 18 20 22 23 23 23 21 20 21 19 16 17 19 24 30 31 13 22 23 20 13 8 5 4 3 2 3 4 4 5 9 8 10 15 9 14 5 7 8 6
12 13 13 15 17 18 20 21 22 21 23 22 21 20 20 18 18 24 28 27 28 19 16 21 26 18 7 5 5 5 3 7 6 3 5 14 11 22 9 18 7 7 7 10 9
11 11 11 14 14 15 17 17 19 20 21 21 22 20 18 17 15 26 28 29 32 23 19 20 20 19 10 7 7 6 5 4 7 15 13 7 16 13 6 6 12 11 18 18 13
10 11 10 10 13 15 15 17 18 18 18 18 18 19 18 14 7 2 12 27 30 30 19 19 19 14 7 5 7 3 11 14 8 15 9 7 16 10 17 23 17 17 19 19 17
10 11 12 11 11 13 16 16 17 19 19 19 19 19 17 17 25 5 6 24 30 37 26 24 19 12 7 7 6 3 6 12 19 22 19 18 14 12 21 25 25 16 21 18 18
11 11 12 11 13 15 16 16 19 19 20 19 18 17 21 17 27 27 7 13 33 39 33 26 20 18 8 7 8 6 13 17 17 27 14 8 15 7 10 18 22 24 20 15 16
13 14 13 13 13 15 16 16 18 19 20 18 15 18 22 25 12 28 15 7 31 38 35 32 11 16 6 3 12 5 4 7 12 17 8 3 9 9 30 19 22 24 19 15 15
14 13 15 16 15 15 15 14 14 17 19 19 15 16 14 24 28 12 17 9 23 32 32 32 23 16 6 2 1 3 2 3 4 3 5 11 12 12 23 16 17 10 8 8 10
16 15 15 15 14 16 14 15 15 15 17 17 17 15 10 9 27 27 14 10 17 30 30 21 23 6 4 4 2 1 3 4 8 5 1 4 7 12 9 7 17 5 4 4 3
17 14 15 11 11 8 13 11 12 13 13 12 13 9 14 21 19 25 20 15 12 26 19 18 11 4 3 4 9 5 3 6 6 4 1 3 12 14 12 7 9 5 9 8 7
15 14 16 13 10 11 14 13 7 6 19 9 10 10 6 23 11 19 24 19 12 20 14 12 6 13 12 12 4 4 4 3 5 6 5 9 10 14 11 11 6 13 12 11 10
17 13 12 12 10 11 19 18 15 3 7 19 8 31 5 19 12 20 29 17 13 17 13 6 20 15 7 4 5 3 2 5 8 4 4 3 9 10 4 5 9 15 13 10 12
17 13 8 9 12 12 19 20 17 19 5 12 16 20 16 18 10 24 32 17 10 17 21 12 9 11 13 8 6 5 5 4 6 8 3 5 7 6 2 2 8 9 10 11 12
15 11 6 8 9 16 23 25 18 16 3 7 7 9 17 10 7 26 33 19 6 22 20 8 6 13 10 8 9 9 8 4 6 4 3 3 5 5 4 4 4 9 12 13 12
16 9 3 9 5 8 13 26 19 13 6 10 7 8 10 11 17 17 26 20 18 15 9 7 9 14 9 6 8 8 6 7 5 4 3 2 2 6 3 7 8 9 13 14 13
13 12 8 12 6 5 19 23 20 4 3 7 9 8 8 10 11 16 13 10 17 11 3 3 13 12 14 5 9 2 4 5 3 3 2 8 7 5 5 10 5 6 14 16 15
14 15 15 16 15 13 14 18 5 5 8 8 8 10 14 9 10 10 13 9 12 20 16 2 9 5 7 6 3 5 5 1 2 1 6 1 3 9 5 7 11 13 21 19 15
18 21 19 25 11 22 20 6 6 2 5 3 9 16 8 13 7 12 2 12 8 8 15 7 6 10 5 7 8 7 7 5 6 4 4 4 6 6 5 9 17 29 26 20 17
24 11 17 20 25 24 16 3 3 2 5 8 17 10 9 9 7 7 4 9 10 16 8 5 4 3 2 4 9 5 4 5 2 0 1 4 7 4 5 5 11 24 26 22 18
13 5 6 5 21 21 4 8 2 4 11 14 5 5 12 10 7 7 6 4 7 8 4 7 5 2 2 4 3 6 7 3 2 3 4 4 5 5 2 3 4 10 23 24 19
3 2 4 7 20 9 3 0 3 16 4 5 5 5 11 9 9 9 4 3 3 7 5 6 4 2 5 4 7 2 2 4 4 4 3 2 6 5 4 8 11 10 27 25 18
2 1 8 21 2 2 2 3 9 8 3 4 2 9 7 7 6 3 6 2 9 9 7 3 5 4 2 0 2 2 7 6 4 4 2 3 6 4 6 7 12 18 21 16 13
3 4 12 10 1 2 1 3 2 3 4 4 5 4 3 5 5 3 5 1 6 5 7 6 1 4 3 4 2 4 5 4 4 3 5 5 5 4 7 6 7 8 12 14 15
2 2 5 13 8 3 6 1 1 2 0 5 3 5 4 3 4 4 4 2 3 3 6 6 3 6 9 6 6 5 5 5 6 4 4 6 4 4 7 6 3 7 11 14 17
3 3 3 4 4 3 3 5 1 3 4 5 4 4 4 4 3 5 3 4 3 4 3 3 4 3 2 5 4 5 6 9 7 5 6 3 6 3 1 4 6 10 13 11 17
3 1 1 1 2 4 2 1 3 1 2 2 3 1 2 4 2 5 6 2 3 3 2 2 2 3 1 3 4 1 2 7 4 3 4 3 4 5 3 2 3 3 6 10 18
3 3 1 3 1 3 3 5 5 7 6 1 14 8 5 7 7 13 12 11 6 5 3 2 5 3 2 3 2 4 8 7 4 4 6 5 3 2 3 5 5 4 2 9 15

GFSSW_850_spd_012.txt.gz
Wind_Speed
12 12 14 15 16 18 19 20 20 20 21 20 20 18 20 18 17 18 22 25 27 10 24 21 20 14 9 4 4 3 3 2 4 5 5 5 7 7 16 10 19 5 7 10 14
13 13 14 14 15 16 17 18 19 20 20 21 20 19 18 20 20 25 26 23 24 20 15 17 25 20 7 4 5 4 3 7 6 4 4 10 7 19 8 18 9 10 8 14 18
11 11 10 12 14 14 15 16 16 18 18 19 19 19 17 17 17 26 26 26 25 28 18 15 18 22 10 7 7 6 5 4 5 12 11 6 14 8 5 7 7 18 20 20 21
12 12 11 10 10 11 13 14 15 15 16 17 17 17 18 15 7 3 3 20 24 30 23 15 15 17 8 6 7 3 10 8 6 9 7 5 11 10 13 21 23 19 18 22 23
13 11 12 12 12 10 10 13 14 15 14 14 15 14 16 15 22 8 6 4 24 28 29 19 19 14 7 8 5 4 4 9 15 20 18 17 17 12 26 32 29 26 23 21 23
12 13 13 13 13 13 13 13 14 16 16 15 15 15 16 16 24 30 20 8 17 29 34 27 16 18 11 7 11 7 13 17 17 24 17 8 14 5 19 12 20 24 26 24 20
14 14 14 14 16 15 14 14 15 15 16 16 15 16 19 29 11 14 29 25 10 28 32 31 10 14 9 3 6 9 3 7 8 11 7 6 12 12 35 22 18 19 25 16 14
16 16 15 14 14 16 15 14 13 14 15 17 14 15 14 13 29 14 6 17 13 26 33 31 19 9 5 5 5 5 2 3 4 2 4 6 18 11 22 13 18 15 12 4 3
17 18 17 14 14 13 15 12 12 13 13 14 14 13 8 10 24 27 13 8 8 22 27 22 26 7 6 5 3 1 4 4 7 5 3 5 8 7 4 4 7 10 4 4 6
17 18 17 15 13 11 12 13 10 12 11 11 11 6 18 12 20 18 23 10 8 22 16 19 14 4 4 4 11 6 4 3 6 3 2 6 14 18 17 6 8 7 5 5 7
18 17 17 16 15 11 13 13 8 5 18 12 10 8 11 10 7 12 24 20 7 22 12 20 6 13 15 13 3 6 4 5 4 4 3 7 8 15 15 11 9 7 7 7 11
16 19 16 11 14 13 22 20 18 6 6 25 10 18 23 4 8 14 23 15 8 11 17 8 17 15 7 7 4 3 4 4 7 1 3 8 10 12 8 7 5 10 11 9 12
15 19 13 13 13 16 24 25 18 13 2 8 26 10 11 19 10 21 28 15 5 12 20 5 10 14 11 6 10 3 5 3 6 7 4 6 8 6 3 1 5 9 10 11 12
16 15 11 11 8 12 23 23 17 19 4 6 11 10 14 9 6 19 31 18 6 16 19 7 5 16 13 13 7 8 7 3 3 4 4 5 6 6 5 4 5 11 13 14 15
13 15 12 8 8 13 16 22 14 16 1 8 9 5 18 11 8 16 32 24 8 7 8 5 11 13 17 16 10 4 6 6 3 3 2 1 2 7 2 5 6 8 14 14 14
14 13 12 9 5 9 7 22 16 3 5 8 9 10 9 12 7 19 20 12 8 7 1 3 8 10 7 6 9 5 4 4 3 2 2 6 7 5 4 6 4 6 16 17 17
15 14 13 9 13 9 17 22 2 4 4 8 7 9 11 6 6 11 17 15 6 12 16 1 3 2 8 7 3 4 4 0 1 1 5 1 2 8 5 5 8 13 23 21 19
18 18 18 15 18 19 19 1 6 4 8 7 7 12 7 6 6 11 14 16 12 2 14 8 6 6 4 5 6 6 7 5 6 4 4 3 6 6 2 8 11 24 29 24 21
19 22 16 16 25 22 14 3 4 6 10 10 14 10 6 8 6 9 9 7 10 13 8 12 5 4 5 6 11 5 8 4 4 2 1 3 7 9 4 6 3 20 31 27 23
18 6 5 6 29 29 4 5 6 1 14 14 6 7 9 17 11 12 12 5 6 11 4 6 4 1 3 6 2 7 8 2 2 3 4 4 5 5 6 4 2 7 22 26 21
5 2 5 13 32 19 4 6 6 12 17 5 6 6 7 9 7 8 10 1 11 9 3 6 4 3 5 6 8 3 3 4 4 4 4 1 5 5 6 5 8 7 21 24 20
3 2 10 27 5 3 6 6 8 7 3 3 3 7 9 11 6 6 8 5 18 11 8 3 6 5 4 1 5 5 7 6 4 4 1 3 6 2 6 6 8 13 19 19 17
3 5 16 17 3 3 2 2 3 3 2 4 4 4 13 7 7 3 3 5 10 7 8 7 2 5 3 1 3 4 4 4 5 3 7 6 5 3 7 6 6 14 16 17 16
5 3 5 16 7 3 3 3 3 4 4 2 5 11 7 4 7 7 7 2 6 4 6 8 3 6 9 5 7 5 5 5 6 4 5 6 5 4 5 3 5 10 13 14 15
6 4 6 4 5 6 3 5 4 5 6 3 4 10 6 5 5 5 3 5 3 8 3 4 4 3 3 3 5 7 9 10 9 7 7 5 8 5 3 2 2 1 5 9 13
4 4 4 2 1 7 4 5 4 3 4 1 6 6 7 3 4 8 7 4 5 3 5 2 2 3 2 3 2 3 4 8 5 4 3 5 5 4 3 4 4 3 3 0 6
6 6 3 1 2 3 3 4 4 6 3 4 6 6 7 2 4 13 12 10 8 6 4 6 5 3 3 1 3 4 8 7 5 4 7 7 7 5 3 6 5 6 5 3 4

GFSSW_850_spd_015.txt.gz
Wind_Speed
11 11 12 12 12 13 15 18 19 18 17 17 16 14 14 15 16 18 20 19 17 8 16 20 23 18 11 7 6 6 3 3 4 5 4 3 4 3 8 10 12 7 9 9 15
11 11 12 13 13 13 13 15 17 18 19 19 18 17 15 16 18 25 24 19 18 21 18 14 19 21 9 7 7 5 4 9 5 4 4 6 6 10 5 8 11 13 8 15 17
9 9 9 9 10 11 13 12 13 15 18 18 17 14 14 15 16 24 23 22 20 18 25 11 17 20 13 8 8 6 5 5 4 11 10 6 9 4 4 5 9 16 26 18 20
10 9 10 9 9 9 11 12 12 13 12 15 14 14 15 13 8 8 4 12 23 22 24 20 16 15 9 7 9 4 8 7 4 7 5 4 9 8 13 21 19 25 27 30 25
9 8 9 10 10 11 11 10 11 12 12 12 12 13 15 16 22 10 2 8 12 22 26 24 18 16 10 13 8 4 4 8 14 13 15 14 16 12 22 34 24 22 17 19 20
8 7 9 12 13 13 12 12 11 12 11 13 12 12 17 16 17 25 24 12 6 16 27 30 16 18 14 9 14 9 16 18 14 18 13 8 12 3 29 26 25 19 23 20 22
9 9 12 13 15 14 14 14 13 11 12 13 13 16 20 24 10 9 25 29 25 12 29 34 18 16 11 6 9 8 3 4 6 8 6 6 7 8 27 21 20 17 14 17 10
12 10 14 16 15 14 14 15 13 11 11 13 13 15 13 13 21 24 10 11 21 18 28 33 29 15 9 9 6 8 3 8 3 4 4 4 12 7 12 3 6 8 7 3 1
13 15 16 19 17 14 13 13 12 11 9 11 13 13 8 9 26 25 25 7 9 15 23 30 20 17 9 6 5 3 5 4 5 8 5 6 7 5 6 9 12 9 3 1 2
13 15 16 17 17 15 15 12 10 11 10 8 9 7 16 13 18 13 21 19 9 15 13 18 12 8 7 9 12 9 6 3 5 3 3 4 13 14 19 10 13 6 4 5 5
12 13 17 17 16 15 12 13 7 5 17 14 10 10 6 6 16 10 17 22 14 16 12 24 8 14 20 11 6 7 6 10 3 2 2 5 6 14 13 9 13 8 10 10 9
11 11 16 13 10 14 17 22 19 3 5 27 11 21 11 7 4 10 18 17 9 9 13 9 15 10 11 9 6 6 5 5 4 1 2 6 15 14 6 7 8 12 15 15 14
12 11 13 9 13 17 20 30 17 9 0 7 33 16 11 18 6 7 24 18 8 11 20 16 12 14 12 10 9 4 6 4 3 3 1 5 6 5 2 2 3 10 19 16 17
12 12 11 6 11 14 22 22 22 16 3 5 13 13 14 8 6 19 26 19 7 15 17 13 3 18 17 16 10 11 5 4 2 4 2 4 6 5 6 3 4 11 17 20 20
13 11 10 8 6 11 11 20 18 13 4 10 9 4 13 16 4 15 29 23 10 8 9 5 8 23 20 19 11 4 6 5 3 3 2 1 2 6 2 4 6 10 16 19 20
14 12 10 9 16 6 9 15 17 3 5 9 9 8 11 6 3 20 23 14 6 6 14 3 2 12 7 9 10 8 6 4 3 1 2 5 5 5 3 4 4 7 17 20 22
13 14 14 13 10 14 11 23 3 4 5 7 5 8 11 6 6 10 17 19 5 10 15 9 4 3 6 11 5 4 7 2 2 3 5 2 2 9 3 4 6 14 24 24 24
14 15 17 17 14 14 31 4 7 4 5 5 6 12 7 7 6 11 17 12 10 5 11 8 2 7 6 5 7 4 7 4 5 4 3 3 5 5 2 5 9 16 28 26 26
15 17 19 21 20 24 15 4 4 3 8 11 10 14 6 7 6 10 12 12 11 11 7 12 4 1 4 5 10 3 5 3 4 2 1 2 5 7 1 4 3 14 30 31 28
15 9 10 9 26 30 3 5 4 5 10 15 7 7 9 12 8 11 11 10 13 13 5 4 3 3 4 6 3 6 8 2 1 4 3 3 4 4 5 5 3 5 16 27 26
8 4 4 15 37 15 3 5 5 9 16 12 6 6 7 8 7 11 13 3 11 17 4 5 4 1 5 4 7 3 2 2 4 3 3 0 4 4 5 5 4 9 25 28 26
3 2 3 33 6 4 3 5 8 9 25 12 8 6 7 10 8 6 10 5 23 9 7 6 6 4 4 1 4 6 8 7 4 3 1 2 5 1 6 6 6 15 26 26 23
4 4 11 32 3 5 4 13 13 9 12 4 5 4 9 8 7 5 7 13 22 16 9 6 2 5 4 1 3 4 4 4 4 3 6 5 4 1 3 3 4 16 25 24 20
5 3 6 18 7 3 5 2 5 6 2 3 4 7 7 9 2 6 7 5 18 15 13 7 3 5 8 4 6 5 5 5 8 4 5 6 4 3 1 3 5 11 18 19 20
7 5 8 5 7 10 4 6 9 5 9 4 5 14 10 5 4 5 5 4 4 15 4 3 3 3 1 2 6 6 8 11 10 10 10 7 8 6 5 5 7 9 13 14 17
5 4 6 3 4 7 7 4 11 6 4 5 9 18 5 6 6 10 8 5 8 3 6 2 3 3 1 2 4 5 6 12 11 4 7 5 7 4 5 8 7 7 8 9 11
7 8 3 2 2 4 4 5 6 5 2 3 13 5 4 1 3 14 14 7 8 6 4 5 6 4 3 2 5 4 10 11 7 5 11 11 9 7 4 7 10 11 9 7 4

GFSSW_850_spd_018.txt.gz
Wind_Speed
10 10 10 10 10 10 13 16 16 16 15 16 16 14 14 14 14 15 14 14 10 11 12 19 23 18 11 8 7 6 7 11 13 9 2 2 4 5 8 11 9 8 7 5 13
9 9 9 10 10 11 11 12 14 16 16 17 16 15 15 15 16 21 22 17 14 11 14 8 14 17 16 11 8 12 10 16 9 9 5 4 9 10 8 11 14 11 8 8 10
8 9 8 8 8 8 9 10 10 12 14 16 17 18 17 14 10 17 21 20 18 16 13 12 12 12 23 15 15 11 16 10 10 11 6 7 12 7 12 12 9 13 15 15 15
8 8 7 7 7 7 8 8 9 9 11 13 15 15 14 10 7 4 3 10 21 20 16 16 18 9 14 18 19 13 18 14 10 7 6 10 10 14 17 27 20 21 20 20 16
8 6 5 5 7 8 9 8 8 11 10 11 13 15 14 12 17 7 5 6 2 15 22 22 21 18 19 23 20 18 17 16 16 12 12 12 16 19 25 30 24 23 19 14 14
9 8 5 6 7 8 10 10 10 11 11 12 12 15 13 15 14 19 16 10 1 4 19 23 17 24 15 23 25 15 21 19 15 15 15 13 20 6 27 22 25 17 15 14 14
12 10 9 10 9 9 11 12 12 12 12 13 13 15 14 21 9 10 19 24 24 13 19 23 26 18 18 15 18 27 13 13 17 17 15 9 18 20 24 16 19 13 11 8 9
14 13 11 12 11 13 12 13 13 12 12 13 13 14 12 15 25 18 11 8 17 19 16 21 24 20 19 12 11 19 15 18 19 16 16 10 19 13 8 4 6 4 3 1 2
16 14 13 13 12 14 14 11 12 12 11 12 13 11 11 10 24 25 24 15 5 15 19 10 21 9 21 11 9 14 16 22 19 14 12 12 14 8 7 15 15 13 4 4 3
17 14 13 14 13 12 14 12 16 13 12 9 11 7 17 11 14 18 23 21 14 12 14 15 15 9 15 13 18 16 17 14 18 14 13 17 18 15 17 12 13 8 8 7 6
17 14 13 14 14 12 11 16 9 6 19 14 9 10 3 8 8 11 13 18 18 15 12 27 10 21 25 24 16 19 18 15 14 10 6 14 19 14 19 16 15 11 11 9 8
16 14 12 13 15 10 16 18 19 6 7 27 14 27 3 6 4 17 14 18 19 20 18 16 21 22 20 23 22 19 18 16 12 5 7 14 19 17 18 16 12 12 14 15 13
15 14 13 10 12 15 20 26 18 14 2 7 34 19 11 18 8 10 22 23 15 15 18 22 15 14 23 24 22 16 17 15 12 5 9 10 20 15 7 6 5 7 13 16 18
15 14 13 9 11 17 20 25 25 17 3 5 11 12 20 13 9 24 21 19 10 18 19 17 16 23 22 26 24 20 12 10 7 4 5 3 5 9 9 6 6 11 16 17 18
14 14 12 12 6 7 7 10 24 11 5 10 8 4 10 18 2 17 22 25 14 12 8 12 14 16 20 28 25 11 13 11 7 8 4 9 6 4 3 7 8 13 18 19 18
12 13 13 14 15 14 7 8 19 3 7 8 8 10 11 23 13 4 18 19 8 10 22 14 8 14 23 19 21 12 12 7 4 2 7 11 9 5 3 3 5 14 19 20 20
13 13 16 15 10 13 13 22 3 6 5 6 5 10 15 10 12 8 16 22 6 6 10 10 14 4 20 19 8 16 16 4 5 5 6 4 7 10 3 2 4 15 21 22 21
14 13 17 18 18 9 31 3 8 4 5 4 8 13 12 11 13 12 15 18 10 11 11 7 4 10 17 19 10 16 15 4 6 6 6 4 6 1 5 3 4 13 22 23 22
14 13 17 22 20 19 17 5 4 4 6 10 14 11 11 11 8 13 14 15 8 14 4 9 4 1 3 5 13 5 10 3 2 1 3 5 4 3 3 2 3 13 23 24 24
16 11 20 12 25 25 4 6 5 5 8 11 10 12 15 16 9 14 15 14 10 15 11 9 2 2 2 7 7 5 7 4 2 5 4 4 3 2 3 2 4 12 23 25 23
12 3 4 12 27 13 4 6 4 7 11 11 9 10 14 16 12 12 13 6 20 15 15 6 8 8 7 6 12 6 4 2 4 2 2 3 4 3 5 6 4 10 23 24 23
5 3 7 29 6 4 5 5 6 11 20 12 9 9 15 18 14 8 15 9 26 12 10 8 5 5 5 2 10 10 12 11 4 5 2 3 2 3 5 5 3 9 20 21 22
5 5 8 32 4 6 6 8 9 8 12 10 10 12 13 14 10 10 15 16 24 17 11 11 7 8 6 3 2 6 11 15 11 2 10 8 3 1 2 3 3 11 20 21 21
6 3 5 20 6 2 8 8 11 17 10 12 10 11 15 14 10 12 10 9 26 23 23 1 4 11 10 7 11 12 19 17 18 11 10 11 7 5 4 3 6 12 18 20 20
9 4 7 5 10 12 6 4 8 6 7 12 3 13 17 12 12 12 13 10 16 25 12 4 4 7 4 3 15 19 19 21 22 22 14 15 17 16 10 7 9 13 17 19 19
6 4 4 4 13 14 13 10 15 10 7 7 8 16 17 15 14 14 11 10 9 17 17 10 3 3 2 2 8 11 19 21 24 22 24 18 16 4 6 10 11 13 17 17 18
11 9 2 3 5 5 4 5 9 11 8 7 15 16 15 12 9 14 18 11 9 14 18 12 6 3 3 3 4 7 18 19 20 21 21 20 20 10 8 9 12 12 12 12 13

GFSSW_850_spd_021.txt.gz
Wind_Speed
10 11 11 12 11 10 11 13 15 16 14 17 18 17 15 14 15 14 13 10 7 11 11 8 12 16 15 15 15 11 12 15 19 16 12 5 6 6 7 13 13 11 10 5 7
9 10 11 11 10 10 10 12 14 16 16 16 17 16 15 15 14 18 19 18 14 11 8 9 9 16 23 19 18 15 13 21 16 12 12 7 8 9 11 13 14 13 11 7 7
9 10 10 9 9 9 9 9 12 14 14 15 16 16 15 13 15 25 22 23 22 18 12 11 10 10 25 26 27 21 20 18 21 14 15 14 13 15 11 14 17 9 10 13 13
10 10 9 8 8 9 9 9 9 10 10 12 13 12 13 9 8 1 10 16 21 19 16 14 14 14 11 23 28 23 25 29 23 16 13 14 16 17 18 20 19 19 20 19 16
11 10 9 8 8 9 8 8 8 8 10 9 9 12 11 15 26 6 1 3 1 11 21 20 21 18 20 19 24 24 23 25 27 19 16 18 19 19 26 25 23 20 19 20 17
13 11 10 9 10 11 11 8 9 9 10 10 9 12 13 17 14 20 14 9 4 3 17 22 17 22 17 26 22 13 28 28 22 24 23 18 22 21 25 24 22 22 21 17 15
15 13 11 11 12 13 12 11 10 11 11 11 12 13 16 22 8 11 19 21 18 14 10 20 22 17 18 15 33 23 22 21 28 22 21 18 22 23 27 27 17 16 17 15 11
14 15 13 13 12 14 14 13 12 12 11 11 14 11 15 15 24 16 9 9 14 18 18 11 19 24 22 19 17 26 22 18 19 23 26 18 23 16 14 8 14 12 8 7 7
15 15 15 14 13 14 16 14 13 12 10 10 10 11 13 11 25 25 25 16 11 10 17 16 17 21 14 18 12 15 21 25 20 24 20 20 20 16 24 10 15 14 11 7 5
18 15 14 14 13 14 15 14 12 12 12 9 10 7 19 13 14 16 21 22 21 11 13 23 13 13 11 13 15 20 27 17 24 22 17 21 21 19 22 20 16 14 15 10 8
19 16 14 14 13 15 15 11 8 5 20 13 10 15 3 10 7 8 16 19 20 22 18 27 12 19 27 21 27 22 17 23 21 22 20 19 19 23 21 24 20 15 14 14 11
18 17 14 13 13 14 15 15 15 4 8 30 24 19 19 5 8 16 15 16 23 21 20 19 19 26 28 24 22 22 21 24 17 11 13 16 17 18 19 19 23 19 18 17 14
16 15 14 13 12 17 21 27 20 19 5 7 34 32 22 19 14 12 22 25 20 23 25 23 23 25 28 24 25 23 28 20 17 14 10 14 19 22 19 27 21 16 17 18 18
15 14 14 12 13 15 20 22 25 24 4 5 8 7 21 8 10 31 22 21 16 23 23 15 21 21 27 29 27 26 16 13 16 7 9 11 7 5 11 14 12 14 18 21 20
15 13 15 16 6 8 9 5 16 11 6 9 8 5 9 15 2 13 33 25 20 17 5 11 8 28 28 27 22 14 16 16 13 12 7 12 6 13 8 16 13 13 19 22 21
16 13 15 16 19 13 13 7 9 3 7 6 6 8 8 24 17 2 26 15 17 14 18 21 17 25 23 21 23 14 17 11 7 7 7 15 13 11 12 10 8 15 20 22 23
16 14 18 16 10 17 13 18 3 6 3 5 4 7 15 14 20 8 11 15 7 7 8 11 19 3 11 17 20 18 20 6 4 5 7 5 12 9 10 6 6 15 21 24 24
17 15 19 20 14 10 24 2 9 3 5 3 5 12 13 11 17 14 4 12 20 9 3 8 7 9 6 14 10 21 15 7 7 8 11 7 8 5 8 4 6 17 23 24 24
15 15 23 21 18 20 15 6 5 3 6 7 5 8 13 14 9 15 10 16 16 17 5 9 4 4 18 10 18 17 19 5 1 4 8 8 10 6 5 6 8 17 24 25 25
16 20 27 21 22 26 8 9 6 6 5 6 10 13 14 15 13 14 13 12 19 15 14 3 1 5 4 17 4 11 13 8 4 8 5 7 8 7 10 7 7 14 23 25 25
15 7 7 22 29 16 6 6 7 12 8 9 10 14 14 15 17 13 8 4 20 14 16 1 3 4 4 4 11 6 11 5 3 3 3 6 5 11 4 2 7 12 22 26 25
14 3 12 25 6 4 6 5 5 8 20 12 6 16 14 16 17 13 12 11 20 15 7 7 4 3 4 4 8 10 9 10 7 4 3 5 6 4 4 4 5 12 21 24 24
8 6 16 33 5 7 4 7 9 3 9 10 11 16 13 16 11 11 9 11 17 18 9 10 6 4 4 7 5 11 9 13 11 1 10 7 6 5 7 8 8 13 20 23 23
7 4 8 18 11 4 8 8 8 16 17 16 10 15 12 15 17 12 8 8 14 20 16 7 7 9 4 8 12 10 18 18 16 10 9 11 8 10 7 7 9 14 19 22 23
11 5 7 5 8 13 6 4 8 6 13 20 7 17 17 15 19 11 13 10 13 20 16 4 5 3 2 5 16 15 19 21 21 18 13 12 15 9 10 9 8 14 20 22 23
9 5 6 2 13 15 16 7 11 11 7 15 9 21 18 13 14 13 13 12 8 13 16 9 2 3 4 2 6 11 17 21 21 21 20 18 16 7 1 4 9 15 20 22 22
17 9 3 3 8 8 5 10 12 14 10 8 19 10 17 16 20 7 18 15 2 15 16 9 5 4 3 6 5 8 18 19 19 21 19 20 17 13 6 8 10 13 16 17 18

GFSSW_850_spd_024.txt.gz
Wind_Speed
11 11 11 11 11 10 10 11 12 12 13 16 16 15 14 14 14 15 15 11 9 16 13 11 7 12 16 20 17 17 7 12 16 15 15 3 3 5 1 9 13 13 13 1 3
11 10 11 11 10 8 8 9 11 12 13 16 15 14 15 15 15 18 20 17 20 18 13 8 10 11 20 18 17 13 8 15 13 11 10 14 6 6 5 11 14 12 13 6 3
11 10 10 11 8 7 7 7 9 11 12 14 16 16 14 12 13 25 25 26 22 19 16 10 12 13 15 24 24 21 18 12 19 26 23 7 11 10 12 6 12 15 16 11 10
12 11 10 9 7 6 6 6 6 9 11 12 12 13 11 7 8 1 6 15 19 21 18 13 14 16 10 15 27 20 26 24 24 27 14 5 12 17 19 16 17 18 17 19 18
13 12 11 8 7 8 7 7 7 7 9 11 9 10 9 10 20 5 6 6 4 4 18 18 17 16 14 10 21 23 18 28 25 27 27 13 12 17 21 20 21 22 22 22 19
15 14 12 10 8 8 9 8 9 9 9 10 10 10 12 16 12 11 18 10 4 2 10 17 19 19 21 20 21 11 28 23 26 25 23 16 14 20 23 18 24 22 23 22 20
17 15 14 12 11 10 10 10 10 10 10 10 11 11 14 22 6 6 12 18 15 13 11 13 20 21 11 16 21 25 18 15 24 25 17 20 18 17 25 25 29 26 22 17 17
16 14 14 13 12 11 11 11 11 11 12 12 12 10 13 15 21 18 8 12 17 17 16 17 10 19 20 15 15 9 12 16 19 16 24 17 18 14 23 27 31 25 13 8 6
15 15 13 14 14 13 13 12 11 12 12 11 9 9 13 8 21 22 21 15 9 9 11 16 13 15 15 8 7 9 12 24 15 16 14 19 19 16 27 31 20 12 17 13 10
15 17 15 13 13 13 12 12 12 10 11 8 10 6 16 10 11 13 18 22 19 12 11 13 13 7 9 11 17 13 16 15 19 16 17 18 18 12 24 15 16 19 13 16 13
13 15 15 14 13 14 12 12 6 5 17 15 11 12 2 6 14 10 10 18 19 21 14 16 9 17 22 22 20 15 16 16 17 13 19 20 23 11 17 23 19 24 17 15 20
14 14 15 14 13 13 12 8 9 4 8 29 30 22 25 14 11 16 12 17 21 17 16 15 20 26 15 18 19 20 19 18 17 16 21 21 19 15 10 15 25 24 23 18 23
13 13 14 13 13 14 17 19 19 17 5 8 32 34 31 17 16 16 21 24 14 20 20 20 21 15 19 19 20 23 21 18 15 22 8 9 9 9 12 21 24 24 24 22 27
14 13 11 14 12 15 15 14 17 18 4 5 6 8 23 10 7 26 16 18 11 18 20 18 22 20 20 23 18 22 22 20 25 20 7 9 4 14 24 20 17 18 21 27 29
17 15 14 17 7 7 6 4 4 4 5 7 7 2 7 13 6 7 35 23 17 16 10 6 11 17 22 21 18 20 17 18 25 12 10 8 4 7 11 13 21 9 17 30 31
18 17 17 18 20 12 7 1 8 2 7 5 6 7 6 14 9 7 22 26 8 16 16 16 11 10 20 22 21 17 15 20 22 10 8 10 7 6 9 11 10 10 21 32 31
19 18 21 19 17 19 10 14 2 5 2 4 4 5 12 8 9 13 11 20 8 6 11 8 20 10 9 18 16 23 14 10 4 4 4 16 8 10 4 8 11 12 25 32 31
18 19 22 22 14 13 17 3 8 6 5 4 4 9 8 8 9 15 10 9 19 13 2 7 11 13 17 11 16 24 13 5 6 7 5 8 7 4 6 9 16 25 29 31 31
17 19 26 27 23 18 15 5 5 3 5 6 4 6 7 14 7 15 18 12 9 19 6 4 11 6 13 18 18 9 10 27 2 6 6 4 3 4 9 6 8 20 27 30 31
21 24 27 24 28 25 6 9 7 6 5 3 10 12 8 12 11 7 10 11 15 17 12 1 8 4 5 12 13 12 16 9 3 8 6 5 8 5 9 9 7 13 21 28 30
22 11 10 24 32 18 6 7 7 11 6 7 7 6 13 10 13 8 5 8 16 18 15 5 7 3 4 6 10 13 8 7 3 2 4 5 2 7 8 11 10 10 26 30 31
19 3 16 24 8 3 6 5 5 6 20 12 7 14 13 12 13 14 10 7 15 18 10 9 5 3 4 2 13 6 7 5 0 3 3 3 2 6 8 7 10 14 27 31 29
13 7 22 33 6 6 4 4 8 6 9 8 9 13 12 15 7 16 10 10 15 13 12 9 3 0 1 6 6 6 5 3 5 4 3 3 3 6 8 7 9 18 28 30 30
9 5 8 17 7 8 10 5 6 16 17 8 5 14 14 16 10 2 8 5 18 17 21 11 5 6 3 6 9 8 6 5 5 0 1 2 7 6 7 9 8 20 27 32 32
8 5 8 5 8 9 7 5 7 5 13 17 7 18 14 11 11 11 11 6 11 19 13 4 2 5 8 12 11 10 11 9 10 7 2 2 7 9 10 11 13 20 26 29 29
11 4 9 4 16 15 14 7 11 8 7 6 12 13 15 12 11 10 10 9 7 8 9 9 5 5 7 7 7 8 10 13 14 8 7 8 5 7 4 18 18 23 24 25 28
14 10 2 1 8 7 6 8 8 10 11 17 19 13 14 13 11 8 13 16 5 9 10 5 3 4 4 4 3 3 9 14 13 11 11 11 8 1 6 8 12 22 23 22 24

GFSSW_850_spd_027.txt.gz
Wind_Speed
10 9 10 9 9 8 7 7 7 7 8 12 12 13 12 12 14 14 16 10 6 9 11 10 8 6 10 14 14 14 2 8 9 9 12 12 4 4 4 1 6 9 15 9 4
10 9 9 10 10 7 5 5 6 7 8 10 12 12 12 12 14 21 24 18 13 16 15 10 5 8 9 8 11 9 5 9 4 8 7 17 10 5 2 1 6 12 7 3 5
11 10 9 9 9 7 5 4 4 5 7 8 10 12 11 9 12 21 19 22 22 15 13 11 9 10 6 13 14 6 10 5 8 24 24 15 4 3 1 2 6 9 16 8 7
12 10 10 9 8 6 5 4 5 5 5 5 6 8 8 7 6 3 2 3 9 15 16 15 10 4 3 4 15 10 16 21 20 29 27 6 12 4 9 8 11 17 19 17 17
13 12 11 9 8 6 5 5 5 5 6 5 4 4 5 11 16 8 3 6 5 3 18 17 10 11 5 6 10 14 14 21 27 30 33 27 17 14 10 15 15 20 22 19 21
15 14 12 11 9 7 6 6 6 6 7 5 4 5 8 11 10 16 12 16 5 2 3 7 10 14 14 9 12 13 16 23 29 25 27 21 11 16 15 16 17 22 25 23 23
15 15 14 13 11 9 8 8 8 8 7 6 7 7 13 24 8 11 5 14 10 12 8 6 9 16 6 6 16 14 16 15 21 21 15 19 15 11 25 17 19 30 32 27 28
17 14 13 12 12 10 9 9 10 9 9 7 8 9 12 16 15 19 14 13 14 17 17 14 11 13 18 9 8 5 5 13 8 11 10 8 21 9 24 21 27 31 34 29 17
18 13 12 10 12 11 11 11 10 10 10 9 8 7 11 8 13 22 20 16 8 6 6 17 10 8 6 5 3 5 7 8 10 7 6 10 16 11 23 19 28 30 26 21 19
18 14 13 12 10 12 11 10 9 9 8 8 9 5 12 10 9 3 18 20 14 9 10 11 8 5 1 5 13 10 6 6 7 6 10 14 17 10 19 27 29 26 27 16 22
20 15 13 15 10 14 12 9 4 4 14 11 10 10 4 2 6 7 8 16 17 16 6 9 6 10 11 9 7 9 11 11 9 10 14 20 19 18 18 23 19 25 18 15 24
21 17 13 16 12 15 13 8 7 4 7 25 28 21 22 6 4 12 11 14 15 14 7 7 18 10 9 12 10 14 15 21 15 14 11 14 19 22 18 15 26 26 26 19 27
19 18 14 16 14 16 17 15 12 12 5 6 26 22 30 18 14 16 19 20 9 10 13 16 6 16 13 14 14 17 16 17 16 14 15 9 16 21 13 24 29 32 34 24 35
20 19 17 18 15 18 17 9 9 12 3 4 4 5 10 9 5 20 15 15 9 17 15 15 16 15 13 19 16 17 16 16 17 13 11 4 7 13 15 16 9 22 25 31 37
23 20 21 20 9 20 8 11 7 5 4 6 5 2 2 8 5 5 24 17 10 9 8 6 5 18 20 22 14 16 8 10 14 15 16 18 6 7 7 13 18 19 20 35 41
26 23 22 21 17 14 13 12 10 2 7 5 5 5 4 9 4 1 4 19 5 10 12 9 6 2 15 15 15 14 3 8 9 8 11 16 12 6 8 16 10 10 28 35 41
28 26 26 28 29 20 16 15 3 4 2 5 4 6 9 7 6 6 7 12 8 6 5 6 17 4 5 3 3 13 4 4 5 6 11 8 15 13 5 8 12 15 28 37 43
27 27 27 29 24 27 18 2 6 5 4 4 3 7 6 8 7 9 6 9 18 5 2 5 5 15 13 18 8 10 15 5 7 9 10 14 8 7 21 9 18 33 39 42 43
25 25 33 32 23 28 19 4 7 6 4 6 3 5 6 9 7 8 11 7 8 18 8 5 7 1 9 9 19 10 12 20 5 4 1 7 8 4 3 7 16 25 34 34 41
31 28 28 34 30 34 5 5 4 4 6 5 8 10 6 6 9 9 6 8 15 16 18 3 9 13 11 19 15 12 12 8 6 3 7 5 5 5 6 9 13 18 25 30 38
29 10 16 36 33 18 5 6 5 8 8 6 5 5 8 4 10 6 6 7 14 7 19 8 6 4 6 10 15 12 11 7 4 9 3 5 4 5 10 14 17 17 28 34 40
18 6 27 42 6 4 4 6 6 5 12 10 5 7 6 9 7 9 11 10 15 11 12 11 4 5 8 6 8 13 9 9 8 9 16 4 3 4 9 10 13 18 27 35 39
20 7 28 43 6 5 4 7 9 8 9 8 10 11 10 7 7 14 10 12 21 14 13 8 5 3 3 4 10 8 13 17 23 5 2 4 4 1 6 8 16 22 27 33 37
11 4 9 18 5 8 7 7 6 10 12 13 7 14 7 6 8 7 15 6 23 14 19 17 5 6 2 2 7 6 18 19 15 3 2 2 6 3 4 8 9 23 30 36 39
7 4 7 5 6 6 11 5 6 5 10 9 4 12 10 5 6 8 5 3 14 14 12 6 4 8 13 16 9 8 5 7 5 4 4 5 6 8 8 10 14 26 29 32 36
9 4 8 7 13 12 7 8 9 7 6 6 9 14 17 14 6 6 6 5 7 6 6 7 5 12 7 8 8 7 5 6 4 3 2 3 2 4 5 11 13 27 31 29 31
10 12 10 8 9 8 6 9 11 7 10 16 15 11 11 21 22 19 10 5 6 6 8 6 2 5 2 4 5 3 7 4 2 2 5 3 5 4 6 8 13 24 29 31 36

GFSSW_850_spd_030.txt.gz
Wind_Speed
12 9 8 8 7 6 6 7 8 7 8 8 10 15 16 14 15 16 17 8 7 9 8 6 6 8 7 8 11 3 1 7 9 8 7 9 4 12 4 4 3 2 5 8 7
13 11 8 8 7 7 6 5 6 6 7 8 10 12 9 8 12 21 21 18 13 14 10 9 7 5 2 5 8 7 5 9 6 10 9 4 3 17 4 3 3 2 2 3 9
15 12 10 9 8 6 5 5 4 4 6 7 8 10 10 10 12 17 13 18 22 17 14 8 8 5 3 7 8 6 14 7 8 21 21 9 8 19 5 5 7 5 2 2 8
18 14 11 10 8 6 5 4 3 3 4 6 6 6 8 10 6 3 7 4 6 19 17 14 9 3 3 5 8 7 8 18 11 18 15 4 8 9 12 11 8 7 10 9 11
18 15 12 12 10 7 6 4 3 3 3 4 5 5 8 8 13 9 6 3 6 11 17 15 11 6 4 4 8 5 5 17 20 22 26 28 17 14 22 24 19 16 16 18 20
19 16 15 13 13 9 7 6 5 5 4 4 5 6 9 5 7 19 15 10 5 7 9 14 10 14 7 7 7 8 11 11 17 20 19 15 21 20 23 25 24 18 21 24 22
19 18 15 15 14 12 9 8 7 7 5 5 6 7 11 20 8 11 14 13 9 9 7 6 8 10 5 4 11 9 9 10 9 9 6 16 22 21 19 26 23 20 22 25 24
20 19 17 16 14 14 12 11 8 8 7 5 7 8 10 7 8 19 15 12 14 15 16 12 8 8 8 9 8 4 3 4 2 8 6 8 26 7 15 19 24 24 28 32 29
21 19 19 15 13 14 13 11 9 7 8 7 7 6 10 5 8 7 21 16 8 11 16 19 15 6 3 3 4 3 5 6 5 12 5 13 23 11 25 21 21 24 30 29 30
21 21 19 16 14 13 14 11 9 7 7 7 7 3 10 6 3 1 21 18 10 5 7 10 6 3 2 5 11 11 5 6 6 5 9 16 18 9 20 18 25 30 35 37 31
23 23 19 17 16 15 16 9 6 5 15 11 9 7 3 1 3 3 5 19 15 7 5 3 3 9 10 7 6 8 5 8 2 7 7 12 17 18 20 23 20 29 36 31 24
25 24 21 19 19 17 16 11 9 3 4 18 24 22 19 4 4 9 11 11 9 11 4 4 11 9 9 10 9 10 14 18 8 8 11 10 16 14 18 21 23 30 29 32 20
26 25 23 20 21 19 21 21 10 4 3 7 18 14 19 13 12 11 17 11 5 9 12 16 7 16 12 14 12 14 15 9 8 9 15 15 21 13 15 23 26 33 34 32 30
28 24 24 22 25 21 21 18 11 5 3 4 4 3 6 10 5 24 20 10 7 15 12 11 18 13 13 16 12 16 7 11 10 10 5 2 10 7 7 15 16 31 29 30 33
29 26 27 29 22 25 20 14 10 5 3 5 5 4 6 9 5 4 21 18 11 8 6 6 7 16 21 18 14 11 10 9 9 12 10 17 9 8 14 17 17 19 28 37 40
32 27 29 35 20 13 17 21 15 4 7 7 5 6 5 5 3 4 6 12 3 8 12 8 4 4 16 15 15 3 5 9 3 5 9 19 11 10 12 14 11 17 25 36 37
33 27 34 34 27 27 24 24 3 4 2 6 5 5 4 6 7 8 8 7 5 4 9 4 11 6 4 3 7 16 8 4 7 7 11 9 11 21 7 13 15 13 24 35 41
35 24 40 38 29 35 31 2 5 5 5 3 5 8 8 9 7 7 5 9 16 7 2 5 6 15 14 15 7 12 15 5 6 3 8 6 10 8 16 26 32 21 26 36 42
28 24 40 41 38 36 22 4 7 5 6 10 6 6 7 8 4 9 11 7 13 18 9 6 7 3 9 10 15 4 12 23 6 4 3 6 5 10 12 7 7 14 29 33 38
21 23 34 45 42 39 8 7 5 4 7 6 7 9 7 6 10 9 8 7 7 18 17 3 5 7 8 7 10 16 7 5 6 4 5 5 7 12 14 10 7 15 21 29 32
16 10 31 43 40 28 6 5 4 8 9 6 6 5 6 5 10 6 5 5 13 12 21 8 7 3 7 12 17 7 10 8 6 6 3 3 6 10 16 14 15 14 27 35 38
15 4 40 49 7 5 4 7 6 8 8 2 4 8 5 9 5 8 11 8 14 7 11 13 4 7 17 8 17 23 20 18 7 8 6 4 7 4 8 15 18 18 24 28 36
6 5 44 45 5 6 5 5 5 6 8 7 8 9 11 7 6 9 11 8 13 12 9 9 4 4 4 5 9 15 17 22 14 3 16 6 7 7 7 8 13 21 25 29 35
7 5 11 21 10 7 8 7 7 11 8 9 5 11 10 7 12 4 6 6 20 14 21 15 5 7 8 1 7 10 22 22 18 6 10 11 17 8 6 10 10 18 28 33 39
8 3 8 10 7 9 12 8 13 7 8 11 4 14 8 7 6 10 15 14 4 13 13 9 5 8 14 22 16 18 22 24 26 12 12 23 25 9 8 12 14 25 27 29 32
4 6 7 9 20 11 13 10 10 8 9 5 8 11 16 12 8 5 6 6 5 11 11 7 4 5 7 8 16 14 17 19 16 13 22 15 2 5 4 15 14 24 28 28 32
6 15 14 9 8 8 6 9 11 8 14 13 15 13 14 21 22 27 14 16 8 6 10 5 3 4 6 1 14 8 18 14 18 20 8 2 2 5 4 7 11 22 29 32 36

GFSSW_850_spd_033.txt.gz
Wind_Speed
17 13 12 11 11 10 10 9 9 10 9 9 14 12 11 13 12 16 18 12 11 12 10 7 8 9 8 6 8 5 2 8 11 8 6 1 1 3 8 6 3 3 2 3 5
19 14 12 11 11 10 10 8 6 7 9 8 9 12 12 12 14 21 19 17 14 12 11 8 8 6 4 3 6 6 5 8 4 4 5 6 6 7 5 7 3 3 2 3 11
17 16 15 12 11 10 9 7 5 5 6 6 7 9 13 14 13 17 18 22 25 20 17 12 7 5 4 5 5 4 14 7 4 9 14 4 8 13 5 5 8 6 6 8 9
17 17 16 14 12 10 8 6 5 4 5 4 4 7 9 9 5 3 6 2 8 23 17 13 6 2 2 4 7 5 4 9 9 12 8 4 5 5 10 12 9 11 6 8 9
19 18 16 15 13 12 9 7 6 4 4 3 3 6 7 7 14 10 9 7 5 16 19 14 9 3 4 4 5 5 2 9 15 18 20 21 18 12 20 25 27 23 22 17 15
20 19 18 15 15 14 10 9 8 6 5 4 4 6 7 4 8 18 14 6 4 6 12 14 6 9 6 4 3 5 8 10 9 13 15 11 16 13 11 18 24 26 25 25 24
21 21 20 16 15 15 13 10 9 7 6 5 4 7 9 18 6 9 16 14 8 10 9 11 12 7 1 4 7 6 6 7 7 8 6 6 20 23 22 23 24 25 25 25 23
24 22 21 18 15 16 14 12 11 8 6 6 5 8 8 5 8 15 13 7 13 13 9 7 5 4 5 9 7 3 2 2 4 10 8 10 26 2 19 31 28 29 29 28 28
26 23 23 20 17 15 13 13 10 8 7 7 7 8 9 5 7 9 21 13 10 14 12 9 7 6 3 3 4 3 6 3 6 6 5 11 13 7 24 21 24 25 27 26 27
25 26 24 22 21 15 15 14 10 8 7 8 7 5 9 4 3 2 12 19 10 9 8 8 5 4 4 6 7 4 8 5 5 2 2 14 19 8 21 19 22 28 32 31 30
24 26 25 23 22 18 19 13 5 5 16 10 8 7 2 1 5 3 10 17 13 4 5 3 3 9 13 10 6 6 5 6 3 7 5 8 12 11 13 20 24 26 31 32 31
20 28 27 24 23 22 21 15 7 3 4 24 18 18 9 3 2 7 9 13 8 7 4 3 11 8 9 7 10 7 14 13 8 8 8 10 20 15 16 20 23 24 30 36 38
26 25 29 26 24 26 26 23 8 3 2 7 21 20 17 17 10 9 16 9 4 6 9 13 4 11 7 8 10 11 15 11 10 7 12 9 26 20 16 23 28 32 34 36 40
30 24 31 27 30 32 27 22 16 5 2 5 5 6 9 11 6 24 22 10 5 10 6 10 14 16 11 13 9 19 9 14 13 5 5 1 9 7 7 15 18 25 30 32 39
26 26 27 36 23 34 28 19 14 6 2 3 4 4 6 10 3 5 19 17 11 8 5 6 5 10 18 15 15 8 8 9 11 8 7 17 6 5 9 17 16 9 25 33 37
25 22 28 41 33 33 23 27 19 3 7 6 4 6 6 5 3 3 8 13 2 7 13 14 4 4 7 10 16 2 8 14 10 9 12 10 11 7 10 14 9 9 25 29 35
21 21 30 44 38 32 33 35 3 4 2 6 5 7 7 6 6 7 6 7 6 6 9 3 10 5 4 4 7 11 6 4 7 8 10 8 12 22 8 6 6 9 17 28 36
15 18 33 44 39 34 44 6 4 5 5 4 5 8 5 7 5 6 6 8 13 7 2 5 6 13 13 14 7 17 13 5 5 4 6 7 9 11 15 23 34 33 27 19 28
13 19 26 34 38 44 31 5 8 7 7 11 9 4 7 8 4 7 9 7 6 17 8 6 6 3 7 11 13 6 13 15 6 4 4 5 8 13 14 15 10 14 22 27 30
11 13 21 26 43 49 10 9 4 4 7 8 7 8 6 8 8 9 8 5 9 15 9 3 5 7 7 14 10 8 6 5 6 6 6 7 7 12 9 23 23 10 10 20 28
8 7 9 41 47 32 6 5 4 7 10 5 6 6 7 6 9 6 6 4 10 9 18 5 6 2 3 12 15 7 6 6 4 4 4 3 7 3 12 16 12 8 17 27 34
6 2 22 51 5 2 5 7 6 6 3 2 3 4 8 8 7 8 8 7 13 8 10 10 4 8 20 7 15 20 15 12 6 7 7 2 10 2 8 13 8 9 20 23 27
5 4 42 44 5 5 7 4 3 5 5 4 6 8 9 4 5 10 6 10 12 10 10 10 5 5 4 5 10 10 13 14 16 2 10 9 10 7 11 12 4 17 25 28 31
4 2 11 23 4 13 7 7 6 6 4 6 5 9 7 6 11 4 5 5 14 15 12 15 5 8 11 10 1 6 13 17 19 11 8 15 20 23 20 9 6 11 22 29 36
4 3 6 7 6 12 7 11 12 7 8 13 6 11 7 6 8 11 11 12 10 10 11 9 8 12 18 20 16 4 12 20 23 22 14 10 21 25 19 10 6 12 23 28 31
7 4 8 11 19 11 13 8 14 11 9 5 9 10 14 8 10 3 6 6 7 5 9 5 6 4 17 20 23 10 14 22 21 24 16 13 21 19 19 27 14 19 24 26 29
5 20 4 11 11 9 7 7 12 9 12 14 15 12 12 15 21 24 13 16 9 4 8 4 3 3 6 6 7 6 16 24 19 20 21 13 20 23 18 8 15 22 27 31 34

GFSSW_850_spd_036.txt.gz
Wind_Speed
18 18 19 16 12 11 11 11 11 11 9 9 9 10 14 17 16 15 15 8 7 9 10 7 6 6 5 4 6 5 2 6 6 7 5 1 1 4 4 6 4 4 4 2 5
19 17 19 17 15 11 11 10 9 9 8 8 8 11 11 15 11 18 18 16 15 11 10 6 6 4 3 3 6 5 4 6 5 5 3 4 4 5 5 9 5 5 5 6 9
20 18 17 18 15 13 10 9 7 7 7 6 8 10 13 13 12 17 18 19 16 15 14 11 7 3 2 3 5 4 7 4 4 7 9 5 7 8 3 5 14 5 6 1 10
23 20 19 17 16 13 11 9 6 5 5 5 7 9 10 9 6 4 5 6 11 21 18 15 7 2 2 4 6 3 7 6 6 14 10 3 6 7 10 13 15 10 12 11 7
22 22 19 19 18 14 12 10 7 5 4 5 6 6 6 7 11 9 8 3 3 15 21 12 10 5 4 2 2 3 3 7 7 11 14 16 15 13 18 25 26 26 25 20 18
23 24 22 18 18 15 13 11 8 7 6 5 6 6 6 3 8 14 13 5 7 11 19 13 5 8 3 3 2 3 7 9 10 9 11 8 14 13 21 19 22 20 25 25 23
24 24 23 21 20 17 14 13 9 8 7 6 6 6 9 15 8 8 18 14 5 9 9 11 11 5 3 2 3 6 5 6 8 10 7 8 15 19 29 32 33 37 34 30 27
17 25 25 23 22 18 13 13 11 9 8 6 7 7 8 7 8 15 9 13 14 9 8 6 5 8 4 6 3 3 2 2 5 6 8 12 19 11 15 32 30 38 35 34 32
25 18 25 24 22 18 13 13 13 11 8 6 8 8 9 7 8 8 16 10 10 11 9 5 7 5 3 2 4 5 5 5 5 3 4 10 5 3 7 17 22 27 30 34 34
26 20 23 26 24 21 14 14 12 9 8 7 11 5 10 3 3 2 8 14 8 10 7 7 6 3 3 6 5 5 5 4 5 3 4 9 14 14 25 26 22 26 26 27 31
26 26 19 30 25 24 22 19 6 5 16 10 7 7 1 3 5 1 6 16 12 7 5 4 3 8 12 9 9 3 3 6 4 8 7 11 16 17 18 19 20 24 26 32 33
25 26 26 28 25 29 29 20 15 5 4 26 15 14 6 7 2 5 9 9 7 5 4 0 10 8 7 5 7 8 14 17 12 10 10 13 25 18 17 19 23 24 31 31 35
23 22 23 24 23 34 31 27 17 9 1 5 23 23 16 13 5 8 13 7 3 5 7 8 4 5 9 7 7 8 13 14 14 6 13 12 27 20 21 29 35 37 37 38 36
24 20 20 20 22 38 34 28 17 8 3 4 5 5 14 11 6 22 20 9 3 10 5 8 12 12 6 4 8 16 8 13 12 5 7 4 12 9 4 11 14 26 28 33 36
26 24 22 20 19 39 35 31 18 9 2 3 4 6 11 16 3 5 19 11 6 7 6 6 4 5 13 16 6 5 7 9 8 7 8 12 5 5 4 11 11 9 25 32 38
27 24 19 23 25 39 35 30 22 5 7 6 4 6 7 6 2 4 9 9 2 7 11 13 5 4 6 4 12 1 7 5 6 5 10 11 12 23 10 10 9 11 24 31 31
28 22 19 19 24 36 36 35 5 4 1 7 5 6 8 6 4 5 6 7 5 4 6 3 8 6 5 6 6 9 3 3 5 7 9 7 10 23 5 7 8 10 21 28 31
22 17 18 20 26 42 46 5 4 6 5 7 6 8 6 7 5 4 6 7 12 4 0 3 5 10 9 16 5 13 12 5 5 4 4 5 10 15 12 21 31 31 32 24 16
14 11 17 18 37 41 32 5 7 7 8 11 12 7 7 5 3 6 8 7 9 15 7 5 5 4 7 6 10 5 12 13 8 7 5 5 8 11 11 16 15 14 23 27 28
6 6 12 19 37 49 10 6 4 4 7 8 5 5 6 8 9 9 8 4 6 10 8 4 5 8 1 4 10 12 4 5 6 6 7 6 7 11 14 12 15 20 17 22 17
5 2 5 27 39 24 5 4 4 6 11 5 5 5 4 6 8 5 4 4 7 6 17 4 5 2 5 10 12 7 9 7 4 4 5 3 7 5 7 2 12 14 21 25 27
3 2 12 44 6 3 4 7 5 5 3 3 3 4 5 6 7 8 8 6 12 10 10 9 3 6 11 12 14 15 15 19 5 5 4 3 14 5 7 8 12 12 13 15 21
6 3 18 39 5 5 6 4 4 4 3 3 3 3 3 6 3 8 4 7 15 11 12 10 4 5 7 1 5 7 12 14 16 3 14 6 11 7 9 7 12 8 4 13 20
4 1 7 12 3 7 7 5 5 5 4 4 3 4 3 5 8 3 5 3 12 14 11 15 5 8 11 19 11 7 13 17 16 7 13 18 19 17 15 15 6 4 8 14 20
4 1 3 6 2 7 4 6 5 5 2 8 5 9 8 4 5 7 11 9 6 8 7 7 7 9 21 26 27 24 12 18 19 26 10 17 18 12 9 10 2 6 14 17 21
1 3 4 9 11 11 5 6 13 4 8 6 7 6 9 6 6 4 4 4 5 4 8 6 4 5 19 20 19 19 16 17 22 20 22 19 18 12 13 6 6 10 19 19 22
8 4 1 12 6 6 6 7 7 7 9 7 9 9 10 14 20 23 16 9 8 3 5 3 3 3 11 10 11 5 8 15 14 14 18 15 19 15 15 16 8 9 21 22 25

GFSSW_850_spd_039.txt.gz
Wind_Speed
21 19 17 20 17 14 13 11 10 10 10 8 8 8 9 12 14 17 16 11 9 10 8 5 4 3 3 5 6 5 2 6 7 7 6 1 2 3 3 4 4 3 5 3 4
20 20 17 19 18 15 12 12 11 9 7 7 8 8 7 10 10 22 17 13 11 9 7 5 3 2 4 5 6 4 3 7 6 6 3 2 1 4 3 5 4 7 4 8 9
20 19 20 18 19 16 13 12 11 8 6 6 7 8 10 7 10 11 16 20 20 15 14 9 4 2 3 4 6 4 6 3 3 3 1 3 5 4 3 5 12 10 10 5 5
21 19 20 20 17 17 15 13 10 8 6 6 6 6 8 7 5 6 10 12 20 20 14 8 5 4 3 3 3 2 8 7 9 13 11 7 6 6 9 15 11 8 10 12 11
19 21 20 20 20 12 16 14 11 8 7 6 5 5 5 6 10 6 7 5 7 17 21 13 8 5 4 3 1 3 3 6 8 8 10 12 15 16 21 27 25 21 22 23 23
19 20 22 21 20 17 14 15 11 9 8 7 5 5 6 4 9 12 11 4 4 12 15 15 7 10 3 2 3 2 5 9 10 13 12 12 19 11 20 27 31 32 31 29 28
21 21 21 23 21 21 16 17 12 11 9 8 6 6 8 12 6 7 16 10 5 12 17 15 9 6 7 1 2 3 5 8 11 10 8 7 14 15 29 28 30 30 29 32 33
24 25 19 26 23 22 20 15 11 12 10 8 7 6 7 6 7 13 10 15 9 8 8 8 9 7 3 0 2 3 2 5 3 2 9 13 17 8 14 20 30 34 35 41 41
26 23 24 16 25 22 23 16 13 13 10 8 8 6 7 5 7 9 13 10 12 10 9 9 9 5 4 2 2 2 3 5 6 1 4 11 7 2 2 7 10 15 23 30 35
27 23 23 24 13 25 23 19 16 14 10 9 9 5 8 3 5 5 12 12 8 12 11 8 4 3 3 5 5 5 4 4 5 3 6 14 19 16 22 23 25 21 27 27 27
28 22 21 25 15 22 28 24 12 5 17 12 6 2 2 6 7 5 12 16 12 11 5 5 6 10 11 8 4 2 2 9 9 9 12 13 20 17 21 23 21 26 30 29 36
28 23 21 21 25 13 39 30 28 5 6 31 12 14 4 9 5 7 14 10 8 4 5 3 10 8 5 4 7 8 12 15 10 11 8 13 28 19 18 25 29 30 30 30 38
27 23 20 22 22 22 44 35 24 15 3 6 27 14 15 9 2 12 18 8 4 5 7 5 2 4 9 5 6 7 13 13 13 10 12 16 24 15 13 25 30 32 37 35 37
29 20 21 18 18 25 31 34 24 15 3 4 6 7 19 10 5 18 18 9 3 10 6 6 7 4 4 5 8 13 8 12 13 7 7 2 11 8 10 14 14 18 26 32 39
26 24 23 16 15 12 25 33 26 13 2 3 5 8 12 15 8 5 22 10 6 6 5 4 4 4 9 9 8 6 4 6 7 8 10 13 6 9 1 6 10 11 25 32 34
29 30 28 22 20 23 18 36 25 4 6 7 5 7 9 10 6 6 8 7 3 5 8 7 4 5 6 5 13 2 3 8 8 5 9 13 11 19 11 12 10 10 21 28 27
33 31 25 19 21 20 30 34 4 4 2 8 6 7 9 7 6 6 7 8 5 4 5 4 12 7 6 5 4 8 3 2 3 5 7 6 10 20 3 9 7 12 18 24 22
32 26 20 22 21 17 40 6 3 6 4 6 7 10 5 7 3 6 9 6 9 2 2 4 5 9 11 15 6 10 10 5 7 5 3 3 10 8 6 14 22 29 24 30 29
21 11 15 21 22 33 29 4 6 6 9 11 12 8 3 5 3 5 6 5 8 13 7 5 4 1 3 3 10 6 11 14 8 10 8 8 13 17 21 15 7 16 23 27 32
7 4 10 16 20 33 7 4 3 4 15 10 5 5 10 12 7 8 8 3 5 11 6 1 4 4 1 3 8 6 1 4 7 5 8 6 9 13 4 10 6 10 12 24 30
2 3 6 11 24 15 4 3 3 5 14 5 4 6 5 7 8 5 4 3 5 2 11 4 3 3 5 9 10 9 11 8 4 5 5 7 8 7 12 6 5 8 14 24 20
9 2 7 27 4 2 3 4 4 3 7 5 4 4 5 7 5 6 7 4 8 10 9 8 3 5 12 9 14 15 12 18 9 8 6 10 17 7 7 7 3 11 20 20 13
14 4 19 25 3 3 4 1 2 3 3 3 3 3 2 4 4 5 5 5 13 8 9 8 4 4 9 2 2 8 15 22 12 8 10 3 9 7 10 4 10 14 13 11 4
5 2 7 4 3 7 3 4 4 5 4 4 4 4 5 3 2 2 4 3 15 11 10 13 5 7 10 14 7 12 14 15 17 8 13 16 21 14 13 15 12 16 10 7 8
1 1 2 2 1 9 5 3 7 4 2 4 3 3 5 3 3 5 7 5 7 13 9 7 6 9 20 24 25 26 27 22 20 26 10 16 18 16 11 5 10 17 13 9 11
6 3 1 8 9 12 4 5 7 4 6 3 4 7 5 4 5 3 4 6 4 3 8 6 4 5 18 22 21 21 18 16 16 21 19 21 24 17 9 7 3 11 10 10 14
17 8 4 9 6 4 4 6 10 7 4 8 8 4 7 12 14 18 14 11 4 1 9 4 3 3 7 13 23 4 5 7 4 7 15 14 15 11 8 7 8 13 13 14 18

GFSSW_850_spd_042.txt.gz
Wind_Speed
17 17 17 19 18 20 18 15 13 12 11 9 8 9 8 9 14 17 17 12 14 13 6 5 4 6 7 7 6 6 8 13 20 15 11 6 9 10 6 9 4 6 4 2 3
16 17 17 19 19 18 17 15 13 12 11 10 9 9 10 9 12 19 19 13 11 9 7 6 7 5 6 8 8 11 10 16 8 12 8 5 9 8 5 11 13 9 5 2 6
14 19 20 19 19 19 14 16 14 12 10 9 8 7 8 8 9 11 12 19 15 14 10 8 6 5 7 7 10 11 14 11 6 8 4 9 11 10 11 15 15 11 7 1 1
19 14 17 19 19 20 17 12 13 12 10 8 7 6 7 9 7 8 14 17 19 17 13 11 8 7 6 8 8 8 13 14 9 10 9 11 13 16 19 23 9 8 7 9 8
22 15 16 19 20 19 19 14 11 13 10 8 6 5 6 7 9 5 6 7 9 19 19 16 13 9 10 5 6 11 10 10 12 12 14 15 22 23 23 23 22 23 20 20 18
23 22 18 16 19 21 21 17 10 13 11 8 6 5 6 8 9 11 9 6 6 14 19 16 7 9 4 5 9 1 7 12 12 16 17 18 24 22 24 26 28 30 31 29 27
25 21 20 21 18 22 21 20 14 11 13 8 7 6 7 9 5 9 14 7 8 11 15 14 9 9 8 4 5 7 11 12 14 14 13 12 20 20 30 31 33 29 28 28 31
25 23 23 21 21 18 23 23 18 14 13 8 7 6 6 7 11 9 14 14 8 11 12 13 12 6 4 3 3 4 5 5 2 2 6 10 18 7 10 18 21 27 31 32 31
26 25 24 20 21 17 22 25 20 17 13 10 7 5 5 5 11 11 12 13 13 11 10 11 10 5 6 6 5 7 7 9 9 1 4 12 12 5 4 10 15 19 20 22 25
28 26 24 21 19 19 19 25 25 21 17 9 5 3 9 5 9 14 18 14 13 15 11 8 6 6 8 8 5 6 8 8 10 2 9 16 22 20 25 28 26 24 23 23 24
30 25 23 22 19 17 10 24 24 9 19 10 7 2 6 8 11 11 21 14 14 16 9 12 7 12 13 13 8 1 6 9 10 10 18 19 23 21 25 29 29 30 30 32 33
23 22 26 21 21 20 20 16 35 10 9 22 8 15 6 11 6 10 20 12 15 12 10 6 12 12 7 11 13 14 15 15 13 11 10 18 32 24 26 26 32 32 33 35 35
23 20 24 20 20 23 28 17 31 21 5 9 22 14 12 10 6 15 21 9 12 12 16 8 3 4 14 12 12 15 15 14 16 15 17 20 25 16 5 12 20 27 31 33 35
25 22 20 21 15 10 23 17 28 16 4 9 12 13 14 9 5 13 19 9 6 13 10 9 11 6 9 11 12 13 8 13 13 9 6 3 11 17 16 18 17 23 23 26 27
25 24 24 18 19 19 8 10 26 19 8 13 9 10 17 14 13 11 17 5 9 10 6 5 6 11 14 13 11 6 5 7 9 11 13 14 6 13 6 15 15 15 19 20 20
27 29 22 27 18 21 15 10 13 5 6 7 8 13 15 17 8 9 12 5 6 7 6 8 4 6 10 9 12 3 7 9 8 5 8 15 15 19 12 10 8 7 7 12 14
36 31 30 24 19 13 11 17 3 5 8 9 9 12 16 13 8 10 11 10 7 6 8 8 16 8 10 8 8 11 4 3 4 6 8 1 12 22 2 6 11 12 15 20 20
45 33 21 20 18 11 19 2 4 8 7 6 12 16 6 18 6 8 13 10 13 5 4 5 5 15 12 16 7 16 11 5 6 5 7 4 11 9 4 3 6 8 18 17 17
27 11 5 11 17 24 18 4 3 8 11 14 14 8 5 10 6 7 10 7 10 13 6 5 4 3 7 5 12 7 10 13 16 16 11 10 20 26 26 23 20 22 9 11 17
19 6 3 10 20 27 5 5 1 5 19 17 7 6 8 13 8 10 12 7 9 15 14 2 4 4 3 6 10 13 1 3 5 5 9 11 19 15 8 13 8 7 8 13 18
19 5 6 14 25 8 4 3 3 19 16 3 7 9 9 14 9 10 10 3 9 10 15 7 4 4 4 10 13 9 8 7 5 6 6 10 13 6 9 10 12 6 9 15 16
7 1 6 19 3 1 3 4 8 12 3 4 6 10 15 13 12 8 8 3 9 12 10 12 4 7 15 11 14 15 12 19 8 8 9 12 22 13 15 11 7 7 13 15 12
7 5 11 19 4 2 4 2 4 4 2 3 4 3 5 10 6 7 6 5 15 10 11 10 5 4 4 5 4 8 13 20 18 13 22 15 14 4 10 8 9 9 17 16 10
3 1 5 6 2 6 5 4 5 5 3 7 8 8 9 8 3 6 6 4 12 12 9 14 5 8 9 11 9 9 16 15 16 10 22 22 31 25 13 13 17 23 14 13 8
6 2 3 3 2 5 5 7 10 5 2 4 4 6 5 4 5 4 6 3 4 9 11 9 5 12 18 22 22 23 25 26 19 23 16 29 20 18 14 14 16 18 12 9 7
8 3 6 5 11 12 6 9 14 4 3 3 6 8 5 4 5 6 5 6 5 11 10 7 4 8 13 20 20 21 21 20 17 12 16 22 24 23 19 17 17 11 9 8 7
15 8 1 8 7 9 5 12 10 9 3 3 8 7 7 6 6 5 7 4 4 4 13 5 4 3 8 13 23 5 4 10 8 7 7 9 13 13 11 8 6 10 13 16 11

GFSSW_850_spd_045.txt.gz
Wind_Speed
14 13 17 18 19 22 19 16 17 16 15 14 13 12 10 7 11 18 21 12 13 14 7 6 8 9 9 11 13 14 13 16 22 21 15 8 6 15 12 13 8 11 14 4 3
17 14 13 18 19 20 21 17 15 15 15 14 12 11 11 7 12 21 22 17 17 12 14 10 11 11 14 13 10 14 13 20 16 15 16 12 13 12 9 17 19 14 12 3 2
20 21 17 15 19 18 20 19 16 14 14 14 11 9 10 7 10 15 23 21 16 14 11 11 9 12 14 11 17 15 18 15 11 11 11 13 14 14 13 15 16 19 16 9 5
23 21 22 20 17 17 17 21 17 14 12 13 11 7 8 9 7 5 15 19 22 19 13 12 12 14 10 11 16 15 18 22 10 8 12 12 17 18 22 21 18 16 9 5 9
24 24 22 21 19 18 18 18 19 15 12 12 10 7 7 10 14 8 9 13 16 18 17 15 16 15 12 10 11 13 17 13 15 16 18 17 20 20 21 21 21 22 18 18 18
24 24 23 21 24 19 19 18 23 17 13 12 11 8 7 13 10 12 6 5 9 16 17 15 10 10 7 10 10 3 13 17 17 19 19 18 22 22 22 28 28 28 28 27 26
25 24 26 21 22 27 19 20 21 20 15 13 11 7 11 13 4 6 12 7 7 14 17 17 9 8 6 4 12 14 15 15 20 22 16 13 19 25 35 31 31 30 29 30 32
27 27 27 25 22 20 24 23 24 25 18 15 11 7 9 12 11 9 10 7 7 10 11 12 10 10 8 2 4 9 13 12 6 5 9 12 16 7 12 21 26 28 29 32 31
27 26 29 28 22 20 21 23 28 24 20 17 11 9 8 9 12 13 11 12 10 10 11 12 12 8 7 9 7 10 10 14 10 4 6 13 12 7 5 12 18 19 21 24 28
26 27 29 22 22 20 20 25 25 23 23 18 9 6 11 10 11 12 12 14 14 14 12 8 7 7 10 10 7 9 14 10 10 6 8 15 20 20 23 24 24 23 22 22 25
28 27 24 19 20 21 19 21 11 10 34 13 17 6 10 10 11 12 15 17 14 16 8 11 9 13 16 15 16 3 7 10 10 9 17 19 21 21 23 28 28 29 30 31 33
27 24 22 20 19 17 20 16 8 1 6 18 11 10 11 13 8 14 19 14 18 15 11 6 14 15 9 8 10 12 13 14 14 13 10 18 28 24 26 28 32 34 36 36 35
26 25 22 19 19 18 15 17 22 17 4 22 18 20 13 13 10 20 23 13 15 15 16 9 1 7 13 10 10 12 13 13 15 15 18 22 26 23 16 21 33 39 40 36 34
25 23 24 19 18 8 14 11 22 13 4 11 13 12 15 10 6 18 23 11 7 15 13 12 8 4 9 12 11 11 9 10 11 9 6 4 10 17 17 17 16 18 19 21 24
28 27 20 26 18 16 12 8 16 10 6 18 14 10 23 15 20 16 21 7 9 8 8 6 7 13 11 12 8 5 2 5 7 9 12 14 8 12 8 14 13 11 15 16 17
27 26 29 19 14 16 10 11 4 3 5 7 9 17 19 19 9 19 19 4 3 8 11 8 5 7 9 6 9 3 4 8 8 8 8 15 15 15 6 7 8 8 7 8 10
28 36 35 32 32 13 9 7 2 6 10 10 10 15 19 15 12 13 15 10 9 6 9 12 14 7 10 7 6 8 2 2 4 4 8 2 11 17 13 17 7 7 10 12 11
37 30 19 16 20 19 16 1 7 4 6 7 16 19 11 18 10 15 16 12 14 13 5 9 6 18 11 13 5 14 8 4 5 4 8 7 10 6 10 2 6 9 13 15 17
38 19 9 4 17 23 18 3 3 7 11 14 18 9 10 18 7 11 14 13 14 14 6 6 2 2 8 7 12 6 8 10 11 16 10 9 16 17 19 19 9 14 21 18 13
32 15 3 13 20 24 4 6 3 4 15 20 7 5 8 17 10 13 12 13 9 17 11 0 3 6 6 5 10 12 0 2 2 5 7 10 16 13 12 12 9 9 10 13 12
20 7 6 19 22 7 3 2 4 20 11 3 10 10 10 15 9 14 16 4 16 15 14 6 3 6 5 10 12 10 10 6 6 7 5 10 10 12 10 9 9 11 11 9 14
6 0 8 23 4 2 4 5 7 11 4 3 8 6 16 17 11 11 12 2 12 12 13 9 3 5 11 8 8 14 11 16 6 7 7 10 20 14 18 10 14 17 18 15 15
6 3 5 14 3 2 5 1 6 4 2 3 5 2 12 15 7 5 8 7 12 12 11 10 5 3 3 3 7 9 16 17 17 14 22 14 15 4 12 17 18 15 18 18 17
2 2 3 2 5 6 6 2 5 6 4 8 9 12 14 12 4 10 9 4 9 10 6 10 4 7 4 8 6 5 13 16 14 7 22 23 33 28 25 19 16 21 24 22 18
6 2 1 3 3 6 4 3 12 4 3 3 4 5 10 5 6 5 8 7 6 6 7 5 5 10 16 20 20 19 20 19 18 20 15 30 26 28 22 21 17 20 20 18 9
7 5 9 1 9 8 6 10 7 5 1 2 7 9 4 4 0 5 8 7 5 9 8 4 4 6 12 19 18 16 18 20 19 18 15 16 21 21 18 13 13 17 14 10 16
16 13 5 2 4 7 4 8 11 12 1 4 9 7 4 4 3 3 3 3 4 7 11 5 2 3 5 9 17 6 6 6 9 12 7 9 10 11 10 7 10 13 16 20 25

GFSSW_850_spd_048.txt.gz
Wind_Speed
19 17 17 16 16 17 17 20 19 17 16 14 15 15 12 11 12 12 21 17 18 18 8 6 8 11 11 14 18 16 8 12 16 15 12 19 1 6 7 11 15 5 12 7 9
24 22 19 20 19 17 16 17 20 18 17 15 15 13 11 11 11 17 21 15 15 15 16 10 10 12 15 15 11 7 8 12 11 13 8 15 3 6 5 14 13 13 14 5 6
23 24 22 21 21 19 17 14 18 19 17 16 13 11 9 7 8 15 16 23 22 20 15 13 11 13 15 16 18 12 12 9 17 23 6 12 16 3 7 5 10 18 18 15 9
24 24 25 24 22 23 20 17 14 21 18 15 12 9 7 8 5 4 9 16 21 17 14 14 12 10 11 13 19 15 16 18 24 21 4 7 13 13 13 16 17 22 13 8 14
25 26 25 25 25 23 23 19 17 16 20 16 12 7 7 8 12 8 6 13 20 21 19 15 16 14 13 11 16 13 14 17 15 18 11 12 14 12 20 18 24 25 24 11 11
26 25 27 27 27 23 21 23 18 17 21 17 12 9 12 13 8 5 1 5 11 14 20 18 8 14 5 13 7 6 9 14 20 14 14 13 15 20 14 28 28 26 24 22 19
27 29 28 27 28 27 24 21 20 18 18 20 15 13 12 17 6 6 11 6 7 13 18 17 11 7 5 3 10 10 9 11 14 16 11 10 15 18 33 31 29 28 30 31 29
28 28 30 28 31 27 26 23 24 24 20 24 18 14 10 11 20 10 8 9 6 8 15 17 13 6 4 2 2 5 9 6 9 18 19 19 15 15 20 30 30 32 32 33 31
29 29 29 29 29 25 23 24 22 27 31 23 20 15 8 13 18 15 12 11 10 9 8 11 12 6 5 3 4 7 5 12 5 6 3 9 6 11 15 8 13 21 28 29 33
28 29 28 27 26 23 23 23 28 24 21 23 14 12 13 14 14 17 14 13 13 14 12 9 8 5 6 6 5 4 11 7 7 6 6 9 12 12 23 24 18 19 21 21 24
27 27 27 24 24 21 21 18 7 6 20 11 11 4 19 17 19 18 17 17 14 14 5 13 5 9 12 12 14 11 6 11 5 7 8 10 14 14 17 23 24 26 28 33 33
27 25 26 24 21 18 19 11 10 3 8 31 18 11 20 22 14 19 21 14 16 11 7 3 8 10 8 5 7 9 7 10 9 8 7 10 19 17 21 20 29 30 31 32 32
25 25 26 21 21 18 13 13 15 15 4 18 22 22 22 16 11 24 26 14 12 14 12 6 1 11 11 4 4 6 6 8 10 11 10 12 16 11 10 23 34 35 36 31 30
24 25 23 21 15 8 15 5 8 6 4 7 10 14 15 12 9 23 24 12 8 15 13 7 6 5 6 9 6 6 2 5 6 6 4 11 7 6 9 10 8 16 21 27 32
26 24 21 18 20 13 8 9 11 8 3 16 10 18 20 14 24 16 24 6 11 10 6 5 3 6 5 6 5 2 5 4 5 5 7 4 3 7 4 7 6 8 24 21 18
25 21 25 26 21 16 7 6 0 3 7 5 10 15 15 17 5 21 16 5 1 5 7 5 3 3 5 2 3 6 2 4 4 2 5 10 9 5 3 4 6 10 13 12 12
25 30 37 30 34 20 9 4 2 5 2 7 8 16 18 16 14 17 12 6 5 5 4 5 7 3 4 7 4 3 3 1 2 2 6 3 9 11 15 12 15 8 2 7 6
30 36 18 13 12 21 14 2 6 2 1 4 14 17 14 17 10 12 13 8 10 8 8 7 4 14 10 8 5 9 4 2 4 2 4 7 7 6 12 10 5 7 8 11 12
36 25 14 9 11 27 17 3 2 3 6 8 18 8 11 10 8 10 11 11 11 9 5 7 2 9 12 6 8 5 7 1 4 4 2 5 6 9 14 10 9 4 12 14 21
32 16 9 6 21 29 4 2 1 5 7 16 5 6 9 14 10 9 13 13 9 14 11 5 3 2 7 7 9 7 6 3 1 2 5 5 7 7 4 7 7 6 6 10 11
15 5 5 11 21 6 2 3 4 14 16 3 5 8 10 14 9 10 12 7 16 15 12 4 2 2 5 7 9 7 5 2 1 3 3 4 5 4 5 7 7 9 19 20 10
5 2 8 16 2 2 2 4 3 1 6 1 3 11 13 14 11 7 9 4 19 13 11 6 3 3 8 8 12 11 6 8 3 4 4 2 7 16 9 2 2 7 17 26 15
3 4 9 1 1 1 1 2 1 2 5 2 5 9 15 11 8 6 11 6 9 10 12 7 3 2 3 2 6 4 6 9 10 4 12 6 6 3 14 20 27 27 21 20 17
3 2 4 3 6 4 3 2 3 3 8 4 6 16 15 6 8 9 8 3 6 3 8 13 4 4 2 4 2 3 6 7 6 5 13 19 25 25 22 24 23 28 28 26 20
6 2 3 2 3 4 1 2 6 2 4 7 4 11 12 6 11 10 10 8 3 5 4 4 3 5 10 13 9 10 10 13 15 20 12 23 23 26 23 22 18 14 19 15 28
6 4 6 4 1 1 3 3 6 3 7 3 7 9 2 5 6 10 11 6 5 5 5 3 2 4 5 12 12 12 16 16 19 19 16 19 24 16 25 11 12 12 14 15 17
14 11 5 7 4 3 3 7 5 2 9 9 9 6 9 8 11 12 11 8 8 8 8 6 3 1 3 7 9 8 9 9 4 7 8 9 17 14 16 13 8 11 15 19 21

GFSSW_850_spd_051.txt.gz
Wind_Speed
21 20 20 18 19 19 18 15 16 19 18 17 15 13 11 12 13 14 19 21 27 16 6 8 10 15 12 10 16 13 2 5 8 7 6 22 6 9 5 11 6 4 8 22 16
22 21 21 21 20 19 20 18 15 12 20 18 16 13 11 11 14 20 20 12 14 22 17 12 12 12 13 10 8 7 5 6 4 7 7 9 5 10 3 5 3 7 10 19 15
23 24 24 22 22 21 20 22 18 15 13 18 16 12 9 8 10 21 15 20 21 20 14 16 13 14 15 16 16 4 5 5 11 19 10 5 7 7 4 1 9 9 11 15 16
26 25 25 26 25 23 23 21 23 18 15 17 17 11 8 8 5 2 3 20 24 21 18 20 15 8 8 8 16 7 7 19 20 25 15 3 8 8 3 5 10 8 10 10 22
26 26 26 25 26 26 24 23 20 22 19 15 17 12 10 10 14 3 1 10 23 19 21 22 17 14 7 7 14 6 8 21 21 20 13 7 6 6 16 18 13 16 15 13 11
31 26 27 27 27 27 26 24 22 20 19 19 17 15 15 7 7 11 7 8 18 24 24 20 9 13 5 4 4 2 7 6 9 15 14 10 7 7 4 23 27 25 26 21 16
31 30 28 27 28 27 28 26 23 20 21 23 10 19 17 23 9 12 10 5 6 17 23 23 11 9 6 3 3 1 4 8 8 11 6 10 7 7 23 27 29 32 32 34 28
33 29 28 30 26 28 27 24 22 20 23 22 14 21 10 16 19 12 13 13 13 11 11 15 16 6 4 1 3 4 3 2 4 11 13 12 11 8 20 25 31 38 39 38 36
32 30 28 27 26 25 25 24 23 21 16 29 21 18 8 15 22 23 14 17 16 11 12 11 15 5 6 2 2 1 4 6 7 12 6 12 4 14 25 22 24 32 34 37 42
30 28 26 25 26 26 24 24 23 16 18 20 21 12 10 17 26 24 19 18 17 15 13 10 6 3 3 4 5 5 4 3 5 4 4 6 9 8 20 23 18 22 23 26 35
28 25 25 25 25 20 22 23 7 4 15 15 13 6 7 18 19 24 27 19 20 18 5 7 3 5 9 6 5 4 3 5 4 5 4 8 9 12 15 25 25 25 32 35 35
24 25 23 24 20 21 18 11 10 5 7 19 18 27 18 28 16 27 28 12 13 10 7 3 4 5 6 9 9 9 7 4 6 3 5 10 18 16 19 18 29 32 31 38 40
24 23 23 21 19 15 13 15 13 9 3 8 25 23 27 17 10 28 28 11 11 7 8 6 4 7 5 5 4 2 2 2 4 6 4 9 10 8 8 20 33 35 35 34 41
25 25 23 20 14 11 11 12 9 5 3 3 9 9 15 15 6 25 28 19 5 10 8 3 3 2 5 4 4 1 5 1 3 4 4 4 6 6 8 8 5 18 26 35 38
29 24 19 19 19 18 9 13 10 2 1 12 9 18 23 5 25 19 24 3 8 8 6 6 5 5 3 3 4 3 5 5 4 3 5 3 2 7 6 4 5 3 12 26 24
25 22 24 29 28 22 8 9 2 3 3 2 7 10 11 20 4 24 10 3 6 4 6 4 6 4 5 2 4 6 3 3 3 3 2 7 5 4 2 4 2 4 18 12 13
26 29 31 18 19 9 9 3 3 3 2 5 5 18 14 8 6 11 10 5 5 6 3 3 3 1 2 4 3 4 5 2 1 1 6 2 4 7 10 13 8 9 9 7 7
33 34 11 9 7 14 15 3 3 1 4 0 10 18 9 11 13 9 9 4 3 4 5 5 1 8 5 5 6 5 5 4 5 3 4 4 6 6 7 14 16 8 2 7 8
36 18 13 8 5 18 9 2 2 1 2 4 14 6 5 6 8 6 6 7 5 6 5 4 3 6 7 3 6 3 4 4 1 3 3 5 7 9 8 7 7 10 6 10 16
21 9 14 7 11 19 2 5 1 0 5 5 4 3 5 7 9 5 9 7 4 8 2 2 4 7 5 5 4 5 4 3 2 0 4 5 5 7 4 7 7 8 11 19 22
12 5 10 12 20 3 1 3 4 15 6 3 4 6 8 8 9 6 12 8 11 11 5 1 4 2 3 5 8 5 2 2 3 4 4 2 6 5 4 4 1 4 17 24 26
9 3 8 8 3 1 3 2 6 5 6 6 1 9 9 5 9 4 9 4 21 12 6 2 3 3 7 5 7 4 5 5 4 5 3 2 8 8 13 4 9 23 27 30 26
5 5 6 8 2 2 4 4 5 3 5 1 5 4 13 6 7 4 7 3 21 13 10 5 3 3 3 3 4 5 8 5 3 2 6 2 6 2 7 15 30 20 27 27 27
4 2 4 4 3 3 2 4 5 7 5 1 6 16 7 4 5 5 4 5 7 8 14 7 4 5 5 2 4 4 5 7 9 3 4 10 14 22 18 19 23 31 24 12 13
6 2 3 3 3 4 6 5 6 8 9 9 13 10 8 5 11 6 5 3 7 4 4 3 3 2 5 7 5 7 7 8 9 16 8 21 16 22 21 23 25 29 22 20 20
4 3 6 4 8 2 1 3 3 6 6 4 7 4 10 7 3 5 7 3 3 1 3 2 1 2 5 9 10 10 12 13 17 20 16 23 26 22 22 25 18 12 15 17 18
12 12 3 7 3 1 1 3 4 6 13 11 9 8 11 6 14 12 13 14 10 7 4 4 3 1 4 4 3 5 10 16 7 7 10 11 13 13 15 8 9 14 17 15 17

GFSSW_850_spd_054.txt.gz
Wind_Speed
19 21 22 22 21 21 19 19 19 19 12 12 19 17 15 14 16 17 23 19 23 17 15 12 16 17 15 9 11 7 2 5 6 8 5 6 4 11 11 8 9 4 13 11 21
22 23 23 23 24 24 21 21 21 19 16 11 16 17 16 14 17 25 25 20 18 23 18 15 15 17 12 11 8 6 5 7 5 5 3 7 1 8 8 4 1 8 9 20 24
23 22 23 23 23 23 24 22 22 21 20 19 13 18 13 13 14 25 17 24 21 31 22 14 13 15 10 8 9 6 6 8 10 12 5 5 7 4 4 5 2 3 23 23 24
23 24 25 25 23 23 25 25 23 23 21 23 12 13 14 12 7 1 4 20 27 26 25 21 19 7 8 6 10 3 7 15 6 17 8 4 9 3 8 8 5 2 8 9 23
26 26 27 26 27 28 25 25 25 24 22 20 23 15 16 13 20 4 1 15 28 25 25 26 21 15 6 9 11 4 4 9 13 18 10 11 9 9 13 20 18 16 10 9 10
28 28 27 27 24 26 26 25 25 26 23 20 20 16 20 12 18 19 5 14 28 24 26 25 14 22 8 6 9 2 14 12 10 7 6 5 8 14 6 18 26 25 23 19 14
27 29 27 25 26 25 24 24 25 24 21 18 22 17 23 25 8 10 13 10 20 25 25 27 12 16 8 3 6 5 2 3 6 4 4 5 15 8 20 25 27 32 31 31 28
31 30 27 26 24 24 22 24 23 22 19 19 22 22 12 26 13 18 15 14 10 18 24 25 22 11 4 4 4 5 4 2 3 2 6 9 19 4 20 27 32 33 34 35 35
29 28 27 24 23 22 24 23 23 22 16 17 17 14 5 19 28 24 21 19 15 11 15 15 20 7 1 5 3 3 3 3 6 10 9 9 3 9 30 28 24 28 27 31 33
26 25 23 23 21 23 20 21 22 16 16 14 16 8 10 18 30 29 18 19 19 16 18 10 6 4 3 2 5 6 4 3 6 5 6 7 9 10 14 14 21 27 29 29 28
24 24 23 21 22 21 20 20 7 2 9 11 7 7 5 17 26 28 20 22 15 18 5 8 3 5 8 9 4 6 2 4 4 4 3 7 6 10 16 19 20 26 34 37 38
25 23 23 22 20 17 9 11 9 13 7 16 27 22 16 24 16 24 28 13 11 8 6 3 4 5 4 5 4 3 4 6 7 2 2 6 12 15 15 16 28 34 34 35 37
24 25 26 21 19 12 12 9 17 7 5 7 12 8 6 20 13 28 28 11 12 11 7 6 5 7 5 3 5 4 4 3 4 5 1 7 9 7 6 12 27 32 34 34 40
27 26 21 17 15 7 14 12 10 6 3 4 9 8 12 15 4 28 27 15 5 13 9 3 3 7 5 3 4 4 1 2 4 4 4 5 5 6 7 9 6 9 16 27 32
26 24 20 18 19 19 17 13 8 3 1 10 11 6 14 4 23 16 22 2 5 8 6 6 8 8 4 5 5 3 5 4 3 3 4 2 2 8 5 6 2 1 10 15 18
27 26 28 28 23 16 10 5 4 4 4 1 10 7 12 12 7 24 8 3 7 7 6 3 5 3 4 3 6 6 5 6 4 3 2 4 5 6 3 4 3 5 21 12 2
30 32 19 10 9 4 11 2 2 1 4 2 6 8 15 10 9 11 8 4 5 7 5 2 2 2 3 7 3 6 6 2 4 2 6 3 4 9 9 11 4 9 18 7 8
31 13 10 5 0 9 12 2 1 1 6 6 9 18 5 14 17 10 7 4 3 6 4 5 2 6 3 4 5 4 6 4 5 2 4 2 5 5 5 10 8 8 17 18 21
15 18 19 7 3 14 5 0 2 3 2 2 10 7 6 5 7 7 4 6 4 4 6 5 1 2 4 4 6 4 2 3 4 3 3 4 6 9 4 6 8 13 25 28 31
8 10 19 13 13 13 2 5 3 2 5 4 4 3 6 5 6 5 5 5 3 6 2 5 4 5 3 5 3 5 6 3 3 1 3 4 5 5 2 3 5 10 21 32 37
6 7 15 16 6 4 2 2 5 13 5 2 2 5 8 6 8 5 10 0 5 4 2 2 4 0 3 3 6 3 1 3 4 4 3 2 6 5 4 3 4 6 15 15 24
13 3 5 12 3 2 3 7 7 6 4 3 3 10 4 6 4 3 6 5 12 6 5 2 5 3 3 2 4 4 5 5 4 4 0 1 7 4 3 3 7 21 20 32 27
4 2 2 10 3 3 4 4 3 4 4 2 4 4 4 5 5 4 5 4 19 5 6 3 2 3 2 4 2 3 5 4 4 3 6 4 6 1 6 13 21 20 28 31 26
3 3 5 3 1 3 4 3 3 7 5 3 5 11 7 4 4 4 3 7 11 8 12 6 2 4 5 4 4 4 5 8 6 3 3 7 11 15 16 13 19 29 28 25 26
6 3 4 4 4 8 8 8 11 7 9 14 5 7 6 3 5 4 4 4 8 6 4 4 3 4 5 6 2 4 6 8 13 16 6 3 8 17 18 18 23 26 20 21 20
3 3 6 4 7 8 7 7 13 11 6 6 6 5 10 2 1 5 6 3 2 3 3 2 1 1 4 6 8 7 10 10 13 15 15 21 24 23 25 14 15 15 18 17 20
7 7 3 6 4 2 3 3 6 5 16 11 6 8 12 7 6 10 9 10 8 6 3 4 3 1 4 3 1 5 11 15 7 7 10 13 17 13 9 10 6 12 13 13 18

GFSSW_850_spd_057.txt.gz
Wind_Speed
19 20 20 21 19 18 20 20 17 18 19 18 12 11 18 17 18 21 26 27 19 8 15 22 21 17 14 11 11 8 3 5 6 7 4 2 2 2 6 12 10 6 11 5 20
22 22 22 21 21 21 19 20 19 18 18 19 19 9 11 18 19 28 27 24 20 19 16 21 25 22 14 11 10 6 5 9 5 5 1 3 1 6 5 10 5 4 9 9 26
24 25 26 24 22 23 22 21 22 20 20 19 23 9 13 17 17 30 20 25 23 26 21 20 18 19 11 8 11 6 5 4 5 9 3 2 6 3 3 5 2 2 4 23 30
25 26 26 26 26 25 26 24 23 22 20 21 23 22 17 15 7 0 1 10 26 31 27 21 15 15 6 7 10 3 8 5 8 16 5 2 6 4 8 13 4 5 3 12 23
27 25 27 27 26 25 25 26 25 22 21 22 19 24 15 13 23 5 3 8 27 31 34 29 20 12 7 10 4 4 2 10 16 14 10 8 8 8 11 22 19 18 12 9 11
29 29 30 29 27 26 26 24 24 22 23 22 18 18 20 11 27 20 14 7 28 31 30 32 18 19 10 5 13 3 13 14 10 12 6 6 7 11 4 13 19 23 22 18 14
30 28 28 26 26 27 24 24 23 22 22 20 17 15 21 20 11 13 18 12 29 31 31 31 14 22 7 3 7 5 1 1 6 6 5 3 11 9 20 23 29 32 29 27 25
29 28 25 24 23 23 22 22 23 23 21 18 14 15 14 9 21 11 16 14 19 24 24 29 21 25 6 6 4 7 2 3 3 8 6 8 17 2 10 26 33 34 37 35 34
27 25 23 23 22 21 21 23 22 19 20 15 14 13 7 15 21 21 17 15 14 21 24 19 26 8 8 6 3 1 4 4 5 8 5 9 2 4 17 26 25 29 34 32 33
26 24 24 21 22 21 22 19 20 16 14 11 12 5 20 14 19 27 20 16 11 14 12 15 13 5 5 8 9 6 5 3 5 2 3 7 7 12 24 13 20 29 31 33 37
26 25 24 23 23 20 18 16 6 1 1 8 6 12 5 15 19 28 25 19 14 15 8 9 2 10 13 7 2 6 4 2 2 3 3 5 5 14 16 15 17 29 35 37 37
27 26 26 25 20 18 13 11 7 13 8 14 21 18 24 6 10 22 27 12 8 8 4 3 3 8 12 10 4 2 2 3 5 1 1 5 9 16 13 13 24 30 31 35 38
29 27 24 21 18 15 6 9 11 7 6 6 10 18 13 7 16 25 26 12 5 6 5 4 5 10 10 8 6 3 4 3 3 4 2 7 7 7 3 8 19 25 32 36 38
29 27 24 20 17 9 14 8 10 7 2 4 7 4 8 3 6 27 28 8 3 7 7 3 3 9 8 5 6 4 3 3 3 3 2 5 5 6 5 8 6 14 14 13 20
31 27 26 24 20 19 17 18 8 3 1 7 4 2 8 9 21 16 25 5 6 6 5 3 2 8 4 4 5 3 5 5 3 4 3 2 2 8 3 4 5 4 17 22 19
28 31 28 20 8 7 5 3 0 4 3 4 5 4 6 10 6 17 10 3 16 6 9 3 3 3 2 4 4 8 5 6 4 2 2 3 3 6 2 2 5 7 19 28 29
33 20 14 9 4 4 8 5 3 2 4 4 5 2 9 15 9 9 7 8 4 5 4 4 2 2 4 7 5 5 6 2 4 3 4 3 2 8 9 7 4 5 14 22 26
13 17 8 6 6 6 8 3 0 3 3 2 5 11 5 16 14 7 6 4 4 5 4 4 2 4 1 4 6 1 5 4 4 2 3 1 5 5 5 9 10 11 18 25 27
10 16 18 12 6 11 4 2 2 2 2 4 10 14 9 8 5 4 4 4 4 1 5 4 3 1 3 3 5 4 2 3 5 3 2 3 7 8 2 5 7 15 25 28 29
10 12 14 8 10 5 2 4 3 2 2 6 4 4 8 5 4 4 4 1 4 2 2 4 4 2 2 5 5 4 7 3 3 2 3 4 5 4 3 3 5 10 20 28 32
5 4 6 10 11 3 2 3 4 7 4 6 3 8 7 6 7 3 5 1 2 3 3 4 3 2 4 3 5 3 1 5 4 2 3 1 5 5 4 3 5 10 20 20 28
5 2 5 13 3 1 2 9 8 6 2 4 9 8 5 5 4 3 5 2 8 7 4 1 4 3 2 1 3 3 5 4 4 3 1 1 6 3 6 7 3 14 22 30 30
3 4 5 9 3 3 5 5 4 5 4 2 4 4 4 4 5 3 3 2 13 4 5 3 2 3 2 2 2 3 4 4 5 3 5 5 5 2 5 5 15 15 20 22 24
4 4 6 5 2 2 3 3 3 5 4 2 4 5 4 4 5 4 3 4 12 6 7 6 3 4 5 3 4 3 4 6 5 3 3 7 7 11 13 13 15 21 15 22 21
6 2 4 4 5 10 8 6 12 5 6 11 5 6 5 3 4 3 3 4 5 10 3 4 2 2 3 4 2 5 4 8 11 9 6 3 6 11 12 14 23 12 18 19 19
4 4 6 5 11 6 8 9 13 7 5 6 7 8 9 3 2 6 6 3 2 3 3 2 1 1 3 4 6 5 7 8 9 10 12 19 22 24 28 22 11 11 14 14 20
7 6 4 6 5 3 4 5 5 3 12 12 5 6 12 6 4 10 8 6 6 5 2 3 3 2 4 4 3 5 8 13 7 5 14 12 20 13 9 8 8 9 9 12 14

GFSSW_850_spd_060.txt.gz
Wind_Speed
19 23 23 22 22 21 21 22 21 22 20 21 27 21 15 8 19 22 27 26 20 9 12 24 23 19 11 7 8 5 2 5 7 7 4 2 3 3 3 7 6 6 8 8 10
26 24 24 24 24 24 22 22 22 20 22 21 21 21 18 13 15 32 28 24 21 16 15 19 26 22 11 10 8 5 4 8 6 6 4 2 3 2 2 5 3 4 7 12 13
24 25 25 24 24 27 27 27 26 24 22 22 21 20 20 15 15 31 26 29 23 21 21 18 22 24 13 9 10 5 5 4 5 6 4 4 2 1 0 3 4 2 5 7 21
28 29 28 27 27 27 26 24 25 23 23 21 20 21 17 15 7 4 6 1 24 23 26 21 22 19 8 7 11 4 8 5 10 8 4 3 2 2 7 8 2 1 6 4 18
28 28 29 29 28 27 26 25 24 24 22 21 20 21 18 14 23 10 5 2 12 31 33 28 24 17 11 13 6 6 2 13 18 12 9 6 7 7 12 16 16 14 11 6 6
27 27 28 27 27 25 25 25 25 22 23 20 18 16 16 20 20 30 31 18 12 33 36 35 19 17 13 6 10 7 14 13 6 10 8 5 6 9 6 14 18 17 21 16 14
27 28 27 25 24 22 22 21 21 20 20 19 16 16 20 28 13 8 18 22 14 37 37 38 14 20 10 3 14 6 4 2 10 6 5 2 8 9 25 25 24 25 25 23 21
26 25 25 23 23 22 21 21 21 22 20 19 16 16 15 18 26 18 6 16 15 31 30 36 25 25 7 6 4 9 2 2 3 9 6 8 8 4 2 18 27 33 34 31 31
27 26 24 23 21 22 23 23 23 18 19 16 14 13 10 11 28 22 11 7 14 24 25 25 27 12 8 6 3 6 5 4 4 8 5 8 0 2 3 10 19 24 28 30 32
26 24 26 24 23 23 23 22 19 15 12 10 9 3 17 13 20 24 17 9 8 22 14 17 17 6 10 8 11 8 8 4 9 2 3 4 6 9 21 23 19 22 26 29 33
28 28 27 26 22 20 19 18 6 3 2 7 10 10 10 15 11 18 23 14 9 15 8 14 6 14 20 12 5 7 5 4 3 2 0 5 5 11 17 15 14 23 30 33 35
28 29 26 24 22 19 16 7 7 8 8 16 21 20 21 13 5 13 26 12 9 7 6 4 5 9 12 7 7 8 7 4 1 1 2 5 8 14 14 10 23 26 32 32 34
30 30 27 25 22 21 16 9 7 10 3 6 14 7 10 11 5 19 22 10 4 9 8 6 6 9 5 10 4 2 5 3 2 2 2 6 6 6 2 5 9 15 20 19 23
31 30 28 28 29 18 15 13 11 4 3 3 3 5 11 7 6 27 25 10 3 8 6 4 9 15 16 5 8 2 4 4 4 3 3 3 4 6 4 8 5 7 15 15 20
42 32 22 15 10 8 9 6 6 1 1 1 2 7 5 9 17 16 24 8 6 6 5 1 8 11 13 9 7 4 5 5 4 4 1 2 3 7 2 4 6 9 16 22 25
26 22 15 12 9 9 2 9 4 2 3 2 4 2 1 11 7 16 11 3 9 6 9 3 4 3 2 6 4 10 6 6 4 2 2 2 3 5 1 2 4 4 14 24 28
21 22 10 10 8 5 6 5 3 1 1 3 3 3 2 5 11 10 7 5 3 5 3 5 4 3 5 8 4 3 4 2 4 3 4 2 1 7 6 4 1 2 14 23 28
17 14 8 8 7 7 3 3 3 3 4 1 3 5 3 12 8 4 8 3 5 5 4 4 1 1 1 4 6 2 4 4 4 2 2 3 5 4 3 3 9 7 16 23 26
12 14 12 10 8 5 6 2 2 3 2 3 4 3 7 8 6 6 3 4 3 2 4 4 3 1 2 3 2 3 3 2 6 3 2 3 6 6 3 1 5 15 21 24 25
12 8 10 9 7 15 1 2 3 3 2 4 2 3 5 5 4 4 3 1 5 3 0 2 5 3 2 4 8 3 7 3 3 2 3 4 4 3 2 3 7 9 19 23 26
10 5 10 16 16 3 2 4 3 6 6 3 3 8 7 5 4 3 2 3 3 2 6 4 4 0 3 1 4 2 1 4 4 3 3 1 4 5 7 6 3 6 17 19 26
7 3 14 17 3 2 3 6 4 4 5 3 7 7 4 5 4 3 4 2 3 4 4 2 4 3 1 1 2 3 5 4 4 3 1 1 5 3 6 4 11 12 17 19 22
11 5 9 14 4 4 6 4 2 5 5 4 3 5 3 4 5 3 4 2 8 4 4 4 2 3 1 1 1 3 4 4 5 3 5 4 4 3 3 7 12 10 17 18 23
6 4 7 6 3 3 5 5 4 4 5 6 5 7 6 6 5 3 3 3 5 4 8 6 3 4 5 3 3 3 4 5 5 3 3 5 6 6 6 9 15 21 15 16 17
7 3 6 4 6 8 8 7 8 7 7 14 6 5 4 3 3 3 3 3 5 8 4 3 3 1 4 2 3 4 4 8 6 5 5 3 6 8 9 12 18 20 9 13 13
4 4 7 5 11 6 8 7 8 7 5 5 5 4 4 4 0 6 6 3 3 3 3 3 1 2 3 2 6 4 7 8 9 7 9 9 18 18 23 18 14 4 8 10 10
9 6 5 6 5 2 3 4 6 3 10 8 3 5 11 6 2 11 10 7 6 6 3 3 3 2 3 4 3 4 7 11 6 5 8 7 11 8 9 8 7 6 6 8 9

GFSSW_850_spd_063.txt.gz
Wind_Speed
23 23 23 21 22 21 22 21 21 21 19 19 23 19 24 26 21 20 29 27 18 15 7 19 24 18 14 8 8 7 2 6 10 8 4 7 6 7 6 8 5 6 8 7 4
24 24 25 25 26 23 22 26 24 24 25 24 19 19 18 21 25 29 30 25 21 13 17 14 26 21 11 8 8 5 5 9 4 5 4 9 7 8 5 3 4 6 10 13 11
24 26 27 25 26 26 25 24 25 23 23 22 20 18 18 19 23 31 32 27 23 19 22 18 21 23 12 9 9 6 5 5 4 8 7 7 4 4 5 2 6 3 3 6 12
26 25 26 26 27 26 25 25 23 22 22 20 20 19 16 11 9 2 7 12 23 24 24 21 23 20 11 10 11 3 7 4 5 8 5 5 5 1 7 6 4 6 4 4 10
27 29 26 26 26 24 23 22 22 21 21 20 19 17 13 12 25 8 13 9 3 30 33 29 25 23 16 14 8 6 2 14 10 4 4 3 5 6 12 14 13 12 10 5 2
30 28 27 27 24 22 20 19 19 18 19 19 18 15 15 18 24 28 21 20 11 27 32 34 21 21 13 8 14 8 17 7 10 16 7 5 5 8 7 12 18 19 18 15 12
29 28 25 24 22 22 20 18 18 19 16 17 16 16 17 30 14 32 17 17 11 17 36 37 18 23 12 5 16 5 5 6 15 6 3 6 7 10 22 21 18 13 15 17 16
28 26 25 24 23 22 20 19 20 19 18 17 15 15 15 23 19 27 17 11 16 16 36 38 21 21 7 10 6 7 1 5 5 14 7 6 7 1 5 15 26 27 28 29 27
27 26 25 25 23 23 21 21 19 18 17 16 14 10 10 7 20 34 23 12 13 15 32 29 25 13 6 7 6 8 5 9 3 12 6 14 2 5 6 3 10 15 20 19 23
29 29 25 26 25 23 21 20 16 12 9 7 8 4 13 13 15 23 26 15 9 21 22 19 21 9 7 8 13 13 8 5 12 4 5 6 9 8 17 10 15 18 23 25 25
28 27 27 25 23 22 20 18 4 2 3 6 7 12 7 6 9 18 24 14 8 24 10 17 10 14 18 10 4 8 7 4 3 2 3 4 5 9 16 16 16 22 24 26 28
29 31 30 26 23 20 19 12 8 4 8 14 22 19 18 11 6 18 22 12 8 9 9 3 12 8 9 8 4 12 9 5 1 2 2 2 7 12 11 10 17 20 23 22 23
36 37 31 25 24 20 22 15 7 8 4 6 5 7 7 7 6 16 20 7 6 7 13 5 6 7 10 17 12 4 10 4 4 2 2 3 5 3 1 4 4 6 5 6 8
35 28 25 19 6 11 8 14 14 2 2 3 3 4 9 6 6 17 25 8 3 7 6 7 6 14 5 7 5 7 1 5 6 3 2 3 3 2 2 10 10 14 17 17 18
29 28 18 16 11 7 5 5 3 1 2 1 2 4 5 5 1 11 24 7 5 5 4 2 15 16 12 5 4 2 5 3 3 4 1 1 2 3 0 5 4 7 15 18 18
26 29 18 10 11 10 3 9 6 3 3 2 2 2 2 4 4 16 15 4 10 8 13 5 4 4 2 17 12 10 6 6 4 2 0 1 2 2 2 3 2 2 10 16 19
24 25 17 10 7 7 5 1 2 3 2 4 1 3 1 2 8 10 7 4 4 5 4 3 4 4 6 10 3 3 3 2 2 1 2 1 2 5 2 2 4 2 9 15 17
18 19 15 10 9 5 11 3 6 4 4 1 4 4 5 5 6 13 6 4 5 5 4 3 4 2 2 3 6 2 3 3 4 3 2 1 5 2 3 6 9 3 7 13 17
16 12 12 11 9 17 3 4 2 5 4 3 4 6 3 5 5 5 5 3 2 2 5 4 4 3 5 2 2 2 2 2 6 2 1 2 4 3 2 2 1 4 8 13 15
18 12 8 16 20 11 1 4 2 2 2 1 4 6 6 4 4 4 3 2 2 2 0 2 6 3 1 3 10 2 6 2 2 3 3 2 3 4 5 4 1 3 9 11 14
12 6 19 22 9 5 3 4 2 2 5 2 1 5 6 5 5 2 2 3 2 3 4 4 4 1 1 1 6 2 2 4 3 1 3 1 3 5 9 7 2 5 10 10 16
8 3 16 13 5 2 3 5 5 5 1 3 2 5 3 4 5 3 3 1 1 2 3 1 5 4 2 1 2 2 3 3 3 3 1 1 4 1 5 5 2 10 13 10 14
6 6 9 13 4 4 4 3 2 6 4 2 3 3 4 3 5 3 2 4 3 2 5 4 2 4 1 1 2 2 4 4 4 2 4 3 3 1 2 5 16 10 14 11 12
4 4 7 6 4 3 4 5 6 4 3 5 4 4 4 5 6 4 3 3 3 4 9 6 3 4 4 2 3 2 4 4 4 2 4 5 5 3 4 6 14 20 7 9 12
6 3 5 4 5 7 3 4 5 6 7 16 6 6 4 3 3 3 3 3 6 4 4 3 3 2 1 2 3 4 4 7 5 5 5 2 5 6 7 7 12 15 7 9 10
5 4 7 5 11 6 6 6 7 6 6 6 5 6 4 3 1 5 6 3 3 3 3 3 2 2 3 1 4 3 4 7 8 3 7 1 13 13 20 14 8 1 6 5 7
10 8 5 6 5 3 4 5 5 3 7 7 2 3 8 5 1 6 6 6 6 5 3 3 4 2 2 2 1 4 9 11 5 4 8 7 9 6 5 3 1 3 2 3 5

GFSSW_850_spd_066.txt.gz
Wind_Speed
20 21 22 23 23 26 22 21 19 20 21 20 21 21 20 17 23 26 24 24 22 17 6 12 23 17 13 13 10 12 9 17 23 21 17 9 15 12 8 11 10 8 6 3 3
20 23 24 25 23 22 23 24 22 21 21 21 22 20 17 17 20 31 30 26 28 17 17 12 22 20 14 13 10 13 14 21 14 12 12 12 15 14 10 14 14 12 9 7 7
23 24 24 24 24 23 23 23 21 21 21 21 20 18 16 15 22 25 30 30 25 23 16 17 20 21 15 15 15 15 17 12 6 9 8 13 12 10 12 12 15 16 8 4 9
25 26 25 26 26 24 22 21 20 19 19 18 17 17 15 10 7 5 10 29 33 24 20 19 23 18 12 12 21 11 20 10 7 7 8 9 10 11 13 5 9 8 4 1 5
27 26 27 25 22 20 19 19 17 17 15 15 16 15 12 11 21 12 5 8 18 29 29 27 28 30 19 16 16 16 6 16 11 6 5 7 9 10 14 11 6 6 6 3 3
27 26 25 23 21 19 18 18 16 15 15 14 13 12 10 14 29 22 24 13 6 18 35 32 24 31 19 13 17 11 19 5 18 12 5 7 8 7 11 16 13 11 12 10 9
26 25 24 24 21 20 18 17 16 16 14 13 13 10 13 27 12 7 17 21 10 9 34 33 17 28 12 11 19 6 12 18 15 12 10 11 16 18 17 13 12 12 15 15 13
26 26 26 26 21 19 19 19 18 17 15 12 12 10 14 14 21 26 23 27 12 13 23 30 23 29 12 10 16 16 7 10 15 21 7 12 21 2 10 26 24 22 21 20 20
28 29 27 26 25 24 22 19 17 16 16 13 11 8 10 9 12 19 20 18 12 14 18 22 23 15 15 16 10 15 13 20 8 21 14 17 10 11 8 9 13 12 15 20 23
28 29 28 28 27 22 20 20 16 12 6 4 6 4 11 7 12 11 15 20 10 17 17 21 18 7 9 14 16 21 22 13 16 9 20 15 17 4 8 6 10 12 13 15 18
26 33 34 29 26 26 17 15 4 2 6 6 6 6 3 8 7 10 15 16 11 20 11 24 11 9 17 24 12 12 17 10 14 6 12 16 12 15 17 17 17 19 19 18 17
31 32 30 26 19 15 9 8 5 2 6 8 13 17 16 7 6 8 14 11 11 10 19 11 17 21 15 17 10 12 16 14 3 9 7 6 9 11 14 19 18 18 18 18 15
30 30 28 20 12 8 8 12 9 8 3 5 4 6 11 9 4 12 24 9 17 15 23 13 2 9 12 17 11 14 15 13 6 7 3 2 8 11 5 2 3 1 2 2 3
27 27 23 21 7 16 14 5 6 9 2 1 2 3 4 4 4 10 28 9 5 15 11 5 1 13 15 14 13 8 6 11 11 10 4 3 3 4 5 7 7 8 7 5 5
25 26 19 17 9 12 7 4 2 1 0 3 2 2 2 3 8 6 23 6 14 6 7 4 11 12 2 8 13 4 7 10 6 4 1 5 4 7 8 9 9 8 7 7 6
20 23 18 8 9 8 5 4 3 3 6 4 3 3 1 3 6 11 9 2 11 10 14 5 5 8 3 4 8 10 9 10 6 2 3 5 4 8 8 9 8 5 6 6 7
16 14 15 9 6 5 7 2 2 4 0 5 3 2 2 4 2 4 4 7 4 5 4 4 4 4 8 7 10 6 10 4 3 3 1 1 4 4 8 4 8 6 5 5 6
15 10 9 11 7 10 10 2 10 6 6 2 4 5 3 5 5 3 8 5 9 5 5 3 4 1 4 2 7 14 2 3 5 6 5 3 5 4 2 6 7 2 1 3 5
14 7 9 16 13 14 4 6 4 4 3 1 3 7 4 7 4 7 6 3 2 3 4 4 3 4 2 1 3 5 3 2 5 2 2 4 3 2 7 10 5 2 3 3 5
12 4 17 18 11 5 2 6 3 1 2 2 4 8 7 14 5 3 4 1 1 2 2 5 6 4 7 8 9 1 8 3 1 5 4 5 4 6 12 10 6 4 2 2 3
8 2 17 15 9 7 4 3 2 3 5 4 5 8 11 5 6 4 2 2 3 1 2 5 3 4 3 1 5 4 2 2 1 2 2 4 3 7 17 13 9 5 1 0 2
6 2 13 7 2 1 2 3 2 2 4 4 2 6 4 3 5 4 4 1 1 1 3 1 5 4 2 3 2 1 2 3 3 4 1 1 3 6 15 10 2 5 2 1 0
3 4 11 10 3 4 2 1 2 6 5 4 4 4 3 3 4 4 3 3 1 1 3 5 4 5 2 2 2 5 4 3 4 2 4 2 4 3 7 7 8 7 4 1 1
3 2 6 8 4 3 5 4 3 2 5 4 3 2 3 5 6 4 5 3 4 5 6 3 3 0 3 3 4 4 8 8 3 3 4 4 2 8 8 5 7 4 2 2 1
5 3 3 4 5 7 7 5 4 5 6 11 4 7 2 2 3 4 3 4 3 3 2 1 3 2 3 2 2 3 5 10 6 3 4 2 4 6 3 7 6 5 1 1 1
4 3 5 4 8 5 9 8 8 4 6 4 5 7 4 3 3 5 5 3 3 1 2 2 3 2 2 2 5 5 7 10 12 11 11 8 14 10 9 4 4 1 1 2 1
7 5 2 4 4 2 3 4 6 6 4 6 2 4 8 4 1 3 1 4 4 4 2 1 4 1 0 2 3 5 9 12 8 8 11 9 7 3 7 5 5 4 4 3 1

GFSSW_850_spd_069.txt.gz
Wind_Speed
21 20 21 22 23 24 22 21 21 21 20 19 19 20 19 19 19 17 24 21 24 18 2 7 19 16 14 17 20 17 15 19 26 25 21 14 14 18 17 23 13 13 13 6 8
24 23 23 22 24 24 25 22 21 22 23 22 22 22 19 18 18 25 23 25 25 21 14 12 22 21 13 19 14 14 16 25 19 21 15 14 12 17 12 17 16 16 8 4 7
26 24 26 24 25 25 22 22 20 21 20 21 20 20 20 15 20 28 25 35 31 25 18 17 17 24 19 17 21 15 18 19 20 4 4 12 13 19 17 15 21 20 17 8 10
26 26 26 25 23 22 21 19 17 17 17 16 16 16 16 9 8 2 7 16 32 23 25 20 22 27 19 15 24 14 26 22 11 4 3 11 16 20 16 14 16 10 7 8 9
29 26 26 25 24 22 20 18 17 17 16 14 13 12 11 14 25 14 14 4 12 31 27 27 27 29 22 21 17 20 14 21 11 6 11 12 17 17 19 7 5 7 4 7 7
28 26 25 25 25 23 21 19 18 16 14 14 12 10 11 20 15 17 19 18 3 15 30 29 29 30 22 17 21 13 21 9 20 12 8 8 13 13 17 15 13 12 11 9 7
29 28 28 27 28 23 19 19 18 17 15 13 11 10 16 23 7 0 6 18 17 7 8 32 24 27 21 18 24 14 13 15 12 19 7 11 14 20 20 14 20 19 18 15 13
29 27 27 27 26 24 22 21 19 17 15 13 12 10 14 9 15 21 19 21 25 19 11 22 29 18 25 11 16 17 12 13 20 12 15 11 21 18 24 21 21 19 18 17 17
32 26 28 31 30 27 23 19 16 16 14 13 10 10 13 7 10 9 15 15 17 15 9 18 32 12 28 15 14 14 11 21 16 27 11 17 13 13 8 17 26 27 24 22 21
27 29 32 30 27 23 21 19 15 13 5 4 10 7 14 6 4 10 10 15 16 17 17 24 20 7 16 11 11 20 23 20 20 12 24 19 17 6 6 10 12 15 17 18 20
27 29 30 26 25 20 13 10 5 4 11 9 6 12 2 3 9 7 10 16 18 20 11 19 15 18 28 28 20 17 17 21 15 8 13 23 18 17 13 13 14 16 17 17 17
28 27 27 22 20 15 5 2 1 3 4 10 13 16 16 9 9 10 13 13 11 11 15 13 19 11 14 22 21 13 19 21 8 8 8 13 20 17 13 18 20 19 20 19 18
30 26 21 18 13 13 11 3 10 4 4 4 6 8 11 12 12 9 20 16 16 10 22 19 6 17 11 16 17 21 14 16 11 12 9 6 13 14 15 18 16 11 15 15 12
29 24 19 14 6 11 8 5 1 3 2 3 2 1 4 4 6 12 15 12 10 13 18 15 5 18 14 10 16 15 15 12 12 14 6 13 3 16 15 11 10 10 8 6 5
31 24 15 11 8 7 7 3 2 1 1 7 3 3 3 2 4 5 13 9 2 3 2 3 12 13 17 7 14 4 4 11 13 15 6 12 5 10 10 11 11 10 8 6 5
29 21 12 9 6 7 7 4 3 3 8 4 2 2 3 1 4 6 5 5 9 6 12 7 11 4 2 4 9 7 12 8 2 3 5 11 10 10 11 12 12 10 9 7 6
25 15 8 8 6 8 13 4 3 6 2 8 5 4 3 3 3 3 7 7 5 4 8 5 4 4 7 6 8 10 10 5 4 4 3 6 6 4 8 12 11 11 10 6 5
16 8 8 10 10 9 12 3 10 7 3 5 4 5 5 3 3 5 12 14 17 10 6 4 4 1 1 1 4 9 2 2 5 9 9 5 7 4 11 10 11 8 6 5 4
9 5 5 11 8 7 5 5 3 2 6 8 8 4 3 7 3 7 7 5 5 5 3 5 3 2 4 2 4 4 3 1 2 3 4 8 4 6 9 11 11 9 7 5 3
9 5 7 17 6 3 2 5 2 2 2 4 3 3 4 8 7 5 6 4 4 6 3 5 5 2 3 4 3 1 6 2 2 5 5 6 6 5 15 15 11 9 9 6 3
10 5 13 14 8 3 4 3 3 4 4 4 9 6 6 7 8 7 5 4 4 4 4 7 4 3 4 4 4 2 3 2 3 3 3 5 3 9 18 15 12 8 5 4 2
8 3 14 7 3 4 4 3 2 4 2 4 5 5 5 5 9 5 5 6 4 3 4 3 5 4 2 2 4 4 4 6 3 3 1 3 4 9 16 15 12 6 4 5 3
7 3 9 7 3 4 4 3 3 6 5 4 4 5 3 3 3 5 4 4 3 1 2 5 4 5 2 2 3 5 7 4 1 2 3 2 5 7 15 11 3 2 3 6 5
4 3 4 7 5 4 4 4 2 3 7 4 3 1 2 5 5 4 5 2 4 4 6 3 2 2 1 4 5 3 8 7 3 2 2 3 8 11 12 10 6 2 4 5 5
6 3 4 4 4 8 4 6 4 4 5 5 2 4 3 1 3 4 2 4 3 1 1 2 2 3 3 3 0 3 5 10 5 5 2 5 2 11 12 9 5 3 5 6 5
5 5 7 7 8 6 8 6 7 6 6 3 4 5 3 2 4 4 4 4 3 3 2 0 2 2 1 1 3 5 6 8 12 14 12 8 7 4 8 5 4 3 5 6 7
9 6 3 6 5 2 3 5 6 6 3 5 4 2 4 5 3 4 2 3 2 3 4 2 4 2 0 2 4 7 12 12 9 8 13 10 11 6 4 2 4 5 7 7 9

GFSSW_850_spd_072.txt.gz
Wind_Speed
25 23 22 22 22 23 24 23 23 20 21 22 21 21 19 19 20 20 21 22 20 20 2 5 17 17 12 12 18 20 7 12 20 21 13 19 10 22 18 15 17 13 2 14 12
26 24 23 23 24 24 23 22 20 20 20 20 21 21 21 23 20 24 23 22 23 19 22 13 19 19 13 13 12 11 11 19 17 13 15 16 10 14 6 8 17 8 13 12 7
25 26 24 23 23 22 21 19 18 17 17 16 16 18 17 16 18 26 20 29 28 26 22 18 16 24 19 14 19 13 14 14 19 18 10 9 10 10 8 6 14 13 14 12 8
26 25 25 24 23 22 21 20 18 16 16 15 16 14 14 12 8 9 10 3 27 26 24 21 21 27 15 12 20 12 24 24 17 0 4 1 1 3 9 9 13 18 18 19 15
27 27 26 25 25 26 25 20 18 16 15 14 14 11 9 10 21 14 18 9 11 26 25 24 24 22 19 17 17 17 13 20 25 7 5 4 3 3 8 15 4 4 10 10 9
25 27 26 25 24 24 24 21 17 15 14 14 12 11 11 16 12 12 11 14 8 12 30 25 17 27 17 21 20 7 20 18 18 11 5 1 1 4 16 20 10 5 3 6 7
28 29 25 23 27 28 26 22 19 16 14 13 11 10 12 17 6 4 7 9 14 9 10 30 27 23 24 15 22 11 5 11 5 10 3 3 3 14 20 14 10 13 10 10 11
28 27 26 29 28 26 25 23 19 16 14 11 9 8 9 7 12 20 19 18 17 17 7 14 25 21 24 9 12 10 4 8 12 8 8 9 7 11 19 22 19 16 16 19 18
28 26 27 29 27 24 22 19 16 14 12 7 6 6 8 4 11 12 10 12 14 18 14 11 13 12 15 13 9 7 8 9 7 16 5 8 7 9 20 23 21 20 20 18 16
22 27 28 26 25 24 22 16 12 12 5 4 6 2 11 5 3 4 6 8 6 11 9 7 7 6 8 12 14 16 16 17 15 16 15 12 10 5 13 8 17 19 24 26 23
23 27 27 24 23 24 16 7 3 3 10 7 6 9 1 6 6 6 5 9 10 7 6 14 6 14 26 22 5 10 11 14 15 12 21 19 14 16 12 8 10 16 12 15 17
23 25 24 21 17 17 17 5 8 4 3 9 11 12 16 11 7 8 7 7 4 6 4 7 10 10 11 14 15 15 8 14 12 12 9 12 19 16 15 14 17 17 16 15 14
26 23 21 16 13 13 16 11 5 3 2 3 8 7 10 10 14 14 6 9 3 3 10 12 9 15 12 14 15 12 10 12 9 7 3 2 7 16 15 18 20 21 19 18 12
27 22 16 13 8 14 9 8 5 2 2 2 1 3 4 5 6 10 8 7 3 11 14 7 14 19 13 13 11 13 11 16 10 11 5 8 4 13 15 9 9 12 8 10 11
26 22 11 11 6 9 10 8 6 2 2 3 3 1 2 2 4 4 9 7 10 11 7 7 17 19 12 6 7 4 11 10 7 8 7 7 1 5 13 11 8 10 14 9 8
22 14 9 11 3 10 9 9 6 3 5 3 2 1 3 5 2 2 6 4 15 7 16 8 13 4 3 13 8 6 5 5 7 3 2 9 7 4 6 11 8 11 14 12 10
14 11 9 10 4 7 8 5 1 5 8 9 3 3 3 3 3 4 6 6 1 5 6 6 4 3 5 8 8 3 10 3 3 1 4 11 8 8 9 11 9 11 17 13 11
7 13 15 14 10 6 6 1 7 4 4 3 4 5 4 5 5 3 2 2 10 10 5 4 7 1 1 2 5 7 1 1 4 4 4 5 5 4 7 16 20 19 18 13 12
7 10 10 16 11 9 2 6 3 2 4 8 10 4 4 0 3 1 4 3 3 3 4 5 4 3 0 1 5 5 5 4 4 5 4 5 3 4 2 8 13 15 13 13 11
7 5 8 17 13 9 2 4 2 3 2 3 2 4 4 3 11 10 4 6 3 3 2 4 6 2 4 2 2 3 5 4 2 2 3 5 7 4 11 11 10 9 15 14 10
10 5 14 13 9 8 3 3 0 6 5 3 6 3 7 7 10 9 6 5 5 2 4 6 2 4 6 4 5 3 2 3 1 1 1 3 2 5 16 12 10 10 16 15 10
8 3 15 8 4 2 4 4 2 3 5 7 6 7 7 8 9 5 7 5 7 5 3 5 4 3 3 3 1 2 5 5 3 2 1 1 3 7 9 9 12 13 11 11 10
7 4 9 7 3 4 7 7 3 7 5 6 4 4 4 4 3 5 5 5 5 5 3 3 3 4 3 2 2 3 3 2 5 2 2 1 2 7 10 9 10 10 12 12 9
6 4 5 7 5 1 3 6 4 1 4 5 3 6 3 6 7 4 4 3 5 4 6 5 4 3 3 3 4 2 4 5 4 2 2 4 5 7 12 9 8 15 12 13 10
7 4 5 4 4 6 3 8 10 7 10 5 1 5 4 2 2 4 3 4 2 1 1 4 3 3 4 4 3 4 3 7 4 5 3 5 2 8 10 8 11 12 13 13 12
5 5 8 7 9 7 7 5 8 10 7 5 6 6 8 6 5 1 2 2 2 0 2 2 2 3 2 0 2 3 5 6 7 7 7 5 5 4 14 12 7 8 13 11 11
10 7 1 8 6 5 2 4 6 10 2 6 8 9 6 5 7 7 5 6 5 2 2 2 3 1 1 1 4 5 10 9 6 6 9 7 6 1 4 5 7 6 10 11 13

GFSSW_850_spd_075.txt.gz
Wind_Speed
21 21 20 20 19 19 18 18 18 17 17 16 16 18 20 21 20 19 22 22 21 13 5 7 8 17 15 14 17 15 2 8 14 16 19 27 13 26 13 15 4 8 20 23 24
22 21 21 21 19 19 18 17 17 15 14 14 15 14 15 18 20 28 29 23 21 22 19 14 12 16 9 8 14 7 5 16 11 10 6 15 1 11 16 7 5 22 18 19 21
21 22 22 23 21 19 18 17 16 15 14 14 13 12 11 13 15 19 9 18 25 23 24 22 13 20 14 7 11 8 13 19 11 15 13 5 8 23 26 10 6 25 22 18 17
22 21 22 24 22 21 20 20 17 15 13 12 11 10 9 7 7 15 6 8 13 28 24 24 24 21 8 9 13 6 19 7 7 9 6 6 14 22 29 9 1 7 19 20 15
23 23 23 23 21 21 20 18 18 14 13 11 10 8 6 8 20 12 5 15 4 29 29 26 27 18 9 10 6 8 3 19 25 8 14 16 6 6 15 3 4 9 23 19 15
23 24 25 22 23 26 25 22 19 14 12 11 9 8 8 10 9 3 5 10 5 15 26 28 17 25 17 11 17 4 15 17 7 16 20 7 4 1 13 3 4 8 13 12 11
23 24 22 24 27 27 25 20 17 14 13 10 8 7 7 15 7 9 3 3 11 5 13 16 25 15 12 11 18 15 4 8 5 15 7 5 3 7 14 7 3 1 8 7 8
24 21 25 26 28 25 24 19 15 11 10 8 6 6 7 4 3 12 10 12 8 9 7 10 5 13 6 10 12 10 4 2 6 7 7 9 5 7 12 12 15 8 7 11 10
24 23 24 25 26 24 23 16 10 6 4 3 1 4 6 2 3 4 5 9 10 5 8 3 4 7 11 6 1 6 6 8 3 9 5 6 1 4 13 21 20 19 13 10 11
26 22 25 23 23 19 21 13 7 1 2 5 4 1 3 1 3 4 1 8 5 1 3 3 6 6 4 10 16 18 13 6 7 13 7 6 6 5 10 21 24 20 17 18 19
26 24 21 20 16 19 20 4 6 7 10 2 1 1 8 3 4 3 4 6 4 7 4 7 8 13 27 15 5 5 9 6 10 8 6 8 7 12 14 12 20 22 23 19 26
25 24 19 14 11 17 14 7 9 4 4 8 8 10 9 7 3 5 6 4 2 2 2 3 14 7 7 9 5 7 10 10 4 9 12 9 14 10 14 9 16 17 17 17 7
27 23 16 10 8 14 16 13 6 6 1 5 5 5 4 6 6 10 2 9 2 7 8 5 3 11 11 13 11 4 5 3 1 3 3 6 7 8 11 18 22 21 22 18 11
25 21 12 7 3 8 11 9 7 2 4 1 1 2 3 4 2 8 6 6 2 6 5 7 8 17 10 13 11 7 6 6 3 7 5 4 4 9 14 18 12 25 28 21 18
19 15 9 7 3 7 6 5 6 3 3 3 1 2 2 3 0 3 9 8 6 8 6 6 17 17 9 9 6 4 4 3 6 9 3 4 1 7 8 17 20 15 22 12 12
13 13 10 8 5 6 6 4 2 3 6 2 3 1 0 2 3 5 3 3 4 1 7 6 11 4 2 5 7 5 6 8 3 2 3 7 6 5 6 20 6 12 16 18 14
8 12 14 13 9 7 5 2 3 6 4 8 3 1 3 3 3 7 5 4 5 6 5 11 2 3 8 8 5 6 4 2 3 4 5 8 5 10 6 5 9 10 21 17 14
4 12 19 16 13 7 4 3 10 4 3 3 5 5 2 2 2 4 3 4 12 10 4 4 6 4 2 3 4 4 4 2 4 4 4 4 6 5 7 13 23 27 24 19 17
4 7 17 15 12 9 5 6 2 1 4 6 9 1 3 2 2 4 3 1 3 2 5 5 4 3 6 2 3 6 4 6 2 0 3 4 2 6 7 7 17 23 25 20 20
5 4 16 13 10 7 4 3 3 3 2 3 5 1 4 2 2 3 2 3 2 3 6 4 7 3 4 3 3 1 6 3 2 1 4 4 3 5 6 7 10 12 20 22 19
8 3 19 13 7 5 3 1 4 7 10 5 4 5 6 3 3 2 5 4 4 1 4 7 5 5 5 5 8 4 3 2 2 3 3 2 5 5 14 12 11 10 21 22 17
5 3 16 13 7 4 3 7 3 7 4 5 4 4 4 7 7 4 3 2 10 5 3 3 5 4 2 5 10 5 5 4 4 5 3 2 4 3 8 8 15 17 20 20 19
4 4 8 9 4 5 6 5 3 2 4 3 4 4 4 5 4 3 3 6 9 3 2 3 3 4 3 2 3 4 8 5 2 2 3 4 4 2 8 8 16 19 22 20 17
4 4 6 5 4 1 3 5 9 4 3 5 4 7 4 5 6 2 2 2 5 2 3 2 3 5 6 4 5 4 5 5 4 3 3 4 4 6 10 9 10 15 17 17 15
5 2 3 4 5 8 4 4 7 7 6 9 1 7 4 2 2 2 2 2 1 3 3 4 3 2 2 4 4 5 4 7 4 4 5 1 3 11 12 10 16 19 20 20 17
4 3 4 5 14 5 5 4 6 6 3 6 3 8 6 3 2 3 1 2 1 1 1 3 2 3 2 3 3 3 6 7 5 4 4 4 4 7 17 21 12 20 22 22 19
5 2 2 5 4 2 1 2 6 9 7 2 3 4 2 2 9 12 3 2 2 2 1 2 4 3 2 2 0 5 9 9 5 5 6 5 7 2 6 10 15 20 22 22 19

GFSSW_850_spd_078.txt.gz
Wind_Speed
18 18 18 18 20 18 18 18 17 16 15 13 13 14 14 13 16 19 21 23 11 16 9 8 8 11 13 11 15 9 2 11 9 9 6 19 6 24 20 15 17 7 20 25 31
17 18 19 19 20 20 19 18 17 15 15 13 14 12 12 13 17 23 24 18 18 17 20 10 9 9 15 13 12 7 4 9 6 6 3 5 12 11 13 24 23 5 18 29 28
19 19 19 21 22 19 18 19 18 16 15 14 12 11 11 10 13 18 15 14 23 19 22 18 14 11 13 13 12 7 9 3 7 13 9 7 2 10 16 13 22 13 27 25 23
20 20 21 22 21 18 20 20 19 18 15 13 12 11 9 7 4 11 11 6 13 18 25 21 20 11 8 10 13 5 7 8 5 6 11 8 2 4 27 33 16 17 25 28 29
21 20 22 20 20 22 24 22 19 19 12 12 9 8 6 7 16 11 6 6 5 18 32 27 22 17 7 8 4 4 2 17 6 8 17 13 12 16 30 30 26 20 20 26 28
20 22 18 21 24 25 24 20 19 15 13 10 6 6 7 5 6 3 4 10 10 9 30 25 14 23 13 7 8 4 15 6 11 12 16 9 4 7 26 24 15 10 22 19 21
22 21 20 22 23 25 23 22 16 11 11 7 3 6 8 14 3 6 8 3 9 5 16 23 24 15 6 2 19 9 7 6 7 9 6 18 8 10 18 21 23 5 12 13 17
24 23 22 21 23 22 22 20 13 5 5 3 5 7 6 4 7 10 4 7 8 10 7 16 16 12 6 6 10 8 2 3 5 9 8 20 22 7 14 9 10 11 7 11 12
23 22 21 19 22 18 18 15 8 3 7 7 6 6 4 2 2 4 6 4 1 6 4 7 9 12 10 4 5 6 5 7 2 12 5 6 6 9 13 18 25 16 10 7 11
23 21 19 18 17 17 11 11 12 9 7 8 6 2 2 4 6 3 5 5 4 3 2 3 7 6 5 6 15 9 13 5 4 6 3 3 3 2 7 15 18 14 18 14 13
22 20 17 15 11 15 9 2 3 3 4 2 6 2 10 4 4 4 2 6 5 8 1 4 6 7 20 9 3 7 7 8 3 5 3 5 4 9 17 11 14 19 20 20 17
22 20 16 12 8 12 7 6 6 5 2 3 3 6 5 5 3 6 4 3 2 3 0 1 10 8 13 11 4 12 11 5 3 10 4 8 13 8 10 10 18 19 22 20 19
20 16 11 7 4 8 10 8 6 4 3 4 2 3 3 2 3 2 2 5 2 2 3 5 3 7 9 14 9 2 9 6 3 3 4 3 7 9 9 19 22 21 21 23 22
17 15 9 6 1 6 3 5 4 2 4 4 3 2 2 2 1 4 3 4 2 4 7 5 4 4 8 18 12 4 5 4 2 2 4 5 5 9 15 14 12 23 30 23 21
14 14 10 5 1 3 3 3 2 2 4 2 2 4 2 2 2 1 6 5 5 5 4 5 9 8 9 13 9 4 6 7 3 2 1 1 2 5 3 13 20 25 28 31 23
11 14 11 8 5 6 5 4 1 5 3 1 5 2 1 1 1 0 2 4 1 2 4 5 3 6 6 4 6 8 8 7 3 2 4 8 8 5 7 12 10 20 26 30 21
6 15 13 11 8 5 5 0 4 6 3 6 2 5 6 4 2 6 4 3 4 5 5 3 4 2 5 10 4 5 7 3 3 4 5 6 7 13 7 7 9 14 24 24 25
2 16 16 11 7 6 2 4 10 4 4 2 1 4 1 3 0 1 4 3 8 3 3 4 4 1 3 4 5 4 5 4 5 4 3 6 8 7 4 17 13 23 28 27 23
2 17 20 15 9 7 1 6 1 2 5 4 3 3 3 5 4 5 5 3 6 12 2 4 3 1 6 1 2 4 3 2 4 0 3 5 6 8 3 2 12 20 26 26 23
3 3 22 16 11 6 4 1 3 5 3 1 4 0 3 1 4 7 5 2 0 13 14 4 5 4 3 3 8 4 9 3 2 3 4 4 4 5 3 7 9 12 20 23 23
5 3 18 14 10 4 3 4 4 9 9 5 3 4 2 2 4 1 6 3 2 3 4 6 3 5 4 3 6 4 4 2 2 3 4 1 5 4 9 11 13 9 25 27 23
3 3 12 10 7 1 2 5 5 5 3 5 2 4 4 3 4 3 2 2 8 2 4 3 4 5 2 4 4 4 5 6 4 4 2 4 5 4 7 8 13 18 25 24 21
4 3 5 7 3 2 4 5 3 3 3 2 4 2 4 3 3 2 1 3 7 2 3 4 2 4 2 2 4 4 6 7 3 3 5 5 5 4 4 8 17 21 24 23 21
3 2 1 3 0 2 2 4 5 5 5 6 4 6 5 5 5 3 1 2 5 2 1 4 3 5 6 4 5 6 8 9 5 3 2 5 4 1 4 8 9 19 24 23 21
4 2 2 3 3 3 2 2 3 5 3 7 2 4 2 3 2 2 1 2 3 4 2 3 3 3 2 5 4 5 7 10 8 6 5 3 7 7 10 9 17 23 24 23 21
6 5 4 6 10 3 4 4 3 2 2 4 3 7 2 1 2 1 4 1 2 3 3 3 2 2 4 1 1 2 6 8 6 5 3 4 6 6 11 12 17 22 23 24 24
8 4 3 6 3 0 4 4 6 2 7 8 5 3 4 3 5 8 8 7 1 3 1 2 4 3 3 1 1 5 10 9 5 5 7 6 7 2 11 10 18 20 24 26 25

GFSSW_850_spd_081.txt.gz
Wind_Speed
15 16 19 16 18 19 19 19 19 18 18 15 13 13 15 16 16 16 19 18 10 16 9 9 9 12 11 10 13 8 2 9 9 7 4 15 15 27 11 10 17 13 22 11 24
16 17 18 18 20 21 19 18 19 18 16 15 15 14 13 13 16 23 20 19 17 14 12 9 8 8 9 12 12 8 6 7 7 5 5 7 13 16 2 14 21 23 8 22 25
19 19 19 20 20 20 19 21 21 20 16 16 15 12 10 10 12 17 16 21 19 27 13 13 12 8 6 10 11 7 7 2 2 11 9 8 3 15 12 6 18 13 13 20 24
20 18 20 19 18 21 22 24 23 19 20 17 13 10 9 6 4 3 9 7 18 22 22 17 14 7 6 7 13 2 5 5 2 11 8 6 10 7 21 23 24 25 29 21 25
20 18 19 18 20 22 24 23 21 18 16 14 9 7 5 4 14 8 8 5 1 8 30 24 16 9 6 7 4 9 2 19 1 13 13 12 8 5 15 22 31 29 24 23 25
19 20 20 19 20 22 23 21 20 14 13 10 4 7 6 3 4 3 7 12 11 7 27 26 13 21 7 5 8 12 17 7 15 6 10 9 6 8 4 18 32 24 27 18 28
19 20 18 19 18 22 20 21 17 9 5 3 6 8 6 8 2 4 4 5 6 10 10 24 21 15 9 2 12 2 14 2 4 9 6 6 3 7 9 13 30 33 24 16 22
17 18 16 17 19 18 19 15 11 6 4 10 6 6 4 5 4 7 2 4 7 12 8 9 26 13 8 5 8 7 1 10 5 9 6 14 17 8 13 26 28 33 26 8 22
20 18 15 15 17 15 12 10 10 10 8 5 5 3 3 3 3 4 7 3 4 13 11 2 14 10 12 5 5 4 4 5 3 10 4 6 4 20 26 29 25 25 29 10 9
19 16 16 12 12 13 5 8 9 6 8 7 5 1 5 5 4 5 4 2 4 8 6 4 9 7 6 8 15 12 6 3 4 5 3 5 3 9 29 30 26 27 33 20 13
17 17 15 13 8 11 3 2 4 4 3 2 2 1 6 4 2 4 4 6 5 3 2 5 6 8 10 8 5 11 8 5 4 2 4 4 2 6 8 20 21 25 29 31 22
16 16 12 10 5 9 5 5 6 2 1 3 1 3 3 3 2 5 7 2 2 2 2 5 13 9 13 9 6 14 10 4 2 2 4 4 7 7 8 9 20 24 33 40 34
15 14 10 7 2 5 8 8 5 4 2 2 2 0 2 1 1 1 2 2 2 2 3 7 3 8 10 11 7 2 16 6 4 3 2 3 5 7 11 16 19 21 23 24 27
12 12 10 5 1 5 4 5 4 4 4 4 2 1 1 1 2 2 2 1 2 2 1 2 3 8 6 8 4 4 8 7 3 4 4 6 4 6 11 14 8 24 29 28 20
9 11 11 5 2 1 0 1 2 2 4 1 4 2 1 1 0 2 1 2 2 0 1 1 6 7 2 8 5 3 6 7 4 4 2 0 1 6 4 9 20 23 24 27 29
7 10 9 6 5 3 1 4 4 5 3 2 1 3 1 2 3 2 2 2 1 2 3 1 8 3 5 3 6 5 10 8 5 3 2 6 6 5 6 9 4 15 28 32 30
3 9 9 7 4 6 3 5 4 5 2 4 1 2 2 2 2 3 2 1 1 3 2 2 4 4 0 3 4 6 4 3 3 4 4 3 6 12 5 6 5 7 17 26 30
2 8 8 8 5 3 3 4 9 4 5 1 2 3 5 6 3 5 5 2 6 4 2 3 2 4 2 4 7 5 7 4 6 4 3 2 6 6 7 12 19 21 21 22 28
5 11 12 11 7 3 2 6 2 3 3 2 3 3 4 5 3 4 6 3 7 13 3 4 3 1 5 3 2 4 4 5 5 3 3 4 7 8 4 7 6 9 15 23 30
1 6 13 12 8 3 3 3 4 4 3 3 2 2 2 4 7 7 8 4 5 10 7 3 4 1 6 0 7 3 9 3 2 2 3 4 5 6 5 9 4 7 18 29 28
2 3 10 10 6 3 3 5 5 10 10 5 3 3 3 1 5 4 3 4 7 5 11 2 2 2 5 3 6 3 2 2 3 3 4 1 5 6 6 8 9 8 20 28 26
4 2 8 8 4 3 1 3 5 5 5 6 3 4 3 3 0 3 3 3 2 14 7 6 4 3 2 4 6 1 5 5 4 4 2 3 6 2 7 7 11 12 25 27 26
5 4 4 5 1 3 5 5 6 6 6 6 4 5 2 2 2 2 2 6 6 4 7 6 2 4 2 2 1 4 4 3 4 3 5 5 5 2 3 5 16 22 26 27 24
6 3 3 3 2 3 5 6 6 8 4 5 4 2 3 2 2 1 3 3 4 2 3 5 3 4 6 3 6 5 7 12 8 4 3 5 7 7 3 5 10 20 27 27 24
7 2 3 4 4 5 5 5 7 6 5 4 3 3 2 2 2 2 1 1 3 2 2 3 4 4 3 4 4 4 8 15 14 13 8 4 6 8 7 8 15 24 24 23 22
6 5 4 6 10 5 4 4 6 7 3 6 3 5 0 3 3 1 1 2 1 1 2 1 2 2 3 1 2 2 6 12 17 12 9 6 7 6 7 11 13 22 25 26 25
10 6 3 4 5 3 1 3 7 10 12 11 6 4 5 4 5 5 4 6 4 1 2 2 4 3 3 1 1 5 10 11 8 6 12 10 11 3 3 7 18 22 26 28 26

GFSSW_850_spd_084.txt.gz
Wind_Speed
16 16 15 17 18 19 20 20 19 19 18 19 17 15 13 13 16 18 17 19 15 11 12 10 8 12 10 9 9 6 2 13 11 9 7 12 9 12 7 7 2 5 19 20 13
18 17 16 18 18 17 18 19 22 21 21 18 17 16 13 13 13 17 20 21 18 14 10 10 5 10 8 8 6 6 8 6 5 4 4 8 13 11 7 4 1 8 13 13 10
17 17 16 18 16 18 19 20 22 22 18 17 16 12 12 9 10 9 9 21 21 21 16 13 8 6 7 6 8 6 4 4 2 13 8 8 3 7 8 2 5 4 7 12 5
16 19 18 19 18 19 20 22 21 19 18 15 10 6 8 4 4 3 4 10 19 21 19 23 13 4 6 6 8 4 9 6 4 8 9 7 7 4 14 19 13 8 8 19 12
17 18 19 17 18 18 21 21 20 17 13 10 6 8 4 3 9 8 11 4 4 6 24 25 19 6 6 8 3 11 4 9 2 8 9 13 7 5 15 16 20 25 21 20 22
18 18 19 15 17 20 21 20 17 13 9 6 3 8 4 1 3 8 3 11 8 8 11 27 11 19 4 6 9 13 13 6 11 5 7 7 5 6 8 11 18 23 23 19 23
19 19 17 13 16 19 20 16 12 10 8 7 8 5 2 3 1 6 6 6 3 10 9 23 21 18 10 3 14 1 12 5 3 7 4 6 2 6 5 6 17 28 27 23 27
19 18 16 12 14 16 15 12 9 10 10 8 6 3 2 5 3 5 3 4 5 9 10 17 17 19 9 3 7 4 3 6 5 7 5 7 8 5 11 9 13 32 27 28 25
20 17 16 13 13 13 8 7 7 7 6 4 3 2 2 5 4 7 9 6 4 11 4 18 9 14 12 5 5 4 6 10 4 10 3 6 2 9 17 13 14 30 33 29 25
19 16 16 14 11 9 3 4 5 5 6 6 4 2 6 4 3 1 3 2 4 8 5 3 10 6 5 6 14 12 4 9 8 6 2 4 3 4 23 21 16 20 28 27 28
18 16 15 13 7 8 2 2 1 1 5 2 3 2 3 4 1 2 1 2 3 6 4 7 7 16 12 8 3 11 7 6 4 4 5 4 5 4 11 17 19 21 10 29 30
17 15 14 11 4 5 2 3 5 5 4 3 2 2 2 1 0 4 3 2 2 3 3 4 13 11 6 11 5 16 13 5 2 3 3 6 7 8 8 15 24 28 34 33 32
14 13 11 9 3 4 1 3 6 6 3 1 1 2 1 1 1 1 1 2 2 1 1 5 1 12 5 11 11 11 19 6 6 4 3 5 5 7 4 11 23 29 34 38 31
11 11 10 7 3 6 2 0 4 2 4 0 1 2 2 2 2 4 2 1 1 4 2 2 3 7 6 4 9 7 9 8 9 7 4 2 5 6 8 10 9 27 30 37 40
8 10 9 6 6 4 3 1 2 2 4 1 2 2 1 3 1 2 2 1 2 2 2 1 4 6 1 4 8 4 11 7 5 5 5 1 1 6 3 11 21 19 21 27 30
5 9 8 6 7 5 2 3 2 5 4 0 1 1 2 3 1 1 2 3 2 2 0 3 4 3 6 10 0 5 12 9 5 3 2 6 6 5 5 9 5 14 29 32 31
4 8 8 6 5 4 1 3 4 4 3 1 3 3 3 4 3 3 2 1 2 2 0 2 4 2 5 3 3 2 7 4 3 3 4 3 5 9 4 6 7 9 18 23 30
1 6 10 7 3 2 0 4 4 3 4 2 2 4 4 8 4 8 4 3 5 4 3 5 5 6 4 3 1 4 4 4 6 5 3 3 6 6 7 11 19 21 18 16 16
5 6 10 9 3 2 1 3 5 4 1 2 1 3 5 5 3 5 6 4 7 11 4 4 3 4 2 3 2 3 2 4 6 3 3 4 5 9 4 9 11 12 14 22 21
6 6 6 9 6 1 3 4 2 2 2 2 3 5 3 6 6 7 8 5 3 9 5 1 4 4 2 5 5 6 8 3 1 3 2 3 3 5 5 6 4 6 11 12 15
7 3 4 9 6 1 2 5 4 6 5 3 3 3 5 4 6 5 4 2 7 8 6 4 2 4 7 3 4 4 3 4 3 3 4 0 4 6 5 5 9 6 10 13 20
5 2 3 9 3 0 1 3 4 5 2 4 3 3 3 2 5 5 4 2 9 11 8 6 3 3 2 2 6 1 4 4 4 3 3 3 5 2 5 7 8 9 11 17 22
10 3 2 5 0 3 7 5 4 3 3 4 4 5 2 3 3 2 1 2 10 9 6 6 2 4 4 2 2 2 3 4 5 3 6 4 4 2 4 6 2 9 15 23 25
6 3 2 1 4 3 4 5 5 11 5 2 4 3 3 2 3 1 1 2 9 7 12 4 2 3 4 3 5 5 5 6 6 3 4 6 6 12 9 5 4 8 18 22 24
9 2 2 4 4 6 4 3 6 5 5 6 1 4 3 4 5 3 1 4 5 3 3 3 3 2 2 1 2 2 5 10 9 8 8 2 9 11 8 7 9 14 20 23 23
7 6 4 4 10 5 6 6 8 8 6 9 5 11 3 3 1 3 2 3 3 2 2 2 1 3 1 3 2 3 7 10 13 10 7 11 12 6 12 6 6 15 21 25 25
11 8 4 4 6 3 1 4 6 10 10 9 14 8 10 6 5 4 2 2 2 1 3 2 4 2 2 0 0 5 7 12 7 5 12 9 14 5 2 5 13 18 24 27 26

GFSSW_850_spd_087.txt.gz
Wind_Speed
16 17 15 17 18 14 15 17 17 19 19 18 18 15 12 10 10 12 14 16 17 13 7 9 10 12 13 9 9 6 3 12 19 13 9 11 8 6 7 8 5 6 10 14 3
17 17 16 16 16 16 16 17 19 19 19 17 17 14 10 9 10 11 13 14 16 18 11 11 11 13 10 8 9 6 9 10 3 6 6 8 9 11 7 7 5 8 10 7 8
17 15 18 18 17 17 17 19 20 19 18 15 14 10 14 5 7 3 1 9 19 17 16 7 7 12 7 7 8 7 7 6 3 13 7 9 8 10 10 5 14 14 7 9 3
19 15 17 19 15 17 19 19 18 18 15 12 7 3 4 3 2 2 4 11 4 18 18 18 9 10 10 9 10 4 9 5 0 5 13 8 9 7 13 9 14 17 14 4 4
19 18 17 14 14 17 19 19 17 14 10 7 1 3 5 4 2 5 10 5 2 4 15 22 18 9 11 9 6 6 4 10 12 4 9 12 8 6 11 8 16 14 13 8 4
20 19 18 15 14 17 20 17 14 9 5 2 1 6 5 2 2 7 4 1 8 3 6 19 14 20 9 7 10 11 8 11 9 5 5 6 4 6 9 12 13 19 18 13 6
20 19 17 16 14 16 17 13 10 9 6 8 7 5 4 3 1 6 5 8 6 1 5 8 21 11 8 6 18 3 12 2 5 8 4 7 3 7 9 7 13 15 27 20 10
18 18 17 17 14 14 12 9 8 8 9 5 5 3 2 3 4 3 1 5 2 5 5 6 23 12 8 3 14 5 6 7 5 8 5 9 10 4 11 10 12 14 20 22 15
16 16 16 15 15 11 8 5 4 4 3 3 4 3 2 2 1 4 5 5 4 8 2 4 15 8 10 4 6 9 9 14 4 9 3 4 2 3 10 10 11 14 18 23 23
17 16 15 14 13 9 5 2 1 3 3 3 3 2 2 1 1 2 2 3 3 6 3 5 8 7 6 3 11 17 8 9 9 6 4 5 4 2 11 14 14 13 12 27 22
15 15 15 13 8 7 4 2 2 1 2 0 2 2 1 2 3 1 2 3 4 4 2 2 1 14 15 11 12 13 6 12 6 4 7 8 6 7 6 11 14 15 19 24 32
14 13 14 11 6 6 5 2 2 1 3 1 2 1 1 3 3 1 3 2 1 0 2 1 9 12 11 13 5 14 8 4 3 3 5 6 10 8 7 12 19 18 17 22 25
13 12 12 10 5 6 4 1 3 2 1 2 2 3 3 3 4 2 3 2 1 1 1 1 5 17 12 10 4 8 12 5 7 4 2 6 6 7 5 10 20 22 22 23 29
11 11 10 8 5 7 3 1 4 0 4 3 2 2 3 3 4 4 1 2 1 2 1 1 7 17 8 9 8 7 12 8 13 10 6 1 4 5 8 9 9 23 24 27 26
9 9 9 8 7 5 3 2 1 0 3 3 1 2 3 4 4 0 3 3 3 2 2 1 2 12 10 7 7 5 15 7 4 5 3 1 2 4 1 13 13 15 26 35 32
8 8 8 8 7 7 2 2 2 5 4 0 1 2 2 1 2 3 2 1 0 2 1 1 4 2 3 5 7 8 11 10 4 3 2 5 5 4 4 8 11 19 31 34 33
5 6 7 7 6 5 1 3 4 4 2 0 2 3 3 4 2 1 1 3 2 3 2 2 1 2 5 5 3 14 17 5 4 3 4 1 4 7 5 6 7 11 26 36 36
5 3 8 7 3 3 1 4 4 2 4 3 2 4 4 8 5 4 2 4 3 3 1 4 3 5 4 3 5 16 6 4 7 6 4 2 5 5 6 10 17 12 13 12 25
7 6 7 7 1 1 2 3 5 5 4 2 1 2 4 6 4 6 6 4 6 10 4 4 4 3 5 6 3 1 2 3 6 3 3 3 5 8 6 7 5 13 13 19 20
10 4 4 6 2 2 3 4 2 2 2 3 2 5 3 4 6 8 8 5 4 10 5 3 5 5 3 7 7 3 3 3 2 4 2 0 3 3 3 2 5 4 13 14 13
9 2 2 5 2 1 2 4 5 5 7 4 4 3 4 2 6 5 3 5 5 5 6 6 1 5 2 4 4 2 2 4 4 2 3 3 3 4 3 3 7 8 10 10 10
9 2 2 5 3 1 1 4 7 6 4 5 2 5 4 3 3 4 5 4 11 13 8 6 1 4 1 1 5 0 4 3 4 4 2 2 3 3 4 5 8 10 4 4 8
13 2 1 5 3 3 6 6 5 5 4 4 3 5 3 2 2 2 3 6 12 10 7 4 2 4 3 2 4 3 2 4 4 3 6 5 4 3 4 4 7 4 3 8 15
6 3 2 4 4 2 5 5 7 15 5 11 5 4 3 2 3 0 1 4 12 4 5 2 2 2 4 4 4 5 6 6 5 3 6 4 5 7 8 7 7 4 7 15 20
6 2 2 3 4 3 4 4 6 10 8 11 7 14 11 3 2 3 2 4 2 7 2 1 2 2 3 1 3 1 3 7 6 5 6 6 8 12 6 7 10 8 9 17 21
3 1 0 1 5 4 5 4 5 7 4 8 7 17 9 8 6 3 1 2 0 4 4 1 2 1 3 2 2 2 5 7 9 5 4 3 9 5 13 9 9 6 11 19 22
5 4 1 2 3 3 2 4 5 11 6 8 13 10 7 7 21 21 14 3 4 3 2 2 3 2 2 2 2 5 5 7 4 4 7 8 8 5 3 4 10 9 15 20 23

GFSSW_850_spd_090.txt.gz
Wind_Speed
16 12 15 14 15 15 14 14 16 17 18 17 17 15 13 10 10 8 9 12 11 15 9 7 15 12 11 10 13 9 8 19 27 24 22 20 13 7 4 5 4 3 4 2 4
15 13 13 16 16 17 17 15 17 17 15 16 14 12 9 8 10 10 9 10 15 14 13 8 10 14 16 13 10 10 14 26 21 20 17 21 18 14 9 8 6 8 7 6 11
15 16 11 14 11 15 16 17 18 16 16 13 11 7 5 6 5 4 4 6 11 15 16 8 10 9 20 14 15 12 19 21 13 9 14 18 15 12 14 11 13 11 11 10 12
16 16 16 14 9 13 16 18 15 14 12 7 6 0 1 4 2 1 6 8 4 14 17 12 7 8 7 12 18 10 19 14 15 7 13 15 19 16 17 16 10 13 12 11 14
16 15 15 14 9 13 16 16 14 11 7 4 3 1 3 1 2 6 7 8 2 10 14 23 11 9 10 10 12 16 10 16 18 4 9 17 16 13 16 13 9 15 16 12 13
15 15 14 14 12 13 15 13 11 9 5 3 2 4 2 2 1 5 5 2 4 4 5 12 15 11 9 10 15 13 21 14 15 17 7 14 18 14 20 13 15 17 15 11 10
14 15 15 12 14 12 12 8 8 6 7 9 8 5 3 2 1 4 5 7 3 2 6 11 11 16 12 8 19 11 18 12 14 19 9 11 15 17 15 15 16 18 17 14 9
15 15 13 13 13 12 9 5 4 3 4 5 4 3 1 3 2 3 3 5 3 4 5 7 14 8 5 4 9 19 11 18 15 15 12 15 17 15 21 16 15 17 19 20 18
15 14 14 13 13 9 7 4 2 1 1 2 3 3 2 0 2 3 6 3 5 8 2 6 11 9 10 4 11 16 14 26 13 18 10 17 12 10 19 17 18 18 16 18 20
15 13 14 14 11 7 7 3 2 2 2 1 3 2 4 2 1 3 3 4 3 3 1 5 8 5 8 4 8 20 20 24 16 16 15 17 12 6 15 15 17 16 15 14 24
14 12 14 13 10 6 6 3 2 3 4 3 2 3 2 1 2 2 2 3 3 1 1 3 5 12 22 14 10 15 17 23 19 8 18 17 18 14 6 11 18 17 14 14 24
13 11 13 13 9 6 5 3 5 3 3 4 5 4 5 5 3 3 3 3 4 5 2 3 11 13 13 10 11 11 20 17 17 7 15 16 16 16 16 15 16 17 20 18 15
13 10 12 12 8 7 5 3 1 1 3 3 4 5 4 5 5 5 4 2 7 5 4 7 2 12 15 9 3 15 21 16 19 9 4 8 14 15 16 18 19 19 18 16 20
12 8 10 10 6 9 4 2 1 1 2 4 3 2 3 3 4 4 4 2 3 5 4 7 3 16 16 15 5 14 18 14 18 15 9 9 6 17 20 15 18 18 20 18 17
10 7 8 9 8 7 6 1 1 2 3 3 2 3 3 5 3 2 4 4 6 5 5 2 2 17 13 17 9 1 6 15 17 16 6 10 6 6 6 20 17 19 20 22 19
8 5 6 9 9 10 2 1 3 2 2 2 3 3 3 6 3 1 3 2 2 3 3 4 1 4 6 12 11 5 9 10 9 8 6 11 13 7 8 14 19 22 23 22 23
8 5 5 8 7 7 3 2 2 2 1 1 4 4 4 3 4 4 3 4 3 3 1 3 2 5 13 5 4 4 11 5 6 6 6 4 9 9 7 5 10 15 25 24 24
7 6 6 6 6 6 5 2 1 2 3 2 3 5 5 7 4 6 5 3 7 4 1 4 4 9 6 2 4 4 6 4 8 9 9 5 8 7 7 12 14 9 8 10 24
6 7 6 4 2 6 4 2 3 2 2 2 4 3 5 5 3 6 6 4 5 13 4 4 2 8 4 4 8 2 8 1 4 3 5 6 5 12 8 7 5 10 12 9 11
9 5 3 3 3 7 2 3 4 4 2 2 3 3 3 5 6 7 9 5 4 13 4 2 3 8 9 7 3 4 8 4 1 6 5 4 3 1 5 5 1 1 7 11 11
8 0 1 3 6 2 2 4 7 9 4 3 4 5 5 1 6 6 5 3 8 11 11 1 3 4 7 4 7 4 3 3 2 3 1 5 4 3 6 6 6 6 6 6 8
4 1 2 5 2 1 5 9 10 10 7 5 2 2 4 3 2 3 6 4 12 13 7 6 1 2 5 2 4 3 6 3 2 3 2 3 5 5 4 5 8 9 4 2 4
4 2 4 6 3 4 8 6 4 14 11 9 7 6 6 3 4 3 1 7 12 8 4 4 2 5 7 3 1 4 4 3 4 1 2 1 5 4 4 3 9 8 4 1 5
2 1 3 4 4 2 4 5 11 13 3 11 6 9 15 6 4 5 6 4 9 5 2 5 1 3 2 5 7 4 10 10 4 3 5 4 2 5 8 3 7 8 3 5 8
3 2 2 2 3 4 2 7 9 11 7 14 4 13 7 5 9 7 7 3 7 5 4 2 1 2 4 4 3 5 10 11 6 4 5 5 10 14 8 5 9 7 3 8 11
2 4 3 3 1 2 6 8 10 10 3 5 8 11 1 2 2 5 8 3 1 5 1 3 0 1 2 3 3 3 6 12 12 10 11 7 14 6 12 13 8 6 5 11 13
4 5 5 0 0 1 3 5 7 9 1 5 9 7 3 2 14 15 9 13 5 2 1 0 0 1 2 3 4 2 2 8 5 5 9 10 10 4 6 2 4 8 7 11 15

GFSSW_850_spd_093.txt.gz
Wind_Speed
14 14 9 13 16 11 18 15 14 18 19 16 16 15 14 12 11 8 10 13 8 12 13 8 11 15 15 17 19 12 5 17 29 26 24 26 18 16 8 12 5 4 6 6 10
15 14 14 11 16 9 14 15 18 19 15 15 14 12 11 7 6 10 11 15 15 16 13 12 13 17 19 19 15 15 7 23 25 23 18 22 24 17 12 12 9 9 7 9 14
15 15 16 15 13 9 14 17 19 16 13 13 9 8 3 2 5 5 9 7 10 13 16 12 11 12 19 19 18 18 21 23 21 27 14 6 21 23 17 15 12 9 8 11 15
14 16 16 16 15 11 15 17 16 13 12 9 7 2 2 2 2 3 6 9 10 4 15 14 11 11 8 14 23 13 32 24 26 6 10 14 19 20 18 16 11 10 10 10 13
14 16 17 14 15 14 15 16 13 10 9 5 2 2 4 4 2 5 6 8 6 5 12 14 14 17 11 16 17 23 11 24 19 4 10 17 23 24 20 18 8 10 13 11 11
14 15 16 15 14 14 14 12 10 7 4 0 3 5 2 7 1 3 4 5 2 3 6 11 11 16 12 9 10 17 19 12 19 13 16 22 20 15 17 20 11 13 12 11 11
15 15 15 14 14 15 13 9 6 4 3 4 6 1 3 2 1 0 3 4 4 2 5 9 21 13 11 7 18 12 10 16 13 20 10 9 14 21 22 13 16 17 16 14 12
15 15 14 13 14 14 11 7 5 3 1 1 3 2 3 3 3 3 2 2 3 4 5 3 13 9 9 4 5 16 14 16 16 17 21 15 20 20 21 20 19 20 19 18 15
15 14 14 13 14 12 9 8 6 6 4 2 1 4 2 2 1 3 5 3 3 5 3 3 8 7 2 5 7 11 9 21 20 16 16 17 15 21 24 25 20 20 20 21 21
14 13 13 14 14 10 9 7 7 5 4 3 5 5 4 2 2 1 2 3 2 3 3 1 5 5 5 4 6 14 21 23 24 19 19 19 19 12 22 24 23 22 22 22 23
14 11 12 13 12 9 9 4 4 5 9 7 3 7 2 2 2 2 3 4 5 5 1 3 3 9 15 15 10 6 22 18 23 17 20 19 21 14 11 17 22 23 23 24 22
12 10 11 13 12 8 8 4 5 5 8 9 6 6 5 3 5 6 4 6 6 6 6 3 10 14 11 14 10 9 14 20 21 15 18 18 19 17 14 16 20 20 22 20 21
11 8 9 11 10 7 7 5 4 2 6 4 6 6 5 4 9 4 5 3 8 8 4 9 5 11 12 10 7 9 15 19 23 12 12 11 16 17 17 21 18 18 19 22 22
11 7 8 10 8 11 4 6 2 0 3 7 3 2 2 4 5 5 7 7 4 4 5 9 6 11 14 7 9 11 15 14 17 15 10 14 6 17 19 20 19 22 23 21 20
11 8 7 8 6 7 10 4 0 1 3 2 2 2 3 7 3 5 5 6 10 3 2 2 4 12 14 12 12 3 15 7 14 14 11 14 7 14 23 21 20 21 25 22 21
10 7 5 8 6 11 6 1 1 3 1 1 2 2 3 6 5 0 4 5 4 4 5 4 3 2 3 11 13 5 6 11 9 8 7 13 15 11 11 16 18 18 23 22 22
10 5 6 5 2 8 10 1 2 2 3 0 4 3 4 3 4 6 6 5 4 3 2 1 2 4 10 7 4 3 5 5 4 4 6 15 12 3 8 3 11 16 22 23 22
9 4 6 4 4 7 7 2 2 8 3 7 5 3 3 6 3 6 4 5 11 7 3 4 3 4 7 1 3 3 1 2 6 8 11 3 7 7 9 7 8 8 6 19 22
6 7 4 5 5 10 4 2 5 5 13 8 14 2 4 4 1 5 5 4 4 11 3 3 5 7 2 3 6 4 5 7 6 1 8 8 7 7 5 5 5 9 9 10 11
6 2 2 4 6 6 2 5 7 11 11 8 4 6 7 2 4 5 5 5 4 11 1 4 5 8 7 6 2 3 6 3 3 4 5 5 11 6 9 8 7 6 14 13 10
3 1 3 6 4 1 2 4 7 12 10 6 7 6 5 2 5 4 1 1 6 10 8 0 2 3 7 7 8 4 3 7 4 2 4 6 5 9 9 7 5 2 3 7 10
0 1 3 4 1 2 4 6 7 13 11 5 6 4 4 4 4 3 3 3 5 11 5 3 2 4 2 4 6 3 6 8 3 3 2 3 5 6 10 7 8 7 3 3 5
0 2 6 7 3 4 7 4 7 9 7 7 5 4 9 3 3 6 2 5 6 9 1 6 2 4 5 3 2 4 6 7 1 3 1 4 6 7 5 3 7 6 4 3 5
2 2 2 2 2 3 5 5 8 5 4 7 4 2 8 8 6 6 7 3 2 1 7 6 0 3 3 5 9 5 11 11 2 2 2 4 6 7 6 4 5 7 2 2 5
2 2 3 1 2 2 3 5 8 7 5 9 1 9 3 6 5 6 6 5 5 4 4 3 2 2 4 5 5 8 12 12 5 5 3 5 6 5 3 1 3 4 2 3 6
2 4 2 4 2 3 3 5 7 6 3 4 6 9 3 4 3 4 8 2 1 3 3 3 2 1 2 3 1 3 5 10 8 10 12 12 16 10 10 12 12 7 3 3 8
5 7 3 5 3 2 3 5 4 7 2 4 7 7 2 3 12 12 10 13 4 2 3 2 1 2 3 2 3 2 6 8 7 6 10 11 9 8 6 6 3 3 3 3 7

GFSSW_850_spd_096.txt.gz
Wind_Speed
15 15 15 14 13 16 10 16 16 18 21 17 15 15 14 14 12 9 11 8 8 10 9 8 7 11 15 21 19 19 3 11 17 18 17 20 13 18 12 15 8 7 19 16 19
16 14 15 16 15 15 10 16 18 20 19 14 15 13 12 8 7 12 11 14 16 17 15 10 12 11 20 14 13 12 6 10 12 17 12 6 20 20 9 19 11 12 15 15 20
15 14 16 16 15 15 12 16 19 17 15 15 13 10 6 2 7 8 8 12 14 10 12 14 15 11 20 21 17 13 12 13 17 23 15 4 15 24 16 11 19 17 16 20 18
14 13 15 17 13 14 15 16 18 15 13 13 9 4 0 2 3 3 9 7 8 8 6 13 16 13 4 12 19 10 26 20 23 9 6 4 17 23 13 14 23 21 18 17 18
13 14 14 15 16 15 15 16 14 12 11 9 2 1 3 5 3 5 7 7 6 5 5 12 15 14 10 7 18 21 13 26 26 6 3 13 17 17 15 5 17 25 20 16 13
13 14 14 14 13 14 16 15 11 10 7 5 2 2 3 9 3 5 6 5 3 4 4 9 4 5 16 10 9 7 17 14 15 8 6 8 11 13 17 9 15 21 19 18 17
14 15 14 13 13 14 15 12 9 6 3 3 1 1 10 5 2 2 4 5 6 4 4 3 10 9 5 8 12 8 8 5 6 14 2 7 10 8 25 18 25 14 14 14 15
14 15 14 14 12 13 12 10 8 7 5 3 3 2 7 8 5 4 3 4 3 5 5 4 3 8 6 10 1 3 5 6 10 15 16 8 7 14 28 7 6 13 16 17 17
14 13 13 12 13 13 11 11 8 8 6 3 2 4 6 4 1 1 3 4 5 3 5 1 2 3 6 2 1 2 3 8 7 10 10 12 6 13 26 25 17 16 18 21 17
14 13 12 12 13 11 10 10 7 7 4 3 7 5 5 2 1 2 2 4 4 5 1 2 2 3 2 2 6 5 4 7 12 11 8 8 8 8 17 15 16 20 19 19 26
12 12 10 11 12 9 9 7 6 2 7 7 1 9 2 3 3 3 3 5 7 7 3 4 1 5 6 9 8 2 14 13 12 10 11 10 8 14 14 20 19 22 22 20 22
11 11 9 11 10 7 9 4 3 4 7 12 9 6 4 6 4 6 3 4 4 6 6 1 6 11 8 10 14 6 3 17 6 13 15 14 11 14 9 7 15 15 18 22 19
10 9 8 9 7 9 6 3 6 1 4 4 5 4 3 5 6 5 5 5 9 9 2 5 6 7 13 9 9 6 4 7 9 5 4 8 12 13 11 15 16 19 23 23 25
9 7 6 6 4 8 3 11 2 3 1 6 2 2 1 3 4 4 5 6 3 5 3 6 10 7 7 6 5 2 3 12 16 13 3 14 5 5 11 12 10 19 19 16 16
10 7 4 5 3 5 8 4 2 4 1 1 3 2 4 3 2 2 3 5 7 7 3 2 4 6 10 4 9 2 9 8 3 6 6 12 2 5 20 13 14 15 21 21 17
10 4 2 7 5 11 10 3 4 1 4 1 2 3 2 2 5 2 4 5 8 6 2 5 8 4 2 11 8 4 3 4 3 2 3 9 7 5 10 22 11 17 26 24 23
7 2 4 4 3 8 6 1 1 4 1 2 5 3 3 3 4 5 5 4 2 4 2 6 3 3 9 6 5 5 2 3 3 2 2 11 5 6 2 12 14 15 25 29 27
4 2 4 4 6 7 4 1 5 5 2 12 8 3 2 5 3 5 1 2 8 7 3 3 4 2 2 3 2 1 3 1 3 4 5 7 3 5 4 9 2 3 23 27 26
3 6 4 5 7 7 2 3 3 3 9 6 6 1 2 1 2 3 2 4 2 7 3 2 4 3 6 3 1 5 3 5 4 4 4 4 1 5 8 7 4 5 2 1 15
5 3 5 7 7 7 1 3 3 8 9 7 2 5 5 2 2 3 6 5 1 6 1 2 4 7 5 4 6 4 4 2 1 3 3 3 6 4 6 6 6 4 7 6 6
4 3 3 7 6 1 2 2 3 9 12 6 7 5 6 4 3 2 2 2 3 5 1 2 2 3 3 4 6 3 1 5 4 1 1 4 1 4 7 7 6 5 5 12 12
4 1 3 3 1 2 2 2 4 9 9 3 4 3 3 5 3 2 2 1 3 6 1 3 0 3 2 2 3 4 6 3 2 5 3 3 1 8 7 6 8 7 3 3 6
2 2 3 3 2 1 4 3 5 6 5 5 3 1 6 3 3 4 1 6 6 5 1 3 1 3 3 2 3 2 4 3 0 1 2 1 2 6 1 4 8 8 7 5 7
4 2 1 1 2 2 3 1 5 6 2 6 3 5 7 5 7 4 3 5 4 7 7 3 1 2 1 3 6 4 6 8 4 1 4 3 2 4 6 4 9 8 5 6 8
5 3 3 2 3 1 1 2 6 5 3 4 3 8 1 4 3 6 6 5 6 5 4 2 2 1 3 3 4 4 7 12 5 4 2 3 3 4 5 3 6 5 5 6 9
6 5 4 5 4 5 3 5 4 4 3 2 3 5 3 3 2 3 5 3 2 3 4 4 3 0 3 2 3 3 7 7 4 6 6 5 3 4 10 9 8 5 7 4 8
7 10 7 6 4 2 2 3 3 3 3 3 4 5 1 2 7 9 6 8 6 2 2 2 2 1 1 1 2 2 4 6 2 3 2 4 2 5 6 7 2 7 4 2 5

GFSSW_850_spd_099.txt.gz
Wind_Speed
15 14 13 13 15 14 13 10 16 17 18 17 14 13 15 13 14 10 11 6 6 8 11 12 9 8 12 20 17 9 5 8 21 16 10 9 9 8 17 16 11 6 15 24 32
15 13 13 15 16 14 15 11 16 18 16 14 14 13 10 9 7 11 7 9 8 12 14 9 14 7 12 8 14 9 4 17 9 4 1 5 9 18 9 18 14 18 21 28 34
12 12 11 14 16 13 14 14 16 17 14 14 11 8 5 1 5 4 5 10 15 14 11 12 15 10 8 14 7 5 8 3 20 21 4 7 4 6 21 4 22 26 27 27 28
12 12 13 14 15 15 15 15 16 14 12 10 7 2 2 1 2 2 8 11 9 9 9 9 11 4 4 8 13 6 9 13 11 6 6 5 8 4 11 2 24 26 26 29 28
12 12 12 12 14 13 14 16 15 12 10 7 2 2 4 2 3 7 9 7 5 6 8 7 10 4 10 2 11 8 14 11 22 7 6 10 5 4 11 3 18 27 25 28 28
13 12 12 13 12 13 14 14 13 9 6 5 2 3 0 3 2 8 5 2 3 3 6 6 5 9 8 6 5 5 6 10 11 10 8 1 4 5 9 9 6 25 25 23 25
15 13 12 12 12 12 14 12 11 7 4 3 1 1 5 8 4 8 5 7 7 5 4 8 3 4 6 5 9 3 5 3 7 17 4 4 1 7 15 14 7 13 22 22 22
14 14 13 12 12 12 12 10 11 7 5 3 2 3 4 6 8 7 3 4 5 10 8 5 3 2 3 14 2 2 3 3 2 13 13 7 6 7 11 10 14 17 26 25 20
13 13 13 12 11 12 9 9 9 5 4 2 0 4 6 6 2 0 5 4 3 5 9 1 4 3 4 3 2 2 3 4 5 12 7 7 3 14 14 12 23 20 13 28 22
14 13 13 11 11 9 8 6 4 4 2 2 1 4 5 1 2 5 3 4 1 4 1 1 2 0 1 1 10 6 2 4 6 10 6 9 3 3 14 8 18 26 13 29 24
13 12 11 10 10 7 7 3 3 1 3 5 2 4 4 3 8 3 3 4 6 6 0 4 2 3 1 6 8 4 2 8 2 7 9 7 8 10 22 28 24 26 17 17 26
12 10 8 9 6 5 5 2 3 5 4 6 7 8 7 7 5 8 5 2 1 3 5 3 6 6 1 7 2 3 8 9 7 5 5 8 9 19 8 6 35 32 33 23 23
10 8 7 5 4 8 5 4 4 2 1 5 3 3 1 4 7 9 6 4 4 5 3 5 5 8 5 6 4 3 3 10 8 2 4 9 6 3 5 9 7 16 22 22 18
9 7 3 3 2 6 4 10 1 5 2 1 2 1 2 2 4 3 5 2 3 3 2 4 8 7 5 3 4 4 7 7 7 2 5 2 3 8 8 10 6 15 16 19 21
9 5 2 3 2 4 7 0 5 3 5 5 1 2 2 1 7 1 3 2 3 5 2 3 5 5 3 6 6 2 3 1 5 2 5 3 1 5 7 15 11 16 24 21 14
8 1 3 3 2 6 4 6 4 5 2 3 3 4 2 0 4 2 2 2 6 4 3 3 5 3 2 6 6 1 1 11 6 3 2 6 4 4 13 24 5 6 23 23 19
4 4 2 3 2 3 6 3 4 6 4 6 2 3 3 1 2 2 3 1 1 4 3 3 3 6 8 5 4 5 2 3 3 2 3 12 8 7 7 11 14 15 28 25 22
2 4 4 3 3 3 3 3 8 1 3 4 3 3 0 2 2 3 2 3 4 4 3 1 4 4 2 3 4 4 3 2 4 3 2 6 5 5 7 4 26 26 30 31 30
5 6 5 6 5 4 3 5 5 3 3 5 6 3 2 1 2 1 2 2 4 8 1 2 4 4 5 3 3 4 1 1 1 1 4 3 4 6 3 5 10 12 21 31 35
4 5 4 6 7 3 4 4 2 2 5 3 1 3 4 3 0 0 1 3 3 3 3 3 4 5 5 3 8 1 1 2 2 3 2 2 1 3 3 6 6 7 10 12 14
8 4 3 5 6 4 3 2 2 7 8 4 4 3 4 3 1 1 2 4 4 1 3 3 2 2 2 2 5 1 3 2 2 3 3 3 4 5 3 5 4 4 3 7 8
8 2 3 3 3 3 2 2 1 5 9 1 3 2 1 2 3 2 0 2 15 2 3 2 2 1 2 5 4 3 3 2 3 3 0 3 3 4 5 7 8 6 8 10 8
9 4 5 2 3 1 2 1 4 2 3 4 2 3 2 1 1 3 3 8 11 4 2 2 2 2 2 2 2 3 3 2 2 1 1 2 3 4 6 7 7 6 4 4 7
7 2 3 2 3 6 4 1 4 2 1 4 2 5 3 4 6 3 4 4 10 5 6 7 1 2 4 4 4 4 5 5 4 3 1 2 1 2 3 3 2 6 5 3 5
6 2 4 2 2 5 4 3 3 1 1 2 2 4 3 3 3 3 3 4 5 8 6 1 0 1 5 4 4 4 5 7 4 3 3 2 5 1 1 3 1 4 7 6 6
7 5 5 5 9 5 3 1 3 1 0 2 3 3 4 3 2 2 1 2 2 3 3 2 2 2 3 2 3 2 6 6 3 2 2 5 2 3 5 8 10 5 6 8 9
9 10 8 6 3 4 3 4 4 4 1 3 2 3 2 2 3 5 5 6 5 3 2 1 2 2 3 3 4 3 1 5 3 1 2 3 3 3 4 5 6 7 5 2 9

GFSSW_850_spd_102.txt.gz
Wind_Speed
14 14 10 12 14 15 12 13 10 15 17 18 15 14 14 12 11 10 11 4 5 6 10 12 13 18 17 14 17 17 6 19 25 16 12 14 12 23 24 18 8 9 20 35 33
10 12 10 10 13 15 11 14 12 15 16 15 14 11 9 9 6 6 4 7 8 9 11 14 18 10 12 11 12 9 10 16 15 2 4 9 13 13 10 10 5 14 25 35 40
12 11 11 12 13 14 12 14 13 15 13 11 9 7 5 2 4 2 1 5 10 12 11 10 12 13 15 12 8 5 11 10 13 24 15 8 9 4 9 4 11 26 38 37 39
13 12 12 13 12 12 11 13 16 12 12 9 6 1 2 2 3 1 6 8 8 7 8 11 10 13 5 8 14 10 5 17 9 8 7 1 5 8 4 6 8 29 38 36 38
13 12 12 12 12 12 11 12 14 11 8 5 2 1 2 4 4 4 9 7 3 4 6 9 8 12 5 6 11 5 5 9 11 12 2 6 5 4 11 10 9 25 31 37 39
13 14 13 13 11 13 11 12 12 8 6 4 2 3 2 4 2 6 11 4 7 7 4 5 5 10 3 7 8 3 2 10 8 14 4 3 1 3 10 2 5 19 25 29 32
14 14 13 12 12 12 11 10 11 7 4 4 2 2 6 7 4 8 9 4 9 9 7 7 7 5 2 2 8 5 1 5 8 19 6 3 7 5 1 4 8 6 20 23 27
14 14 14 13 11 11 11 9 11 6 3 3 2 2 5 4 6 7 3 6 6 8 11 4 4 2 1 7 8 5 2 4 4 15 11 7 4 3 5 6 7 7 5 17 23
14 14 15 12 10 10 7 8 8 2 2 3 2 2 6 3 4 2 5 6 5 6 7 2 3 2 2 2 2 3 5 4 5 14 9 9 2 5 6 7 6 11 2 4 18
15 14 14 10 8 8 6 6 4 1 2 3 2 5 3 1 2 7 6 3 4 5 6 2 2 1 2 2 1 5 2 4 4 11 10 18 8 5 9 8 3 12 11 8 17
15 14 12 8 6 4 3 1 1 1 3 1 4 3 4 5 6 7 3 4 6 5 3 4 3 3 2 5 0 6 3 2 2 5 8 13 10 6 4 5 4 15 16 16 20
15 13 10 6 1 1 1 1 1 0 2 2 6 9 9 5 5 6 5 2 2 2 1 5 3 6 5 8 3 4 7 2 6 3 3 9 5 9 11 5 8 14 24 26 23
15 12 8 2 3 1 1 2 1 4 3 2 1 4 4 6 3 6 5 1 3 3 3 5 4 9 4 5 3 3 5 6 3 6 5 5 3 3 5 11 16 18 26 30 24
13 11 6 3 3 2 3 4 4 6 4 3 2 1 4 5 2 5 2 0 2 2 3 3 5 6 5 3 4 2 5 3 16 2 2 4 3 4 2 13 12 21 33 35 30
12 10 5 4 4 2 3 4 7 4 5 5 1 3 3 3 7 3 2 2 4 3 2 5 4 3 2 3 6 1 1 8 8 4 4 1 4 3 18 15 18 25 36 36 27
11 7 7 6 4 1 4 9 8 5 2 4 2 2 3 3 4 4 2 2 4 3 2 3 3 4 2 8 3 2 3 12 8 3 3 3 2 2 11 23 23 15 20 26 22
7 8 7 7 4 4 9 7 4 5 3 5 2 2 1 2 2 2 2 4 2 4 2 2 3 2 3 5 5 3 2 4 4 4 3 8 4 7 6 13 19 14 20 23 22
8 10 8 5 6 8 9 4 7 3 3 3 2 1 2 2 0 4 3 4 3 2 3 3 5 1 2 2 3 3 2 2 3 4 2 7 4 5 4 10 20 26 28 28 27
15 12 8 7 7 9 5 5 6 5 2 2 4 5 3 2 2 3 1 2 5 5 2 3 5 4 10 5 3 2 2 2 2 3 4 3 5 8 5 4 7 21 25 27 25
16 11 7 7 8 6 4 4 3 2 1 1 2 3 2 3 2 2 2 3 3 8 5 5 4 5 3 4 4 3 2 1 3 4 3 3 3 2 2 2 3 5 16 28 29
16 8 7 9 6 2 4 4 2 2 2 2 2 1 2 2 2 1 1 4 5 2 6 4 1 1 1 1 3 2 2 1 2 3 4 4 4 4 8 3 4 3 3 5 12
12 3 9 10 2 1 2 5 4 1 4 3 3 1 2 3 2 1 1 2 13 3 3 1 1 2 4 3 2 3 3 2 3 2 2 3 2 3 6 4 8 7 7 3 6
15 6 7 7 3 1 2 3 3 2 2 2 2 2 1 1 1 2 2 5 10 3 2 1 2 3 3 2 2 4 3 1 4 3 2 4 3 3 5 7 10 7 4 5 6
10 3 3 3 3 7 5 3 2 2 2 3 3 3 1 3 3 3 2 2 8 4 4 1 2 3 4 4 3 2 3 2 4 3 1 2 3 4 5 6 7 4 5 3 3
6 3 5 3 2 5 4 5 4 4 1 3 3 3 2 2 2 3 3 5 4 8 3 2 1 0 3 4 2 2 2 5 2 4 4 0 1 3 3 1 3 3 2 3 2
9 5 5 4 16 6 3 4 5 3 2 2 5 1 3 2 1 1 1 3 1 6 5 4 3 4 2 3 5 1 3 6 0 3 9 3 5 3 4 6 4 2 2 3 4
10 10 7 5 4 5 5 6 6 8 2 5 6 2 4 4 2 3 5 7 3 2 3 3 3 3 3 4 2 4 1 5 4 3 5 5 5 2 2 4 5 4 1 4 7

GFSSW_850_spd_105.txt.gz
Wind_Speed
14 10 10 10 11 15 15 9 14 13 16 18 15 12 14 14 13 12 14 6 4 5 7 6 6 11 14 20 19 14 8 11 19 21 6 14 13 27 30 19 11 14 7 18 39
14 11 10 10 12 13 14 11 14 13 16 13 12 12 11 9 8 9 5 5 9 7 9 9 12 9 6 5 11 10 7 17 6 17 9 18 14 28 8 11 8 12 9 26 43
13 13 12 11 14 12 13 12 14 15 12 12 10 9 5 4 5 1 3 3 8 8 12 9 10 9 4 6 7 9 17 10 16 16 17 4 21 13 9 15 9 20 24 37 37
15 14 12 13 12 12 12 11 14 15 12 9 7 4 2 3 2 1 3 7 6 9 8 7 6 4 4 5 8 9 21 22 17 14 19 11 18 9 12 2 10 20 32 39 38
16 15 13 12 13 12 12 10 13 14 10 6 6 3 2 4 6 3 6 9 7 6 7 6 9 12 7 5 3 16 14 18 25 22 3 13 22 14 11 12 12 24 35 43 44
17 16 14 12 13 12 11 12 11 10 9 5 4 3 4 3 3 4 8 4 6 6 7 7 6 10 10 5 8 7 15 17 25 12 13 16 16 5 6 8 7 26 36 36 41
19 16 15 13 13 11 10 11 13 11 8 5 3 5 6 7 4 6 8 3 5 7 11 8 8 8 1 3 5 8 8 7 17 15 6 4 15 6 5 9 11 14 22 29 35
21 17 15 13 13 10 10 11 12 9 5 5 3 4 5 2 4 6 4 8 5 7 9 8 5 3 1 3 4 7 6 7 12 13 7 15 5 13 6 10 13 9 10 14 25
21 18 17 15 12 9 9 10 9 4 4 4 3 2 4 3 4 2 6 7 9 8 6 7 6 2 2 1 3 9 5 6 7 17 9 9 2 15 7 4 7 9 9 9 16
21 19 18 14 9 8 5 8 5 2 2 3 3 4 2 2 2 6 7 4 4 4 5 4 3 1 2 3 3 3 6 4 5 10 9 13 10 5 17 1 5 6 8 5 9
20 19 16 13 7 6 3 3 1 1 4 3 3 3 3 10 9 8 4 5 5 3 2 3 3 4 7 7 1 5 4 5 2 7 9 12 6 9 9 18 11 10 6 5 5
19 19 15 10 4 3 3 2 3 1 0 1 6 7 7 4 5 5 3 2 1 2 2 4 3 5 5 5 5 1 6 4 2 5 2 10 6 11 9 4 12 12 13 8 4
19 16 13 7 5 3 3 2 3 6 1 1 1 2 3 5 1 3 3 3 3 3 2 4 5 9 7 5 4 1 5 2 4 6 6 6 4 5 6 5 5 10 14 11 9
19 14 10 6 5 5 3 4 4 6 4 3 1 1 3 4 1 5 2 2 2 3 4 4 5 7 5 4 3 2 5 3 8 5 3 3 2 0 5 5 6 10 12 9 6
18 12 7 9 4 4 2 4 8 3 3 2 0 3 5 5 6 1 3 2 3 4 3 5 4 5 3 1 3 0 4 4 6 3 2 2 4 1 9 9 12 13 7 12 10
18 9 9 9 8 4 4 9 8 5 4 3 1 1 2 3 2 6 2 2 3 4 3 4 1 3 3 6 3 3 4 9 6 3 2 4 3 5 11 18 12 16 20 18 8
15 9 12 9 6 6 11 10 4 4 3 3 1 1 3 4 3 3 3 5 0 4 2 2 2 4 3 2 4 3 9 4 2 2 2 2 2 6 9 5 11 16 27 26 31
14 15 14 10 7 11 13 4 4 4 4 1 2 1 3 3 3 4 4 3 3 2 3 2 4 5 3 3 2 3 3 4 4 3 3 2 3 4 1 9 16 19 25 33 37
18 18 13 11 10 12 5 4 6 5 3 2 3 5 2 2 2 4 1 2 3 3 4 4 4 2 7 4 1 2 2 3 5 3 4 1 6 7 5 6 3 16 26 30 29
25 18 12 11 12 12 3 4 3 4 1 3 3 1 2 1 1 3 2 2 5 4 3 5 3 6 3 2 4 3 0 2 3 3 4 2 4 3 8 10 5 6 15 24 21
26 11 13 13 12 5 3 5 3 2 2 2 3 1 3 1 3 2 5 3 5 4 2 3 3 4 1 3 1 2 2 2 2 3 4 3 2 3 6 6 5 7 5 7 19
20 4 16 15 3 0 3 5 4 2 3 2 3 3 2 1 2 2 2 2 11 3 2 1 3 2 3 3 2 1 2 1 3 2 3 3 3 5 5 5 5 8 9 3 1
16 7 12 14 3 1 2 3 3 2 1 1 2 2 1 0 2 3 3 4 9 4 3 3 2 1 5 3 2 2 2 1 4 3 3 4 3 4 5 7 8 9 8 7 4
10 4 5 9 4 6 5 4 3 2 3 3 2 3 2 2 1 3 2 2 7 6 2 6 3 4 4 2 1 1 2 2 3 3 5 2 2 4 5 5 5 7 7 5 3
6 3 7 4 4 5 4 5 5 4 2 2 2 3 4 3 3 2 1 3 3 6 4 2 3 2 4 4 2 2 1 3 3 3 4 6 3 2 4 5 6 4 4 7 6
10 6 6 4 14 6 3 5 5 3 4 2 4 4 3 2 3 2 1 3 1 4 1 3 2 2 3 4 4 2 2 3 3 3 5 5 1 2 3 6 11 8 6 7 6
9 10 8 2 3 5 5 6 7 8 3 5 8 4 4 4 2 1 2 3 3 1 4 2 2 3 3 5 2 6 5 2 1 1 5 2 4 2 3 4 6 7 8 7 7

GFSSW_850_spd_108.txt.gz
Wind_Speed
20 17 12 12 12 13 16 17 10 15 12 16 14 13 13 13 12 14 14 6 3 4 7 4 5 7 9 10 13 7 5 12 16 14 15 16 5 22 25 22 19 11 6 18 36
19 15 13 12 11 12 14 14 13 15 15 12 13 11 10 10 10 10 5 3 5 8 6 7 9 6 4 3 7 8 7 18 10 12 13 15 17 15 11 19 19 13 9 17 39
18 17 15 11 12 13 12 12 12 15 15 11 11 9 7 7 7 1 3 3 6 8 10 9 8 6 4 5 7 6 15 17 19 18 7 13 15 19 12 10 21 12 17 31 43
18 17 17 13 11 12 10 12 12 14 16 11 9 6 4 4 2 1 2 5 5 8 9 7 5 2 4 6 11 7 12 21 24 10 8 12 15 11 15 22 29 20 21 34 40
22 18 15 13 12 14 9 11 11 12 14 8 5 5 3 3 6 3 3 8 5 6 6 7 8 6 7 5 8 11 7 13 20 26 25 14 14 3 19 35 29 35 28 33 40
21 17 15 14 12 13 10 9 11 13 11 6 4 5 3 3 3 3 5 3 3 5 4 6 6 8 10 9 9 6 11 12 18 21 21 18 5 3 8 31 36 30 32 36 39
21 22 17 14 12 12 8 9 11 13 10 6 3 5 6 10 4 5 7 5 5 5 8 9 7 6 3 5 10 6 8 10 13 21 9 15 13 11 17 20 31 32 32 36 41
21 23 17 14 14 12 8 8 10 9 6 3 5 4 5 3 5 5 3 7 8 6 9 8 6 7 4 4 3 4 5 5 10 18 14 10 11 8 9 23 17 17 35 37 37
21 21 21 14 12 9 7 8 7 5 3 4 3 2 5 3 4 2 6 7 7 9 7 9 9 3 1 3 3 5 6 10 6 19 12 17 6 5 6 25 6 7 14 26 32
22 20 20 14 11 8 7 5 4 2 2 3 3 3 2 3 5 7 7 4 4 4 6 3 3 1 2 3 3 3 3 6 7 12 17 15 10 6 3 17 22 9 11 12 22
22 20 19 14 7 8 3 1 2 2 5 2 2 3 4 9 9 7 6 4 4 2 3 4 3 4 9 8 11 5 7 12 5 5 13 13 8 9 10 15 22 18 15 9 13
16 20 19 12 7 4 4 3 3 1 1 3 8 7 7 6 5 2 2 2 1 2 1 4 4 7 7 5 11 8 9 5 2 5 12 11 6 7 5 7 12 12 20 10 4
23 21 16 10 7 5 3 4 3 6 3 2 1 2 4 6 3 2 3 2 3 1 2 4 5 7 10 5 10 9 5 1 3 6 3 10 5 8 6 7 4 11 21 11 1
17 21 13 7 6 6 3 5 4 7 4 2 1 1 4 4 2 4 2 2 1 1 3 5 5 7 7 6 4 5 7 2 8 2 1 3 2 4 8 7 6 12 17 10 4
18 18 12 9 5 6 3 4 9 4 3 2 1 1 4 3 4 1 5 2 3 2 2 6 4 7 9 4 1 4 6 5 5 4 2 2 3 3 2 3 2 10 8 11 4
22 19 13 13 8 5 5 11 10 6 5 0 3 2 1 3 3 7 3 4 2 2 4 6 3 3 4 3 3 6 3 3 4 1 3 4 1 2 4 3 5 4 9 10 6
16 16 15 10 7 8 13 13 4 4 3 2 2 2 3 4 4 5 4 6 2 4 3 2 2 3 6 2 2 1 1 2 4 4 2 5 4 0 11 8 6 4 7 12 11
16 16 16 11 7 12 18 5 3 4 4 2 3 4 3 4 2 4 5 4 2 2 2 2 3 6 2 1 3 3 2 3 3 2 1 2 3 2 2 9 16 19 15 8 15
14 16 16 12 11 16 6 3 6 5 4 5 3 5 2 1 1 5 1 3 3 4 4 5 4 3 4 2 3 2 3 1 4 2 3 3 4 3 8 8 2 14 21 21 21
20 22 15 14 13 14 4 4 2 4 3 3 4 1 2 1 0 3 3 4 5 3 2 2 2 3 3 2 6 5 1 3 3 3 4 4 4 5 12 11 8 4 12 21 27
30 11 15 15 15 6 3 5 4 3 3 2 3 3 2 2 2 2 4 4 5 6 2 1 3 5 2 5 4 3 3 2 3 2 3 4 0 3 7 6 5 7 6 8 19
25 3 19 20 3 1 3 5 4 3 3 2 3 3 3 2 3 2 1 3 9 3 3 2 3 2 2 1 2 1 2 2 3 2 3 3 4 7 7 7 9 11 11 8 5
17 7 14 19 3 2 2 2 2 3 2 3 2 1 2 2 1 2 3 4 8 5 3 4 3 3 7 4 2 5 4 3 3 2 3 4 2 5 7 7 12 12 12 13 12
11 5 5 11 5 4 5 4 3 3 2 4 3 3 2 1 4 2 2 1 5 7 7 4 3 3 3 3 2 3 4 4 3 3 3 2 2 5 6 7 10 12 13 12 11
9 4 9 5 5 4 3 5 5 4 2 3 2 3 5 3 2 2 1 2 4 9 5 3 4 4 2 4 2 3 3 4 4 2 3 4 3 2 3 4 7 10 13 15 15
11 6 6 3 14 7 4 5 5 3 4 2 3 4 3 4 5 5 3 3 1 5 4 4 2 3 4 6 3 4 6 2 4 3 5 3 4 2 6 10 15 15 13 13 12
8 11 7 2 3 5 5 7 7 8 2 2 7 4 3 3 6 5 3 3 0 2 4 2 1 2 2 4 0 5 5 3 2 3 4 3 1 3 5 7 10 11 11 11 11

GFSSW_850_spd_111.txt.gz
Wind_Speed
21 23 13 15 12 10 12 12 15 10 12 15 13 12 11 10 11 11 10 4 2 5 7 3 3 4 6 6 11 9 7 12 21 14 16 7 17 22 23 18 20 15 19 15 27
19 21 16 14 12 12 13 15 11 11 12 15 11 11 10 9 8 8 3 1 2 4 2 1 5 4 3 3 5 8 6 18 18 15 15 19 16 17 19 20 19 19 22 20 25
21 19 20 16 13 12 10 10 11 11 13 13 12 10 8 7 6 2 4 3 4 4 6 6 5 3 1 4 5 5 15 19 20 22 15 13 15 18 16 15 20 11 19 16 27
21 20 22 17 13 13 14 9 12 11 13 14 6 8 7 4 1 4 2 2 2 5 3 4 4 4 4 5 8 7 15 20 26 21 17 13 13 10 24 29 41 22 24 22 28
22 22 22 17 14 13 13 9 9 11 12 10 4 7 5 2 3 4 2 4 1 2 3 4 8 6 6 6 6 14 16 18 17 15 23 21 16 16 21 29 40 36 34 34 27
26 21 20 17 15 12 14 10 9 11 11 9 4 6 4 1 3 4 3 4 2 1 1 2 5 8 8 7 11 5 13 19 17 19 13 17 22 12 10 19 24 26 28 36 37
24 22 18 15 14 12 13 10 10 11 11 6 4 5 6 6 3 5 6 5 4 6 6 6 6 7 3 5 6 6 7 13 17 16 11 18 15 22 23 17 12 25 28 36 37
27 26 16 17 15 12 12 9 11 11 7 3 5 4 5 3 4 6 5 3 6 8 8 8 7 8 7 5 4 5 5 5 4 14 11 16 16 13 20 15 18 17 31 36 34
27 21 12 19 15 11 8 9 10 8 2 5 5 3 3 2 4 3 3 5 5 8 11 9 8 5 2 4 5 6 5 9 11 15 8 15 7 6 9 13 14 7 25 31 35
22 21 12 19 15 10 6 8 6 4 4 4 4 2 3 1 4 6 6 5 4 5 6 3 1 0 2 3 4 4 4 5 10 4 15 16 11 5 5 11 13 4 25 32 21
17 24 15 14 13 6 6 3 4 4 7 3 2 2 2 6 6 3 4 5 5 2 2 2 1 6 9 9 13 11 15 14 14 12 16 18 17 11 10 6 6 13 22 26 26
24 20 11 17 12 7 7 7 7 2 2 5 6 6 4 4 3 2 1 3 1 3 1 2 7 8 6 9 10 12 16 16 15 6 13 16 14 4 11 5 4 13 21 25 30
20 12 5 10 8 9 9 10 5 6 3 2 2 1 2 5 0 2 2 1 4 3 3 4 6 8 7 11 10 14 10 11 7 11 8 11 5 10 8 13 10 16 13 23 31
11 3 6 11 5 10 10 9 4 8 4 2 0 1 3 3 1 4 0 2 2 3 2 5 5 5 10 11 10 6 8 12 11 4 3 2 4 5 11 6 2 9 14 27 24
15 6 7 8 3 8 4 6 9 4 3 1 1 2 4 1 2 1 2 3 4 3 1 6 4 7 10 5 2 3 6 2 2 4 2 3 4 1 8 5 9 12 16 28 15
14 14 14 9 7 8 5 9 9 5 4 1 2 2 1 2 1 5 0 2 3 3 3 7 5 4 4 10 2 7 4 1 2 2 3 2 2 3 2 6 12 10 9 14 11
24 9 5 6 8 9 10 11 4 4 4 2 2 2 1 3 3 3 3 3 1 3 3 3 3 3 7 5 1 2 3 2 2 3 3 4 6 3 4 8 5 10 7 7 8
16 5 7 6 6 10 15 4 2 3 4 2 4 3 2 2 3 4 4 5 1 2 2 1 3 5 3 1 2 3 1 1 2 2 2 2 4 3 6 13 13 7 3 8 3
22 12 9 9 10 15 5 2 5 5 5 6 4 4 1 2 0 5 1 2 3 4 3 5 4 3 2 3 2 0 3 2 2 2 3 3 5 5 12 9 9 7 8 13 9
24 14 13 15 13 14 3 4 2 3 4 3 4 3 3 2 1 4 1 2 4 3 3 3 4 1 1 1 1 4 1 2 3 3 5 3 4 6 14 13 12 7 11 6 11
21 10 17 17 15 6 3 5 4 3 4 3 3 3 3 3 1 1 3 3 1 4 3 2 2 6 3 6 6 4 3 3 3 2 3 3 3 5 7 8 8 7 15 6 10
15 4 24 21 4 1 2 4 4 4 2 2 3 3 4 4 2 1 1 2 9 2 1 1 3 1 2 5 2 2 1 1 2 1 2 3 4 6 7 6 10 12 15 18 10
10 7 21 25 3 2 3 2 2 3 3 3 2 2 0 3 3 2 4 4 6 3 2 4 3 3 7 4 2 5 4 2 2 1 6 4 2 5 6 8 16 16 18 18 16
9 4 6 14 4 3 5 4 4 3 2 4 3 1 2 2 4 3 2 2 4 4 4 1 3 2 2 2 2 5 7 5 4 4 1 3 3 6 8 8 13 20 20 20 18
6 4 8 6 7 4 3 4 5 4 2 3 1 2 4 3 1 1 1 3 3 7 2 3 3 2 3 1 2 4 5 9 7 0 4 3 5 3 5 6 11 17 20 22 23
13 7 8 3 17 8 5 5 6 3 4 3 3 4 3 4 5 6 2 1 4 5 3 3 1 2 3 4 6 7 8 8 6 5 6 5 6 3 6 11 19 19 19 20 20
12 11 10 4 5 5 5 7 7 8 2 1 7 5 2 3 4 5 3 2 1 3 4 3 2 3 2 2 1 6 5 4 3 4 1 4 1 4 6 9 13 15 15 14 15

GFSSW_850_spd_114.txt.gz
Wind_Speed
21 19 19 14 12 13 10 11 11 11 10 15 16 14 9 9 9 9 6 4 4 6 8 3 2 4 4 6 10 11 10 14 21 24 24 18 21 28 30 28 29 21 17 15 17
24 21 17 16 15 12 11 13 11 11 10 14 17 12 8 8 6 6 2 2 5 4 5 7 5 5 4 5 7 13 13 21 20 20 20 24 13 20 22 32 34 28 26 17 16
24 23 16 15 13 12 9 10 9 10 12 12 16 9 8 5 3 2 7 3 1 2 3 4 6 6 9 9 12 10 19 19 23 21 20 25 25 25 23 20 29 31 31 20 11
28 22 19 15 13 12 11 12 10 11 13 13 13 7 6 2 3 6 5 3 4 4 4 4 5 6 7 10 13 14 24 22 26 24 24 23 27 28 27 26 27 30 36 28 16
29 28 21 13 11 12 11 10 9 11 12 12 9 6 3 2 4 8 4 1 2 2 3 5 7 7 11 8 11 18 19 23 24 24 26 26 30 28 30 28 24 29 30 31 23
24 33 22 14 9 14 9 10 8 12 11 11 9 5 1 4 6 7 6 1 3 2 2 3 5 8 13 16 14 15 14 20 21 25 25 24 26 28 37 24 21 23 28 39 28
16 27 21 12 8 11 9 10 9 11 11 10 7 4 5 6 6 6 6 4 4 4 4 5 5 7 4 10 16 17 17 18 22 21 22 18 25 28 37 34 24 21 26 43 37
13 18 19 12 6 10 10 6 9 10 10 6 7 3 4 4 6 4 4 3 4 8 8 7 7 9 10 9 12 13 12 15 15 12 23 20 25 25 30 32 30 24 25 31 40
16 18 23 15 5 10 11 4 9 9 8 6 5 3 2 4 2 2 3 3 3 5 8 6 7 10 8 7 7 7 13 17 16 14 14 21 17 19 15 24 30 27 24 19 26
15 15 26 20 7 11 9 6 8 6 5 5 4 3 3 3 1 3 5 5 4 3 4 5 5 8 6 5 10 11 10 15 15 7 10 16 19 7 14 16 18 22 17 14 13
15 18 23 13 3 7 7 4 5 2 7 3 2 0 1 3 1 1 4 4 5 5 5 3 6 11 13 13 16 14 17 22 22 20 13 15 18 15 9 10 13 18 11 11 14
15 16 25 8 4 6 8 8 6 2 2 7 5 4 3 1 1 2 3 6 6 6 3 5 13 16 8 12 16 19 20 23 23 23 17 15 19 17 13 12 15 16 16 14 15
10 16 12 7 4 7 7 7 4 4 1 2 3 2 1 1 1 4 4 3 5 9 8 11 11 9 14 14 17 19 19 21 21 8 13 12 12 14 8 10 14 15 14 17 20
8 6 2 6 5 6 6 7 6 9 1 6 4 2 0 1 4 5 3 2 3 5 7 10 6 8 13 17 14 19 7 14 16 10 5 16 6 11 10 10 14 16 15 10 14
11 12 2 3 2 8 7 8 9 7 2 4 3 3 0 2 1 3 3 2 7 7 3 4 9 9 14 11 5 6 6 11 13 8 5 12 3 4 12 9 10 8 7 4 12
10 18 6 5 5 7 8 12 14 2 2 4 2 2 3 2 2 2 1 3 5 7 9 18 10 6 4 12 13 11 7 5 4 2 5 3 2 3 1 2 3 4 3 3 8
13 16 9 6 6 11 13 17 3 2 2 4 4 3 2 2 2 2 2 2 2 3 2 5 5 4 4 7 5 3 6 2 2 3 5 5 9 7 8 2 3 3 13 12 16
14 20 13 8 7 14 21 2 2 3 4 2 3 4 2 1 1 1 1 2 2 2 3 5 1 5 1 1 4 3 5 4 4 4 3 5 5 4 10 10 4 4 9 14 15
14 13 11 12 13 17 5 2 0 3 5 8 4 3 3 2 0 1 1 4 2 3 3 5 2 0 3 3 3 3 3 4 2 1 2 4 4 6 17 16 11 10 7 8 9
23 17 14 15 14 19 2 3 2 2 4 5 4 4 4 4 3 1 3 3 4 2 3 3 5 1 1 3 2 2 3 0 1 3 4 4 6 9 19 16 14 10 3 13 13
16 9 18 18 16 4 1 2 2 4 3 5 4 4 3 3 3 2 2 3 3 5 2 4 3 6 1 6 5 4 2 2 1 3 3 3 5 10 10 11 14 8 12 16 23
15 3 25 22 4 0 2 3 3 5 3 2 1 3 4 4 3 2 2 3 4 6 5 3 3 3 3 4 5 4 7 4 3 4 5 6 5 10 11 15 14 14 10 16 19
8 7 22 20 3 3 2 3 2 4 4 4 2 1 2 3 2 2 4 5 6 3 4 3 3 2 3 1 1 5 13 5 2 2 5 3 5 7 12 15 19 19 14 9 12
7 4 5 11 1 3 5 5 5 1 3 2 2 2 3 3 2 3 1 2 4 5 4 3 4 6 5 4 4 6 17 10 1 7 13 10 12 13 14 15 17 19 17 18 19
6 4 7 6 6 5 3 7 7 6 2 4 3 2 3 3 3 2 1 3 2 7 4 3 4 5 6 3 3 9 13 16 8 5 9 10 14 11 11 11 14 16 18 19 19
8 5 6 3 10 13 6 7 11 4 6 5 2 7 3 2 0 4 2 1 2 4 2 3 2 2 6 9 10 14 16 12 13 13 14 14 13 7 9 10 15 16 16 17 17
8 8 6 8 9 11 6 8 11 8 1 1 6 7 3 2 3 5 4 3 2 4 5 3 1 1 2 4 5 7 12 10 9 10 6 10 6 6 9 12 15 14 15 14 14

GFSSW_850_spd_117.txt.gz
Wind_Speed
25 22 19 16 16 10 10 11 13 12 10 14 14 16 14 8 9 7 9 10 9 13 8 5 5 5 6 9 13 12 11 16 22 23 22 24 22 25 28 28 39 32 29 25 9
27 22 23 16 14 13 10 10 12 10 10 12 15 16 13 8 7 9 9 9 9 7 8 10 8 7 9 10 9 14 13 22 20 19 19 22 24 29 26 24 33 35 29 29 21
18 23 27 17 17 12 11 10 11 10 10 11 13 15 9 5 7 2 7 3 3 6 4 7 7 8 12 14 16 16 18 20 22 23 23 21 23 26 25 22 28 29 36 37 31
19 20 25 19 18 11 10 12 11 11 10 9 11 9 6 2 3 7 6 7 6 5 6 7 10 13 11 15 18 19 26 25 26 27 24 21 25 28 31 32 31 31 33 33 39
18 19 25 23 19 13 9 10 10 10 9 8 9 7 3 5 8 8 5 3 2 4 7 9 12 12 15 13 15 18 20 27 28 27 25 25 27 29 33 34 33 34 33 30 27
16 17 21 26 19 11 7 7 8 9 9 7 8 5 3 6 5 6 5 2 4 4 6 7 9 9 14 18 17 19 23 25 27 24 26 23 27 30 33 37 37 35 35 35 33
16 15 15 25 17 13 6 6 9 8 8 8 7 2 6 7 4 4 7 4 5 7 8 7 7 8 8 12 14 17 20 21 23 22 25 29 28 28 45 33 36 38 36 35 34
20 13 17 24 15 9 4 5 7 7 7 8 4 3 5 8 6 6 5 6 7 8 10 9 8 12 16 14 18 17 16 19 22 20 26 24 20 27 33 32 35 39 38 30 32
20 17 13 18 14 6 4 7 7 7 5 4 4 3 3 4 4 4 6 7 7 7 7 8 8 15 16 12 11 14 15 21 22 21 19 16 17 23 29 26 35 36 39 33 27
21 17 17 18 22 12 8 9 8 5 6 6 3 3 5 4 4 4 6 9 8 7 8 8 9 11 11 8 12 14 14 19 20 20 12 20 19 23 26 25 27 33 31 29 28
22 20 20 18 24 13 13 11 9 4 8 6 4 0 4 3 4 4 7 8 9 9 10 9 7 11 18 16 19 16 19 23 23 22 22 22 19 20 23 17 20 23 21 24 20
24 16 17 24 18 13 14 7 6 6 6 11 4 5 3 2 4 5 5 6 9 10 8 7 14 17 14 16 15 18 21 26 25 22 19 22 25 15 17 16 18 17 18 21 19
20 10 12 13 9 9 13 10 9 9 4 6 7 5 3 3 4 5 5 6 10 12 12 14 15 9 13 14 17 19 20 25 24 24 21 23 24 19 18 22 17 14 16 21 22
15 4 7 4 7 10 11 13 9 11 2 7 6 4 3 2 4 5 4 6 4 8 9 12 11 9 11 16 14 20 20 25 24 17 13 13 5 16 16 12 13 18 16 20 22
13 13 12 14 5 10 8 13 10 6 2 8 5 3 2 4 1 6 5 5 10 11 5 6 7 11 15 18 8 11 13 11 13 10 8 12 6 2 14 9 10 9 15 14 16
13 15 13 6 7 8 9 13 13 2 3 5 5 4 4 5 2 2 4 6 8 8 11 18 22 13 12 14 14 15 10 14 7 4 5 8 10 3 1 9 8 4 7 2 2
11 8 12 9 5 10 11 16 2 3 4 6 4 5 3 3 3 3 3 4 2 5 1 8 8 6 2 8 6 6 11 3 5 6 1 0 6 5 7 5 5 9 10 9 3
11 12 17 8 6 12 19 3 5 3 3 3 4 7 2 4 4 3 2 2 4 1 5 5 2 4 2 3 5 8 6 4 5 3 4 9 5 6 9 4 18 13 9 10 16
5 16 16 10 11 15 7 4 3 3 6 8 7 3 4 5 4 3 3 4 2 0 4 5 3 3 3 3 2 7 5 9 6 2 2 3 1 5 16 15 15 14 12 20 24
7 11 13 12 15 11 3 3 2 3 7 10 3 6 6 6 4 1 1 3 3 2 2 4 5 2 2 4 8 4 9 3 1 6 4 5 6 6 14 15 13 14 17 22 28
5 8 15 19 14 9 3 0 2 5 5 5 2 3 2 4 2 1 2 1 4 6 5 4 4 7 4 4 4 4 3 5 4 3 4 3 5 9 13 11 12 12 17 25 28
9 2 21 21 4 3 4 1 1 8 4 2 1 1 4 5 3 1 2 2 5 4 5 3 4 4 4 3 5 7 9 4 4 5 6 6 6 11 15 15 16 19 22 27 26
10 4 19 12 3 4 2 2 1 4 5 2 2 2 2 4 2 4 3 4 4 5 7 9 5 3 5 4 5 5 14 3 3 2 13 5 4 13 17 19 21 13 20 26 28
6 3 3 6 2 2 4 3 3 2 4 1 1 2 4 4 1 4 1 2 5 5 9 5 5 5 6 5 5 7 14 12 3 8 12 13 14 17 17 17 16 19 21 19 27
4 4 6 4 6 4 4 4 6 3 1 3 2 4 1 2 4 3 2 4 1 4 2 3 3 5 7 7 12 12 16 18 13 14 9 14 17 13 13 14 18 19 19 21 26
3 4 4 0 8 9 4 4 7 4 5 4 4 5 4 0 3 3 4 1 2 5 3 3 2 4 6 8 12 15 17 15 14 15 15 16 15 10 14 16 19 19 19 22 22
5 9 5 6 8 8 5 5 7 6 1 4 3 5 3 4 1 5 4 5 3 5 6 4 2 2 3 2 4 5 12 9 13 13 10 10 9 10 12 15 18 18 19 18 17